[[{"header":{"parameterUnit":"m.s-1","parameterCategory":1,"la1":31.0,"la2":29.5877,"lo1":-88.7671,"lo2":-86.6584,"dy":0.0162,"dx":0.0185,"nx":115,"ny":88,"refTime":"2024-03-02T06:00:00:Z","depth":0,"parameterNumber":2,"parameterNumberName":"U-component_of_WINDS"},"data":[0.0,0.0,0.0,0.0,0.0,0.0,0.0,0.0,0.0,0.0,0.0,0.0,0.0,0.0,0.0,0.0,0.0,0.0,0.0,0.0,0.0,0.0,0.0,0.0,0.0,0.0,0.0,0.0,0.0,0.0,0.0,0.0,0.0,0.0,0.0,0.0,0.0,0.0,0.0,0.0,0.0,0.0,0.0,0.0,0.0,0.0,0.0,0.0,0.0,0.0,0.0,0.0,0.0,0.0,0.0,0.0,0.0,0.0,0.0,0.0,0.0,0.0,0.0,0.0,0.0,0.0,0.0,0.0,0.0,0.0,0.0,0.0,0.0,0.0,0.0,0.0,0.0,0.0,0.0,0.0,0.0,0.0,0.0,0.0,0.0,0.0,0.0,0.0,0.0,0.0,0.0,0.0,0.0,0.0,0.0,0.0,0.0,0.0,0.0,0.0,0.0,0.0,0.0,0.0,0.0,0.0,0.0,0.0,0.0,0.0,0.0,0.0,0.0,0.0,0.0,0.0,0.0,0.0,0.0,0.0,0.0,0.0,0.0,0.0,0.0,0.0,0.0,0.0,0.0,0.0,0.0,0.0,0.0,0.0,0.0,0.0,0.0,0.0,0.0,0.0,0.0,0.0,0.0,0.0,0.0,0.0,0.0,0.0,0.0,0.0,0.0,0.0,0.0,0.0,0.0,0.0,0.0,0.0,0.0,0.0,0.0,0.0,0.0,0.0,0.0,0.0,0.0,0.0,0.0,0.0,0.0,0.0,0.0,0.0,0.0,0.0,0.0,0.0,0.0,0.0,0.0,0.0,0.0,0.0,0.0,0.0,0.0,0.0,0.0,0.0,0.0,0.0,0.0,0.0,0.0,0.0,0.0,0.0,0.0,0.0,0.0,0.0,0.0,0.0,0.0,0.0,0.0,0.0,0.0,0.0,0.0,0.0,0.0,0.0,0.0,0.0,0.0,0.0,0.0,0.0,0.0,0.0,0.0,0.0,0.0,0.0,0.0,0.0,0.0,0.0,0.0,0.0,0.0,0.0,0.0,0.0,0.0,0.0,0.0,0.0,0.0,0.0,0.0,0.0,0.0,0.0,0.0,0.0,0.0,0.0,0.0,0.0,0.0,0.0,0.0,0.0,0.0,0.0,0.0,0.0,0.0,0.0,0.0,0.0,0.0,0.0,0.0,0.0,0.0,0.0,0.0,0.0,0.0,0.0,0.0,0.0,0.0,0.0,0.0,0.0,0.0,0.0,0.0,0.0,0.0,0.0,0.0,0.0,0.0,0.0,0.0,0.0,0.0,0.0,0.0,0.0,0.0,0.0,0.0,0.0,0.0,0.0,0.0,0.0,0.0,0.0,0.0,0.0,0.0,0.0,0.0,0.0,0.0,0.0,0.0,0.0,0.0,0.0,0.0,0.0,0.0,0.0,0.0,0.0,0.0,0.0,0.0,0.0,0.0,0.0,0.0,0.0,0.0,0.0,0.0,0.0,0.0,0.0,0.0,0.0,0.0,0.0,0.0,0.0,0.0,0.0,0.0,0.0,0.0,0.0,0.0,0.0,0.0,0.0,0.0,0.0,0.0,0.0,0.0,0.0,0.0,0.0,0.0,0.0,0.0,0.0,0.0,0.0,0.0,0.0,0.0,0.0,0.0,0.0,0.0,0.0,0.0,0.0,0.0,0.0,0.0,0.0,0.0,0.0,0.0,0.0,0.0,0.0,0.0,0.0,0.0,0.0,0.0,0.0,0.0,0.0,0.0,0.0,0.0,0.0,0.0,0.0,0.0,0.0,0.0,0.0,0.0,0.0,0.0,0.0,0.0,0.0,0.0,0.0,0.0,0.0,0.0,0.0,0.0,0.0,0.0,0.0,0.0,0.0,0.0,0.0,0.0,0.0,0.0,0.0,0.0,0.0,0.0,0.0,0.0,0.0,0.0,0.0,0.0,0.0,0.0,0.0,0.0,0.0,0.0,0.0,0.0,0.0,0.0,0.0,0.0,0.0,0.0,0.0,0.0,0.0,0.0,0.0,0.0,0.0,0.0,0.0,0.0,0.0,0.0,0.0,0.0,0.0,0.0,0.0,0.0,0.0,0.0,0.0,0.0,0.0,0.0,0.0,0.0,0.0,0.0,0.0,0.0,0.0,0.0,0.0,0.0,0.0,0.0,0.0,0.0,0.0,0.0,0.0,0.0,0.0,0.0,0.0,0.0,0.0,0.0,0.0,0.0,0.0,0.0,0.0,0.0,0.0,0.0,0.0,0.0,0.0,0.0,0.0,0.0,0.0,0.0,0.0,0.0,0.0,0.0,0.0,0.0,0.0,0.0,0.0,0.0,0.0,0.0,0.0,0.0,0.0,0.0,0.0,0.0,0.0,0.0,0.0,0.0,0.0,0.0,0.0,0.0,0.0,0.0,0.0,0.0,0.0,0.0,0.0,0.0,0.0,0.0,0.0,0.0,0.0,0.0,0.0,0.0,0.0,0.0,0.0,0.0,0.0,0.0,0.0,0.0,0.0,0.0,0.0,0.0,0.0,0.0,0.0,0.0,0.0,0.0,0.0,0.0,0.0,0.0,0.0,0.0,0.0,0.0,0.0,0.0,0.0,0.0,0.0,0.0,0.0,0.0,0.0,0.0,0.0,0.0,0.0,0.0,0.0,0.0,0.0,0.0,0.0,0.0,0.0,0.0,0.0,0.0,0.0,0.0,0.0,0.0,0.0,0.0,0.0,0.0,0.0,0.0,0.0,0.0,0.0,0.0,0.0,0.0,0.0,0.0,0.0,0.0,0.0,0.0,0.0,0.0,0.0,0.0,0.0,0.0,0.0,0.0,0.0,0.0,0.0,0.0,0.0,0.0,0.0,0.0,0.0,0.0,0.0,0.0,0.0,0.0,0.0,0.0,0.0,0.0,0.0,0.0,0.0,0.0,0.0,0.0,0.0,0.0,0.0,0.0,0.0,0.0,0.0,0.0,0.0,0.0,0.0,0.0,0.0,0.0,0.0,0.0,0.0,0.0,0.0,0.0,0.0,0.0,0.0,0.0,0.0,0.0,0.0,0.0,0.0,0.0,0.0,0.0,0.0,0.0,0.0,0.0,0.0,0.0,0.0,0.0,0.0,0.0,0.0,0.0,0.0,0.0,0.0,0.0,0.0,0.0,0.0,0.0,0.0,0.0,0.0,0.0,0.0,0.0,0.0,0.0,0.0,0.0,0.0,0.0,0.0,0.0,0.0,0.0,0.0,0.0,0.0,0.0,0.0,0.0,0.0,0.0,0.0,0.0,0.0,0.0,0.0,0.0,0.0,0.0,0.0,0.0,0.0,0.0,0.0,0.0,0.0,0.0,0.0,0.0,0.0,0.0,0.0,0.0,0.0,0.0,0.0,0.0,0.0,0.0,0.0,0.0,0.0,0.0,0.0,0.0,0.0,0.0,0.0,0.0,0.0,0.0,0.0,0.0,0.0,0.0,0.0,0.0,0.0,0.0,0.0,0.0,0.0,0.0,0.0,0.0,0.0,0.0,0.0,0.0,0.0,0.0,0.0,0.0,0.0,0.0,0.0,0.0,0.0,0.0,0.0,0.0,0.0,0.0,0.0,0.0,0.0,0.0,0.0,0.0,0.0,0.0,0.0,0.0,0.0,0.0,0.0,0.0,0.0,0.0,0.0,0.0,0.0,0.0,0.0,0.0,0.0,0.0,0.0,0.0,0.0,0.0,0.0,0.0,0.0,0.0,0.0,0.0,0.0,0.0,0.0,0.0,0.0,0.0,0.0,0.0,0.0,0.0,0.0,0.0,0.0,0.0,0.0,0.0,0.0,0.0,0.0,0.0,0.0,0.0,0.0,0.0,0.0,0.0,0.0,0.0,0.0,0.0,0.0,0.0,0.0,0.0,0.0,0.0,0.0,0.0,0.0,0.0,0.0,0.0,0.0,0.0,0.0,0.0,0.0,0.0,0.0,0.0,0.0,0.0,0.0,0.0,0.0,0.0,0.0,0.0,0.0,0.0,0.0,0.0,0.0,0.0,0.0,0.0,0.0,0.0,0.0,0.0,0.0,0.0,0.0,0.0,0.0,0.0,0.0,0.0,0.0,0.0,0.0,0.0,0.0,0.0,0.0,0.0,0.0,0.0,0.0,0.0,0.0,0.0,0.0,0.0,0.0,0.0,0.0,0.0,0.0,0.0,0.0,0.0,0.0,0.0,0.0,0.0,0.0,0.0,0.0,0.0,0.0,0.0,0.0,0.0,0.0,0.0,0.0,0.0,0.0,0.0,0.0,1.1797,0.0,0.0,0.0,0.0,0.0,0.0,0.0,0.0,0.0,0.0,0.0,0.0,0.0,0.0,0.0,0.0,0.0,0.0,0.0,0.0,0.0,0.0,0.0,0.0,0.0,0.0,0.0,0.0,0.0,0.0,0.0,0.0,0.0,0.0,0.0,0.0,0.0,0.0,0.0,0.0,0.0,0.0,0.0,0.0,0.0,0.0,0.0,0.0,0.0,0.0,0.0,0.0,0.0,0.0,0.0,0.0,0.0,0.0,0.0,0.0,0.0,0.0,0.0,0.0,0.0,0.0,0.0,0.0,0.0,0.0,0.0,0.0,0.0,0.0,0.0,0.0,0.0,0.0,0.0,0.0,0.0,0.0,0.0,0.0,0.0,0.0,0.0,0.0,0.0,0.0,0.0,0.0,0.0,0.0,0.0,0.0,0.0,0.0,0.0,0.0,0.0,0.0,0.0,0.0,0.0,0.0,0.0,0.0,0.0,0.0,1.3719,1.2928,1.2909,1.29,1.2948,0.0,0.0,0.0,0.0,0.0,0.0,0.0,0.0,0.0,0.0,0.0,0.0,0.0,0.0,0.0,0.0,0.0,0.0,0.0,0.0,0.0,0.0,0.0,0.0,0.0,0.0,0.0,0.0,0.0,0.0,0.0,0.0,0.0,0.0,0.0,0.0,0.0,0.0,0.0,0.0,0.0,0.0,0.0,0.0,0.0,0.0,0.0,0.0,0.0,0.0,0.0,0.0,0.0,0.0,0.0,0.0,0.0,0.0,0.0,0.0,0.0,0.0,0.0,0.0,0.0,0.0,0.0,0.0,0.0,0.0,0.0,0.0,0.0,0.0,0.0,0.0,0.0,0.0,0.0,0.0,0.0,0.0,0.0,0.0,0.0,0.0,0.0,0.0,0.0,0.0,0.0,0.0,0.0,0.0,0.0,0.0,0.0,0.0,0.0,0.0,0.0,0.0,0.0,0.0,0.0,0.0,0.0,0.0,0.0,0.0,0.0,0.0,1.3457,1.3664,1.4097,0.0,0.0,0.0,0.0,0.0,0.0,0.0,0.0,0.0,0.0,0.0,0.0,0.0,0.0,0.0,0.0,0.0,0.0,0.0,0.0,0.0,0.0,0.0,0.0,0.0,0.0,0.0,0.0,0.0,0.0,0.0,0.0,0.0,0.0,0.0,0.0,0.0,0.0,0.0,0.0,0.0,0.0,0.0,0.0,0.0,0.0,0.0,0.0,0.0,0.0,0.0,0.0,0.0,0.0,0.0,0.0,0.0,0.0,0.0,0.0,0.0,0.0,0.0,0.0,0.0,0.0,0.0,0.0,0.0,0.0,0.0,0.0,0.0,0.0,0.0,0.0,0.0,0.0,0.0,0.0,0.0,0.0,0.0,0.0,0.0,0.0,0.0,0.0,0.0,0.0,0.0,0.0,0.0,0.0,0.0,0.0,0.0,0.0,0.0,0.0,0.0,0.0,0.0,0.0,0.0,0.0,0.0,0.0,0.0,0.0,1.5238,1.5169,1.5176,0.0,1.5258,0.0,0.0,0.0,0.0,0.0,0.0,0.0,0.0,0.0,0.0,0.0,0.0,0.0,0.0,0.0,0.0,0.0,0.0,0.0,0.0,0.0,0.0,0.0,0.0,0.0,0.0,0.0,0.0,0.0,0.0,0.0,0.0,0.0,0.0,0.0,0.0,0.0,0.0,0.0,0.0,0.0,0.0,0.0,0.0,0.0,0.0,0.0,0.0,0.0,0.0,0.0,0.0,0.0,0.0,0.0,0.0,0.0,0.0,0.0,0.0,0.0,0.0,0.0,0.0,0.0,0.0,0.0,0.0,0.0,0.0,0.0,0.0,0.0,0.0,0.0,0.0,0.0,0.0,0.0,0.0,0.0,0.0,0.0,0.0,0.0,0.0,0.0,0.0,0.0,0.0,0.0,0.0,0.0,0.0,0.0,0.0,0.0,0.0,0.0,0.0,0.0,0.0,0.0,0.0,0.0,0.0,0.0,0.0,0.0,0.0,1.5418,1.5402,1.5409,1.541,0.0,0.0,0.0,0.0,0.0,0.0,0.0,0.0,0.0,0.0,0.0,0.0,0.0,0.0,0.0,0.0,0.0,0.0,0.0,0.0,0.0,0.0,0.0,0.0,0.0,0.0,0.0,0.0,0.0,0.0,0.0,0.0,0.0,0.0,0.0,0.0,0.0,0.0,0.0,0.0,0.0,0.0,0.0,0.0,0.0,0.0,0.0,0.0,0.0,0.0,0.0,0.0,0.0,0.0,0.0,0.0,0.0,0.0,0.0,0.0,0.0,0.0,0.0,0.0,0.0,0.0,0.0,0.0,0.0,0.0,0.0,0.0,0.0,0.0,0.0,0.0,0.0,0.0,0.0,0.0,0.0,0.0,0.0,0.0,0.0,0.0,0.0,0.0,0.0,0.0,0.0,0.0,0.0,0.0,0.0,0.0,0.0,0.0,0.0,0.0,0.0,0.0,0.0,0.0,0.0,0.0,0.0,0.0,0.0,0.0,1.5418,1.5404,1.5408,1.5403,1.5418,1.5404,0.0,0.0,0.0,0.0,0.0,0.0,0.0,0.0,0.0,0.0,0.0,0.0,0.0,0.0,0.0,0.0,0.0,0.0,0.0,0.0,0.0,0.0,0.0,0.0,0.0,0.0,0.0,0.0,0.0,0.0,0.0,0.0,0.0,0.0,0.0,0.0,0.0,0.0,0.0,0.0,0.0,0.0,0.0,0.0,0.0,0.0,0.0,0.0,0.0,0.0,0.0,0.0,0.0,0.0,0.0,0.0,0.0,0.0,0.0,0.0,0.0,0.0,0.0,0.0,0.0,0.0,0.0,0.0,0.0,0.0,0.0,0.0,0.0,0.0,0.0,0.0,0.0,0.0,0.0,0.0,0.0,0.0,0.0,0.0,0.0,0.0,0.0,0.0,0.0,0.0,0.0,0.0,0.0,0.0,0.0,0.0,0.0,0.0,0.0,0.0,0.0,0.0,0.0,0.0,0.0,0.0,0.0,0.0,1.5414,1.5415,1.5408,1.5408,1.541,1.5407,0.0,0.0,0.0,0.0,0.0,0.0,0.0,0.0,0.0,0.0,0.0,0.0,0.0,0.0,0.0,0.0,0.0,0.0,0.0,0.0,0.0,0.0,0.0,0.0,0.0,0.0,0.0,0.0,0.0,0.0,0.0,0.0,0.0,0.0,0.0,0.0,0.0,0.0,0.0,0.0,0.0,0.0,0.0,0.0,0.0,0.0,0.0,0.0,0.0,0.0,0.0,0.0,0.0,0.0,0.0,0.0,0.0,0.0,0.0,0.0,0.0,0.0,0.0,0.0,0.0,0.0,0.0,0.0,0.0,0.0,0.0,0.0,0.0,0.0,0.0,0.0,0.0,0.0,0.0,0.0,0.0,0.0,0.0,0.0,0.0,0.0,0.0,0.0,0.0,0.0,0.0,0.0,0.0,0.0,0.0,0.0,0.0,0.0,0.0,0.0,0.0,0.0,0.0,0.0,0.0,0.0,0.0,0.0,0.0,1.5413,1.5406,1.541,1.5407,1.5409,1.5407,0.0,0.0,0.0,0.0,0.0,0.0,0.0,0.0,0.0,0.0,0.0,0.0,0.0,0.0,0.0,0.0,0.0,0.0,0.0,0.0,0.0,0.0,0.0,0.0,0.0,0.0,0.0,0.0,0.0,0.0,0.0,0.0,0.0,0.0,0.0,0.0,0.0,0.0,0.0,0.0,0.0,0.0,0.0,0.0,0.0,0.0,0.0,0.0,0.0,0.0,0.0,0.0,0.0,0.0,0.0,0.0,0.0,0.0,0.0,0.0,0.0,0.0,0.0,0.0,0.0,0.0,0.0,0.0,0.0,0.0,0.0,0.0,0.0,0.0,0.0,0.0,0.0,0.0,0.0,0.0,0.0,0.0,0.0,0.0,0.0,0.0,0.0,0.0,0.0,0.0,0.0,0.0,0.0,0.0,0.0,0.0,0.0,0.0,0.0,0.0,0.0,0.0,0.0,0.0,0.0,0.0,0.0,0.0,0.0,1.5404,0.0,1.541,1.5409,1.5413,1.5412,0.0,0.0,0.0,0.0,0.0,0.0,0.0,0.0,0.0,0.0,0.0,0.0,0.0,0.0,0.0,0.0,0.0,0.0,0.0,0.0,0.0,0.0,0.0,0.0,0.0,0.0,0.0,0.0,0.0,0.0,0.0,0.0,0.0,0.0,0.0,0.0,0.0,0.0,0.0,0.0,0.0,0.0,0.0,0.0,0.0,0.0,0.0,0.0,0.0,0.0,0.0,0.0,0.0,0.0,0.0,0.0,0.0,0.0,0.0,0.0,0.0,0.0,0.0,0.0,0.0,0.0,0.0,0.0,0.0,0.0,0.0,0.0,0.0,0.0,0.0,0.0,0.0,0.0,0.0,0.0,0.0,0.0,0.0,0.0,0.0,0.0,0.0,0.0,0.0,0.0,0.0,0.0,0.0,0.0,0.0,0.0,0.0,0.0,0.0,0.0,0.0,0.0,0.0,0.0,0.0,0.0,0.0,0.0,1.5404,1.5407,1.5407,1.5409,1.541,1.5404,1.5405,0.0,0.0,0.0,0.0,0.0,0.0,0.0,0.0,0.0,0.0,0.0,0.0,0.0,0.0,0.0,0.0,0.0,0.0,0.0,0.0,0.0,0.0,0.0,0.0,0.0,0.0,0.0,0.0,0.0,0.0,0.0,0.0,0.0,0.0,0.0,0.0,0.0,0.0,0.0,0.0,0.0,0.0,0.0,0.0,0.0,0.0,0.0,0.0,0.0,0.0,0.0,0.0,0.0,0.0,0.0,0.0,0.0,0.0,0.0,0.0,0.0,0.0,0.0,0.0,0.0,0.0,0.0,0.0,0.0,0.0,0.0,0.0,0.0,0.0,0.0,0.0,0.0,0.0,0.0,0.0,0.0,0.0,0.0,0.0,0.0,0.0,0.0,0.0,0.0,0.0,0.0,0.0,0.0,0.0,0.0,0.0,0.0,0.0,0.0,0.0,0.0,0.0,0.0,0.0,0.0,0.0,0.0,0.0,0.0,1.5415,1.5416,1.542,1.5408,1.5408,1.5416,0.0,0.0,0.0,0.0,0.0,0.0,0.0,0.0,0.0,0.0,0.0,0.0,0.0,0.0,0.0,0.0,0.0,0.0,0.0,0.0,0.0,0.0,0.0,0.0,0.0,0.0,0.0,0.0,0.0,0.0,0.0,0.0,0.0,0.0,0.0,0.0,0.0,0.0,0.0,0.0,0.0,0.0,0.0,0.0,0.0,0.0,0.0,0.0,0.0,0.0,0.0,0.0,0.0,0.0,0.0,0.0,0.0,0.0,0.0,0.0,0.0,0.0,0.0,0.0,0.0,0.0,0.0,0.0,0.0,0.0,0.0,0.0,0.0,0.0,0.0,0.0,0.0,0.0,0.0,0.0,0.0,0.0,0.0,0.0,0.0,0.0,0.0,0.0,0.0,0.0,0.0,0.0,0.0,0.0,0.0,0.0,0.0,0.0,0.0,0.0,0.0,0.0,0.0,0.0,0.0,0.0,0.0,0.0,0.0,1.542,1.542,1.5407,1.5415,1.5409,1.5408,1.54,0.0,0.0,0.0,0.0,0.0,0.0,0.0,0.0,0.0,0.0,0.0,0.0,0.0,0.0,0.0,0.0,0.0,0.0,0.0,0.0,0.0,0.0,0.0,0.0,0.0,0.0,0.0,0.0,0.0,0.0,0.0,0.0,0.0,0.0,0.0,0.0,0.0,0.0,0.0,0.0,0.0,0.0,0.0,0.0,0.0,0.0,0.0,0.0,0.0,0.0,0.0,0.0,0.0,0.0,0.0,0.0,0.0,0.0,0.0,0.0,0.0,0.0,0.0,0.0,0.0,0.0,0.0,0.0,0.0,0.0,0.0,0.0,0.0,0.0,0.0,0.0,0.0,0.0,0.0,0.0,0.0,0.0,0.0,0.0,0.0,0.0,0.0,0.0,0.0,0.0,0.0,0.0,0.0,0.0,0.0,0.0,0.0,0.0,0.0,0.0,0.0,0.0,0.0,0.0,0.0,0.0,0.0,0.0,1.5402,1.5399,1.5382,1.539,1.5394,1.5407,0.0,0.0,0.0,0.0,0.0,0.0,0.0,0.0,0.0,0.0,0.0,0.0,0.0,0.0,0.0,0.0,0.0,0.0,0.0,0.0,0.0,0.0,0.0,0.0,0.0,0.0,0.0,0.0,0.0,0.0,0.0,0.0,0.0,0.0,0.0,0.0,0.0,0.0,0.0,0.0,0.0,0.0,0.0,0.0,0.0,0.0,0.0,0.0,0.0,0.0,0.0,0.0,0.0,0.0,0.0,0.0,0.0,0.0,0.0,0.0,0.0,0.0,0.0,0.0,0.0,0.0,0.0,0.0,0.0,0.0,0.0,0.0,0.0,0.0,0.0,0.0,0.0,0.0,0.0,0.0,0.0,0.0,0.0,0.0,0.0,0.0,0.0,0.0,0.0,0.0,0.0,0.0,0.0,0.0,0.0,0.0,0.0,0.0,0.0,0.0,0.0,0.0,0.0,0.0,0.0,0.0,0.0,0.0,0.0,1.532,1.5311,1.5334,1.5326,1.5377,1.5416,0.0,0.0,0.0,0.0,0.0,0.0,0.0,0.0,0.0,0.0,0.0,0.0,0.0,0.0,0.0,0.0,0.0,0.0,0.0,0.0,0.0,0.0,0.0,0.0,0.0,0.0,0.0,0.0,0.0,0.0,0.0,0.0,0.0,0.0,0.0,0.0,0.0,0.0,0.0,0.0,0.0,0.0,0.0,0.0,0.0,0.0,0.0,0.0,0.0,0.0,0.0,0.0,0.0,0.0,0.0,0.0,0.0,0.0,0.0,0.0,0.0,0.0,0.0,0.0,0.0,0.0,0.0,0.0,0.0,0.0,0.0,0.0,0.0,0.0,0.0,0.0,0.0,0.0,0.0,0.0,0.0,0.0,0.0,0.0,0.0,0.0,0.0,0.0,0.0,0.0,0.0,0.0,0.0,0.0,0.0,0.0,0.0,0.0,0.0,0.0,0.0,0.0,0.0,0.0,0.0,0.0,0.0,0.0,1.5381,1.5295,1.5283,1.5298,1.5299,1.5342,1.539,0.0,0.0,0.0,0.0,0.0,0.0,0.0,0.0,0.0,0.0,0.0,0.0,0.0,0.0,0.0,0.0,0.0,0.0,0.0,0.0,0.0,0.0,0.0,0.0,0.0,0.0,0.0,0.0,0.0,0.0,0.0,0.0,0.0,0.0,0.0,0.0,0.0,0.0,0.0,0.0,0.0,0.0,0.0,0.0,0.0,0.0,0.0,0.0,0.0,0.0,0.0,0.0,0.0,0.0,0.0,0.0,0.0,0.0,0.0,0.0,0.0,0.0,0.0,0.0,0.0,0.0,0.0,0.0,0.0,0.0,0.0,0.0,0.0,0.0,0.0,0.0,0.0,0.0,0.0,0.0,0.0,0.0,0.0,0.0,0.0,0.0,0.0,0.0,0.0,0.0,0.0,0.0,0.0,0.0,0.0,0.0,0.0,0.0,0.0,0.0,0.0,0.0,0.0,0.0,0.0,0.0,0.0,0.0,1.5362,1.5295,1.5293,1.5294,1.5299,1.5291,1.5333,0.0,0.0,0.0,0.0,0.0,0.0,0.0,0.0,0.0,0.0,0.0,0.0,0.0,0.0,0.0,0.0,0.0,0.0,0.0,0.0,0.0,0.0,0.0,0.0,0.0,0.0,0.0,0.0,0.0,0.0,0.0,0.0,0.0,0.0,0.0,0.0,0.0,0.0,0.0,0.0,0.0,0.0,0.0,0.0,0.0,0.0,0.0,0.0,0.0,0.0,0.0,0.0,0.0,0.0,0.0,0.0,0.0,0.0,0.0,0.0,0.0,0.0,0.0,0.0,0.0,0.0,0.0,0.0,0.0,0.0,0.0,0.0,0.0,0.0,0.0,0.0,0.0,0.0,0.0,0.0,0.0,0.0,0.0,0.0,0.0,0.0,0.0,0.0,0.0,0.0,0.0,0.0,0.0,0.0,0.0,0.0,0.0,0.0,0.0,0.0,0.0,0.0,0.0,0.0,0.0,0.0,0.0,0.0,1.5326,1.5283,1.5299,1.5274,1.5226,1.5255,1.5338,0.0,0.0,0.0,0.0,0.0,0.0,0.0,0.0,0.0,0.0,0.0,0.0,0.0,0.0,0.0,0.0,0.0,0.0,0.0,0.0,0.0,0.0,0.0,0.0,0.0,0.0,0.0,0.0,0.0,0.0,0.0,0.0,0.0,0.0,0.0,0.0,0.0,0.0,0.0,0.0,0.0,0.0,0.0,0.0,0.0,0.0,0.0,0.0,0.2203,0.0,0.0,0.0,0.0,0.0,0.0,0.0,0.0,0.0,0.0,0.0,0.0,0.0,0.0,0.0,0.0,0.0,0.0,0.0,0.0,0.0,0.0,0.0,0.0,0.0,0.0,0.0,0.0,0.0,0.0,0.0,0.0,0.0,0.0,0.0,0.0,0.0,0.0,0.0,0.0,0.0,0.0,0.0,0.0,0.0,0.0,0.0,0.0,0.0,0.0,0.0,0.0,0.0,0.0,0.0,0.0,0.0,0.0,0.0,1.5299,1.5293,1.5289,1.5299,1.5246,1.4863,1.4721,0.0,0.0,0.0,0.0,0.0,0.0,0.0,0.0,0.0,0.0,0.0,0.0,0.0,0.0,0.0,0.0,0.0,0.0,0.0,0.0,0.0,0.0,0.0,0.0,0.0,0.0,0.0,0.0,0.0,0.0,0.0,0.0,0.0,0.0,0.0,0.0,0.0,0.0,0.0,0.0,0.0,0.0,0.0,0.0,0.0,0.0,0.0,0.0,0.0,0.0,0.0,0.0,0.0,0.0,0.0,0.0,0.0,0.0,0.0,0.0,0.0,0.0,0.0,0.0,0.0,0.0,0.0,0.0,0.0,0.0,0.0,0.0,0.0,0.0,0.0,0.0,0.0,0.0,0.0,0.0,0.0,0.0,0.0,0.0,0.0,0.0,0.0,0.0,0.0,0.0,0.0,0.0,0.0,0.0,0.0,0.0,0.0,0.0,0.0,0.0,0.0,0.0,0.0,0.0,0.0,0.0,0.0,1.5333,1.5295,1.5289,1.5289,1.5294,1.5289,1.448,1.4039,1.4037,0.0,0.0,0.0,0.0,0.0,0.0,0.0,0.0,0.0,0.0,0.0,0.0,0.0,0.0,0.0,0.0,0.0,0.0,0.0,0.0,0.0,0.0,0.0,0.0,0.0,0.0,0.0,0.0,0.0,0.0,0.0,0.0,0.0,0.0,0.0,0.0,0.0,0.0,0.8563,0.8284,0.0,0.0,0.0,0.0,0.0,0.0,0.0,0.0,-0.1089,0.0,0.0,0.0,0.0,0.0,0.0,0.0,0.0,0.0,0.0,0.0,0.0,0.0,0.0,0.0,0.0,0.0,0.0,0.0,0.0,0.0,0.0,0.0,0.0,0.0,0.0,0.0,0.0,0.0,0.0,0.0,0.0,0.0,0.0,0.0,0.0,0.0,0.0,0.0,0.0,0.0,0.0,0.0,0.0,0.0,0.0,0.0,0.0,0.0,0.0,0.0,0.0,0.0,0.0,0.0,0.0,1.5407,1.5329,1.5292,1.5289,1.5289,1.5293,1.5278,1.4508,1.3972,1.3766,0.0,0.0,0.0,0.0,0.0,0.0,0.0,0.0,0.0,0.0,0.0,0.0,0.0,0.0,0.0,0.0,0.0,0.0,0.0,0.0,0.0,0.0,0.0,0.0,0.0,0.0,0.0,0.0,0.0,0.0,0.0,0.0,0.0,0.0,0.0,0.0,0.0,0.0,0.0,0.8222,0.7962,0.0,0.0,0.0,0.0,0.0,0.0,0.0,0.0,-0.2937,0.0,0.0,0.0,0.0,0.0,0.0,0.0,0.0,0.0,0.0,0.0,0.0,0.0,0.0,0.0,0.0,0.0,0.0,0.0,0.0,0.0,0.0,0.0,0.0,0.0,0.0,0.0,0.0,0.0,0.0,0.0,0.0,0.0,0.0,0.0,0.0,0.0,0.0,0.0,0.0,0.0,0.0,0.0,0.0,0.0,0.0,0.0,0.0,0.0,0.0,0.0,0.0,0.0,0.0,0.0,1.5391,1.5342,1.5288,1.5293,1.5283,1.5315,1.533,1.4102,1.3503,0.0,0.0,0.0,0.0,0.0,0.0,0.0,0.0,0.0,0.0,0.0,0.0,0.0,0.0,0.0,0.0,0.0,0.0,0.0,0.0,0.0,0.0,0.0,0.0,0.0,0.0,0.0,0.0,0.0,0.0,0.0,0.0,0.0,0.0,0.0,0.0,0.0,0.0,0.0,0.0,0.8058,0.7971,0.7867,0.0,0.0,0.0,0.0,0.0,0.0,-0.2213,-0.4226,0.0,0.0,0.0,0.0,0.0,0.0,0.0,0.0,0.0,0.0,0.0,0.0,0.0,0.0,0.0,0.0,0.0,0.0,0.0,0.0,0.0,0.0,0.0,0.0,0.0,0.0,0.0,0.0,0.0,0.0,0.0,0.0,0.0,0.0,0.0,0.0,0.0,0.0,0.0,0.0,0.0,0.0,0.0,0.0,0.0,0.0,0.0,0.0,0.0,0.0,0.0,0.0,0.0,0.0,0.0,1.5403,1.5319,1.5288,1.5283,1.5291,1.5334,1.5378,1.3867,1.3204,0.0,0.0,0.0,0.0,0.0,0.0,0.0,0.0,0.0,0.0,0.0,0.0,0.0,0.0,0.0,0.0,0.0,0.0,0.0,0.0,0.0,0.0,0.0,0.0,0.0,0.0,0.0,0.0,0.0,0.0,0.0,0.0,0.0,0.0,0.0,0.0,0.0,0.0,0.0,0.0,0.0,0.8049,0.8138,0.7601,0.0,0.0,0.0,0.0,-0.0209,-0.2912,0.0,0.0,0.0,0.0,0.0,0.0,0.0,0.0,0.0,0.0,0.0,0.0,0.0,0.0,0.0,0.0,0.0,0.0,0.0,0.0,0.0,0.0,0.0,0.0,0.0,0.0,0.0,0.0,0.0,0.0,0.0,0.0,0.0,0.0,0.0,0.0,0.0,0.0,0.0,0.0,0.0,0.0,0.0,0.0,0.0,0.0,0.0,0.0,0.0,0.0,0.0,0.0,0.0,0.0,0.0,0.0,1.54,1.533,1.5288,1.5295,1.5292,1.531,1.5384,1.4445,1.3621,0.0,0.0,0.0,0.0,0.0,0.0,0.0,0.0,0.0,0.0,0.0,0.0,0.0,0.0,0.0,0.0,0.0,0.0,0.0,0.0,0.0,0.0,0.0,0.0,0.0,0.0,0.0,0.0,0.0,0.0,0.0,0.0,0.0,0.0,0.0,0.0,0.0,0.0,0.0,0.0,0.0,0.8316,0.7973,0.7766,0.7201,0.0,0.0,0.193,-0.0255,-0.2536,0.0,0.0,0.0,0.0,0.0,0.0,0.0,0.0,0.0,0.0,0.0,0.0,0.0,0.0,0.0,0.0,0.0,0.0,0.0,0.0,0.0,0.0,0.0,0.0,0.0,0.0,0.0,0.0,0.0,0.0,0.0,0.0,0.0,0.0,0.0,0.0,0.0,0.0,0.0,0.0,0.0,0.0,0.0,0.0,0.0,0.0,0.0,0.0,0.0,0.0,0.0,0.0,0.0,0.0,0.0,1.5412,1.5396,1.5334,1.5292,1.5288,1.5333,1.5368,1.5402,1.4539,1.4162,0.0,0.0,0.0,0.0,0.0,0.0,0.0,0.0,0.0,0.0,0.0,0.0,0.0,0.0,0.0,0.0,0.0,0.0,0.0,0.0,0.0,0.0,0.0,0.0,0.0,0.0,0.0,0.0,0.0,0.0,0.0,0.0,0.0,0.0,0.0,0.0,0.0,0.0,0.0,0.0,0.0,0.0,0.8555,0.807,0.0,0.0,0.0,0.1812,-0.0582,0.0,0.0,0.0,0.0,0.0,0.0,0.0,0.0,0.0,0.0,0.0,0.0,0.0,0.0,0.0,0.0,0.0,0.0,0.0,0.0,0.0,0.0,0.0,0.0,0.0,0.0,0.0,0.0,0.0,0.0,0.0,0.0,0.0,0.0,0.0,0.0,0.0,0.0,0.0,0.0,0.0,0.0,0.0,0.0,0.0,0.0,0.0,0.0,0.0,0.0,0.0,0.0,0.0,0.0,0.0,0.0,0.0,1.541,1.5532,1.5629,1.5621,1.5874,1.593,1.5728,1.5098,0.0,0.0,0.0,0.0,0.0,0.0,0.0,0.0,0.0,0.0,0.0,0.0,0.0,0.0,0.0,0.0,0.0,0.0,0.0,0.0,0.0,0.0,0.0,0.0,0.0,0.0,0.0,0.9591,0.0,0.0,0.0,0.0,0.0,0.0,0.0,0.0,0.0,0.0,0.0,0.0,0.0,0.0,0.8757,0.8778,0.8155,0.7303,0.0,0.0,0.1545,-0.0877,-0.2958,-0.469,0.0,0.0,0.0,0.0,0.0,0.0,0.0,0.0,0.0,0.0,0.0,0.0,0.0,0.0,0.0,0.0,0.0,0.0,0.0,0.0,0.0,0.0,0.0,0.0,0.0,0.0,0.0,0.0,0.0,0.0,0.0,0.0,0.0,0.0,0.0,0.0,0.0,0.0,0.0,0.0,0.0,0.0,0.0,0.0,0.0,0.0,0.0,0.0,0.0,0.0,0.0,0.0,0.0,0.0,0.0,1.5446,1.6118,1.6491,1.6538,1.7326,1.7379,1.6639,1.6555,1.5682,0.0,0.0,0.0,0.0,0.0,0.0,0.0,0.0,0.0,0.0,0.0,0.0,0.0,0.0,0.0,0.0,0.0,0.0,0.0,0.0,0.0,0.0,0.0,0.0,0.0,0.0,0.0,0.0,0.0,0.0,0.0,0.0,0.0,0.0,0.0,0.0,0.0,0.0,0.0,0.0,0.0,0.8718,0.8218,0.7823,0.7319,0.0,0.0,0.1037,-0.1073,-0.2974,-0.4561,-0.5641,0.0,0.0,0.0,0.0,0.0,0.0,0.0,0.0,0.0,0.0,0.0,0.0,0.0,0.0,0.0,0.0,0.0,0.0,0.0,0.0,0.0,0.0,0.0,0.0,0.0,0.0,0.0,0.0,0.0,0.0,0.0,0.0,0.0,0.0,0.0,0.0,0.0,0.0,0.0,0.0,0.0,0.0,0.0,0.0,0.0,0.0,0.0,0.0,0.0,0.0,0.0,0.0,0.0,1.5412,1.5416,1.6191,1.6596,1.6639,1.7504,1.7557,1.6715,1.6691,1.576,0.0,0.0,0.0,0.0,0.0,0.0,0.0,0.0,0.0,0.0,0.0,0.0,0.0,0.0,0.0,0.0,0.0,0.0,0.0,0.0,0.0,0.0,0.0,0.0,0.0,0.0,0.0,0.0,0.7632,0.7247,0.6886,0.0,0.0,0.0,0.0,0.0,0.0,0.0,0.0,0.0,0.0,0.857,0.7982,0.7177,0.0,0.0,0.2456,0.0196,-0.177,-0.3252,-0.4471,-0.5188,-0.5321,0.0,0.0,0.0,0.0,0.0,0.0,0.0,0.0,0.0,0.0,0.0,0.0,0.0,0.0,0.0,0.0,0.0,0.0,0.0,0.0,0.0,0.0,0.0,0.0,0.0,0.0,0.0,0.0,0.0,0.0,0.0,0.0,0.0,0.0,0.0,0.0,0.0,0.0,0.0,0.0,0.0,0.0,0.0,0.0,0.0,0.0,0.0,0.0,0.0,0.0,0.0,0.0,1.541,1.5424,1.6451,1.6992,1.6995,1.8134,1.8225,1.7146,1.7083,1.5955,0.0,0.0,0.0,0.0,0.0,0.0,0.0,0.0,0.0,0.0,0.0,0.0,0.0,0.0,0.0,0.0,0.0,0.0,0.0,0.0,0.0,0.0,0.0,0.0,0.0,0.0,0.0,0.0,0.7508,0.719,0.6901,0.0,0.0,0.0,0.0,0.0,0.0,0.0,0.0,0.0,0.0,0.8056,0.7386,0.6503,0.5199,0.323,0.1319,-0.0639,-0.2609,-0.3606,-0.4301,-0.4672,0.0,0.0,0.0,0.0,0.0,0.0,0.0,0.0,0.0,0.0,0.0,0.0,0.0,0.0,0.0,0.0,0.0,0.0,0.0,0.0,0.0,0.0,0.0,0.0,0.0,0.0,0.0,0.0,0.0,0.0,1.5353,0.0,0.0,0.0,0.0,0.0,0.0,0.0,0.0,0.0,0.0,0.0,0.0,0.0,0.0,0.0,0.0,0.0,0.0,0.0,0.0,0.0,0.0,1.542,1.5421,1.7027,1.7867,1.7919,1.9562,1.9614,1.8012,1.7961,1.6384,1.3047,0.0,0.0,0.0,0.0,0.0,0.0,0.0,0.0,0.0,0.0,0.0,0.0,0.0,0.0,0.0,0.0,0.0,0.0,0.0,0.0,0.0,0.0,0.0,0.0,0.0,0.0,0.8733,0.7684,0.7137,0.0,0.0,0.0,0.0,0.0,0.0,0.0,0.0,0.0,0.0,0.7704,0.7102,0.6241,0.5866,0.4762,0.2469,0.0517,-0.143,-0.3499,-0.3906,-0.4025,0.0,0.0,0.0,0.0,0.0,0.0,0.0,0.0,0.0,0.0,0.0,0.0,0.0,0.0,0.0,0.0,0.0,0.0,0.0,0.0,0.0,0.0,0.0,0.0,0.0,0.0,0.0,1.5335,1.5321,0.0,0.0,0.0,0.0,0.0,0.0,0.0,0.0,0.0,0.0,0.0,1.5097,1.5112,0.0,0.0,0.0,0.0,0.0,0.0,0.0,0.0,0.0,0.0,0.0,0.0,1.5671,1.6227,1.7319,1.8174,1.8763,1.9909,1.969,1.8052,1.8001,1.6404,1.3008,0.0,0.0,0.0,0.0,0.0,0.0,0.0,0.0,0.0,0.0,0.0,0.0,0.0,0.0,0.0,0.0,0.0,0.0,0.0,0.0,0.0,0.0,0.0,0.0,0.0,0.9463,0.0,0.0,0.0,0.0,0.0,0.0,0.0,0.0,0.0,0.0,0.0,0.6898,0.7203,0.6755,0.6044,0.5035,0.4091,0.2877,0.0,0.0,0.0,0.0,0.0,0.0,0.0,0.0,0.0,0.0,0.0,0.0,0.0,0.0,-0.3837,-0.435,-0.4983,-0.5571,-0.6163,0.0,0.0,0.0,0.0,0.0,0.0,0.0,0.0,0.0,0.0,0.0,0.0,0.0,0.0,0.0,0.0,1.5795,0.0,0.0,0.0,0.0,0.0,0.0,0.0,0.0,1.5127,1.5099,1.5105,1.5112,1.5106,0.0,1.5178,1.5237,0.0,0.0,0.0,0.0,0.0,0.0,0.0,0.0,1.5809,1.6603,1.7458,1.8317,1.9193,2.0055,1.9707,1.8046,1.7123,1.5449,1.2987,1.1522,1.0602,0.0,0.0,0.0,0.0,0.0,0.0,0.0,0.0,0.0,0.0,0.0,0.0,0.0,0.0,0.0,0.0,0.0,0.0,0.0,0.0,0.0,0.0,0.0,0.9143,0.0,0.0,0.0,0.0,0.0,0.0,0.0,0.0,0.0,0.6825,0.6604,0.6429,0.6455,0.5843,0.5001,0.3913,0.0,0.0,0.0,0.0,0.0,0.0,0.0,-0.2371,-0.1958,-0.1343,-0.0732,-0.0304,-0.061,-0.1191,-0.197,0.0,0.0,-0.4318,-0.5002,-0.5681,-0.6392,-0.7277,-0.8235,-0.914,-1.0353,-1.149,0.0,0.0,0.0,0.0,0.0,0.0,0.0,0.0,1.627,1.6639,0.0,1.6619,0.0,0.0,0.0,0.0,0.0,1.5146,0.0,0.0,1.5099,1.5112,1.5119,1.5106,1.5113,1.5101,1.5178,1.5195,1.519,1.5269,0.0,0.0,0.0,0.0,0.0,0.0,1.5838,1.6697,1.7553,1.8368,1.923,2.006,1.9695,1.8016,1.5503,1.3769,1.2924,1.2047,1.1188,1.034,1.0317,0.0,0.0,0.0,0.0,0.0,0.0,0.0,0.0,0.0,0.0,0.0,0.0,0.0,0.0,0.0,0.0,0.0,0.0,0.0,0.0,0.8395,0.0,0.0,0.0,0.0,0.0,0.0,0.0,0.0,0.0,0.0,0.6895,0.6325,0.5858,0.5765,0.0,0.0,0.0,0.0,0.078,-0.0508,-0.1634,-0.2445,-0.2775,-0.2221,-0.1517,-0.0937,0.0,0.0,0.0772,0.0252,-0.0521,-0.1514,-0.246,-0.3377,-0.4435,-0.5247,-0.6057,-0.6871,-0.7903,-0.8966,-0.986,-1.0965,-1.2027,1.5841,0.0,0.0,0.0,0.0,1.6123,1.6513,1.7097,1.7354,1.7431,1.7381,1.7388,0.0,0.0,0.0,0.0,0.0,0.0,1.5106,1.5099,1.5106,1.5106,1.5113,1.5114,1.5127,1.5159,1.5204,1.5195,1.5204,1.5226,1.5265,1.5334,0.0,0.0,0.0,0.0,1.6943,1.8304,1.8628,1.9181,2.0036,2.0355,1.9698,1.8016,1.5469,1.3728,1.2924,1.2065,1.1205,1.0343,1.0322,0.0,0.0,0.0,0.0,0.0,0.0,0.0,0.0,0.0,0.0,0.0,0.0,0.0,0.0,0.0,0.0,0.0,0.0,0.0,0.8277,0.8203,0.833,0.0,0.0,0.0,0.0,0.0,0.0,0.0,0.0,0.0,0.6811,0.6251,0.5671,0.0,0.0,0.3275,0.2094,0.1082,0.0123,-0.0739,-0.1281,0.0,0.0,-0.0862,-0.0186,0.0419,0.1062,0.1531,0.1703,0.0713,-0.0686,-0.236,-0.3096,-0.3845,-0.5169,-0.5627,-0.6185,-0.7224,-0.8266,-0.929,-1.0301,-1.1606,-1.2914,1.6922,1.5894,1.6007,1.6387,1.69,1.6991,1.7292,1.778,1.8127,1.8255,1.8215,1.8194,1.8156,1.8117,1.7687,0.0,0.0,0.0,1.604,1.6036,1.6093,1.6115,1.6129,1.6118,1.5984,1.5702,1.5722,1.5541,1.5193,1.5546,1.5722,1.5758,0.0,0.0,1.6555,1.6905,1.7896,1.949,1.958,1.9993,2.0836,1.9958,1.8985,1.8004,1.58,1.4214,1.3408,1.257,1.1712,1.085,1.0499,1.028,0.0,0.0,0.0,0.0,0.0,0.0,0.0,0.0,0.0,0.0,0.0,0.8988,0.0,0.0,0.0,0.0,0.7023,0.6942,0.7685,0.7533,0.0,0.0,0.0,0.0,0.0,0.0,0.0,0.7773,0.7069,0.6496,0.631,0.5566,0.491,0.4553,0.3755,0.2743,0.148,0.0,-0.0215,-0.0905,-0.0983,-0.078,-0.0321,0.0236,0.0877,0.1637,0.1926,0.2013,0.186,0.0743,-0.081,-0.2424,-0.3558,-0.4556,-0.5928,-0.666,-0.7318,-0.818,-0.9111,-1.0122,-1.1222,-1.2564,-1.3826,1.808,1.7621,1.7738,1.7797,1.7799,1.785,1.7902,1.7972,1.8756,1.91,1.9089,1.9038,1.8941,1.8821,1.7927,0.0,1.748,1.7434,1.7406,1.7499,1.7568,1.7643,1.7704,1.7682,1.7311,1.6599,1.6606,1.6195,1.5484,1.6208,1.6599,1.6618,1.6739,1.6794,1.6844,1.7611,1.8821,2.0481,2.0499,2.088,2.1539,1.9195,1.794,1.7986,1.6308,1.4975,1.4124,1.3387,1.2589,1.1727,1.087,1.0398,1.0385,0.0,0.0,0.0,0.0,0.0,0.0,0.0,0.0,0.0,0.0,0.0,0.0,0.0,0.0,0.0,0.6293,0.0,0.6824,0.666,0.0,0.0,0.0,0.7842,0.8128,0.776,0.7405,0.7237,0.0,0.0,0.5499,0.4509,0.3863,0.381,0.3236,0.2352,0.1068,0.0402,-0.0269,-0.0949,-0.0652,-0.0095,0.0574,0.1133,0.1735,0.254,0.2511,0.2049,0.1491,0.0334,-0.1002,-0.2652,-0.3984,-0.5425,-0.673,-0.8081,-0.92,-0.9585,-1.0375,-1.129,-1.2445,-1.3637,-1.4732,1.9275,1.9284,2.0012,1.9659,1.8616,1.8689,1.9088,1.9696,1.9888,1.9969,1.9909,1.9849,1.9734,1.9522,1.8629,1.8241,1.8204,1.7658,1.7435,1.7519,1.7568,1.7635,1.7704,1.7701,1.758,1.7426,1.7407,1.7318,1.7119,1.7318,1.7426,1.7483,1.8701,1.935,1.9398,1.9603,2.0539,2.2186,2.2211,2.2033,2.1623,1.9204,1.7933,1.7983,1.6308,1.4996,1.4144,1.3908,1.3419,1.2541,1.1723,1.1269,1.1213,1.0562,0.0,0.0,0.0,0.0,0.0,0.0,0.0,0.0,0.0,0.8214,0.8093,0.0,0.628,0.0,0.6045,0.6204,0.6778,0.7249,0.0,0.0,0.7796,0.7495,0.699,0.6654,0.6409,0.6331,0.5669,0.5024,0.4702,0.4176,0.3591,0.2994,0.2551,0.1901,0.0894,0.0314,-0.0091,-0.0331,-0.0239,0.0288,0.1192,0.2048,0.2599,0.2857,0.232,0.1608,0.0726,-0.0558,-0.2221,-0.4354,-0.5408,-0.6445,-0.7941,-0.9245,-1.0468,-1.1522,-1.2033,-1.2473,-1.3538,-1.4687,-1.5816,2.0728,2.0916,2.1505,2.1287,2.0573,2.0664,2.0957,2.1408,2.1408,2.1364,2.1291,2.1194,2.0831,2.0289,1.9769,1.9338,1.9027,1.8629,1.8518,1.8611,1.8677,1.8756,1.8797,1.8835,1.8657,1.828,1.828,1.8087,1.7734,1.81,1.8451,1.8832,2.0103,2.1138,2.1866,2.1549,2.2018,2.3304,2.2975,2.2605,2.2171,1.9396,1.7939,1.7963,1.6308,1.5172,1.469,1.4295,1.3882,1.3393,1.259,1.2113,1.2073,1.1586,1.1273,0.0,0.0,0.0,0.0,0.0,0.0,0.0,0.0,0.0,0.0,0.0,0.5893,0.5957,0.6019,0.6413,0.7247,0.7524,0.7637,0.7619,0.7185,0.6648,0.5982,0.5513,0.5225,0.5301,0.4793,0.4209,0.3574,0.3074,0.2508,0.174,0.1523,0.1292,0.0805,0.0426,0.0144,-0.0,0.0201,0.0812,0.1789,0.2473,0.2791,0.2504,0.1733,0.0838,-0.0223,-0.167,-0.3424,-0.5395,-0.6605,-0.7712,-0.9231,-1.0562,-1.1818,-1.2984,-1.3835,-1.4334,-1.4812,-1.578,-1.6892,2.2006,2.2215,2.2457,2.2661,2.2861,2.3036,2.2977,2.2793,2.2793,2.2757,2.2671,2.2474,2.1921,2.1129,2.1007,2.0597,2.0017,2.0088,2.0188,2.0334,2.0383,2.0403,2.0361,2.0422,2.0004,1.9184,1.9165,1.878,1.8061,1.8797,1.9588,2.0359,2.1178,2.2342,2.3812,2.3301,2.3379,2.4119,2.3265,2.2821,2.285,1.9643,1.7943,1.7943,1.6309,1.5406,1.5391,1.4664,1.4268,1.4219,1.343,1.2926,1.294,1.2788,1.2631,0.0,1.1718,0.0,0.0,0.0,0.0,0.0,0.0,0.0,0.0,0.6398,0.5997,0.6116,0.6306,0.6899,0.8003,0.7825,0.7584,0.7449,0.6568,0.5758,0.5131,0.4301,0.3832,0.4049,0.3785,0.3166,0.2133,0.1628,0.1073,0.0499,0.0412,0.0522,0.0616,0.0559,0.0408,0.021,0.0692,0.1348,0.2156,0.2514,0.2348,0.179,0.0837,-0.0279,-0.1454,-0.3053,-0.4664,-0.624,-0.7768,-0.9217,-1.0612,-1.1917,-1.3148,-1.4275,-1.5428,-1.617,-1.6213,-1.6959,-1.7956,2.1993,2.22,2.3013,2.3461,2.3652,2.443,2.4005,2.2793,2.2794,2.269,2.254,2.2395,2.2168,2.189,2.1801,2.1742,2.1648,2.1718,2.1832,2.1947,2.2076,2.1788,2.1187,2.1242,2.0845,2.0081,2.0042,1.9965,1.9812,1.9958,2.0461,2.1262,2.2067,2.2925,2.3885,0.0,0.0,0.0,2.3533,2.2817,2.2792,1.9634,1.793,1.7964,1.6328,0.0,1.5391,1.5243,1.5112,1.5054,1.4254,0.0,0.0,0.0,0.0,0.0,0.0,0.0,0.0,0.0,0.0,0.0,0.9039,0.8218,0.7337,0.6588,0.6194,0.6283,0.7395,0.8291,0.8698,0.8757,0.8333,0.7317,0.6861,0.6039,0.4489,0.2904,0.1868,0.175,0.1388,0.0983,0.0496,0.0102,-0.0154,-0.0254,-0.0479,-0.0275,0.033,0.0585,0.0794,0.0768,0.1215,0.1721,0.2069,0.2015,0.1566,0.067,-0.039,-0.1671,-0.3249,-0.4816,-0.6367,-0.7813,-0.9256,-1.0663,-1.1966,-1.309,-1.4171,-1.5363,-1.6583,-1.7397,-1.7397,-1.8177,-1.9134,2.3115,0.0,2.3885,2.4247,0.0,2.4977,2.4739,2.3966,2.3966,2.3861,2.3689,2.3535,2.318,2.2651,2.2606,2.2383,2.2073,2.2129,2.2229,2.2337,2.245,2.2334,2.1998,2.2068,2.1903,2.1526,2.1111,2.1119,2.1485,2.1111,2.1528,2.2729,2.308,2.3656,2.4479,2.4905,2.5125,2.5209,2.3592,2.2837,2.2772,1.9623,1.7926,1.7943,0.0,0.0,0.0,0.0,0.0,0.0,0.0,0.0,0.0,0.0,0.0,1.3629,1.3163,1.272,1.2319,1.1887,1.1307,1.0527,0.9444,0.8429,0.7521,0.7104,0.7073,0.7519,0.8518,0.9268,0.9555,0.9331,0.8548,0.7087,0.5853,0.4514,0.2915,0.1386,0.043,0.0097,-0.0298,-0.0707,-0.1237,-0.1468,-0.1435,-0.1224,-0.1095,-0.0841,-0.0336,0.0165,0.0548,0.0838,0.1345,0.1569,0.1456,0.1006,0.0391,-0.0668,-0.194,-0.3387,-0.4934,-0.6465,-0.8001,-0.9392,-1.0755,-1.2064,-1.328,-1.4367,-1.5452,-1.6553,-1.7678,-1.8622,-1.909,-1.9642,-2.0239,2.4284,2.4425,2.461,2.4794,2.4974,2.5125,2.5172,2.5164,0.0,0.0,0.0,2.4738,2.4204,2.344,2.3409,2.3056,2.2442,2.2502,2.2589,2.2708,2.2784,2.281,2.278,2.2868,2.2844,2.2748,2.2064,2.2081,2.2735,2.2064,2.2498,2.3879,2.3881,2.4262,2.5032,2.5089,2.5056,2.49,2.3544,2.2771,2.2598,1.9701,1.8082,1.8003,1.6444,1.563,1.5635,1.5621,1.5647,1.5728,1.5506,1.5376,1.5284,1.5158,1.5046,1.4954,1.4379,1.3902,1.3691,1.3074,1.235,1.1516,1.0281,0.9073,0.7937,0.7969,0.8381,0.9153,0.9819,1.0267,1.0447,0.9692,0.8478,0.676,0.4651,0.2781,0.1191,0.005,-0.0813,-0.1273,-0.1638,-0.2073,-0.2673,-0.2739,-0.2655,-0.2166,-0.1676,-0.1178,-0.0841,-0.028,0.0223,0.0672,0.0953,0.101,0.0616,-0.0112,-0.1003,-0.2107,-0.3589,-0.5148,-0.6628,-0.8137,-0.9598,-1.0936,-1.2234,-1.3439,-1.4619,-1.5628,-1.6718,-1.7759,-1.8763,-1.9743,-2.0686,-2.1084,-2.1376,2.4338,2.4407,2.461,2.4779,2.4915,2.5057,2.5082,2.5019,2.4949,2.4893,2.4787,2.4594,2.4439,2.4314,2.4209,2.4136,2.4078,2.4145,2.4209,0.0,2.4411,2.4133,2.3556,2.3629,2.3307,2.2748,2.2632,2.2679,2.2774,2.2677,2.3093,2.3898,2.3922,2.4269,2.4961,2.5076,2.4777,2.4091,2.3236,2.2497,2.1855,2.0002,1.8679,1.8003,1.7047,1.6518,1.6517,1.6454,1.6719,1.731,1.6631,1.6177,1.6052,1.5846,1.5732,1.5699,1.6116,1.5815,1.4467,1.434,1.3799,1.2554,1.2194,1.113,0.8974,0.9405,1.0098,1.0728,1.1526,1.1811,1.1128,0.9909,0.833,0.6312,0.4146,0.2013,0.005,-0.1033,-0.1852,-0.2538,-0.2711,-0.2859,-0.3207,-0.3327,-0.3161,-0.279,-0.2183,-0.1568,-0.084,-0.028,0.0056,0.028,0.0112,-0.0168,-0.0559,-0.1336,-0.255,-0.3819,-0.5387,-0.6934,-0.8429,-0.9947,-1.1335,-1.2496,-1.3697,-1.479,-1.5852,-1.6722,-1.7841,-1.8898,-1.9909,-2.0797,-2.1603,-2.2198,-2.2643,2.4321,2.4478,2.4626,2.4779,2.4915,2.5032,2.5032,2.4942,2.4832,2.4753,2.4679,2.4566,2.4428,2.4339,2.4303,2.4284,2.4284,2.4375,2.4428,2.4498,2.4613,2.4482,2.4266,2.4378,2.4293,2.399,2.3611,2.3707,2.4082,2.3725,2.389,2.4607,2.4576,2.4714,2.5025,2.5089,2.4491,2.328,2.2957,2.2446,2.1698,2.007,1.9038,1.871,1.786,1.7379,1.7352,1.7299,1.7374,1.7644,1.7225,1.6911,1.6739,1.6555,1.6398,1.63,1.6561,1.6465,1.5796,1.5529,1.5123,1.4482,1.3933,1.3258,1.2285,1.1973,1.1944,1.2263,1.2551,1.2186,1.1029,0.9454,0.7919,0.6592,0.3827,0.1285,-0.0467,-0.1607,-0.2462,-0.3175,-0.3429,-0.3577,-0.3802,-0.3802,-0.3635,-0.3188,-0.2408,-0.1513,-0.0897,-0.101,-0.1009,-0.0561,-0.0784,-0.1341,-0.1895,-0.355,-0.4867,-0.5833,-0.7206,-0.8705,-1.0136,-1.1521,-1.2831,-1.4176,-1.536,-1.6581,-1.7835,-1.899,-1.9997,-2.0871,-2.1829,-2.2683,-2.3321,-2.3824,-2.3891,2.4356,2.4528,2.4657,2.4808,2.4942,2.5082,2.5038,2.4921,2.4764,2.466,2.4582,2.4481,2.4375,2.421,2.4247,2.4266,2.4192,2.4229,2.4303,2.4358,2.4462,2.458,2.4673,2.4884,2.5032,2.5027,2.453,2.4639,2.5168,2.4659,2.4649,2.5143,2.5137,2.5114,2.5082,2.5114,2.4324,2.2804,2.2782,2.2364,2.1399,2.0126,1.9424,1.9238,1.8629,1.8231,1.8157,1.8116,1.8088,1.8125,1.7898,1.766,1.7447,1.7254,1.7077,1.695,1.7055,1.7113,1.7087,1.6581,1.6322,1.6434,1.5603,1.5207,1.5396,1.4359,1.3535,1.3379,1.3037,1.218,1.0498,0.8788,0.7238,0.6021,0.311,0.0588,-0.0968,-0.2093,-0.2965,-0.363,-0.3965,-0.419,-0.4304,-0.4304,-0.3965,-0.3244,-0.2352,-0.1626,-0.1346,-0.1908,-0.213,-0.1899,-0.2066,-0.2676,-0.3445,-0.5311,-0.6891,-0.7647,-0.9047,-1.0387,-1.1676,-1.2949,-1.4316,-1.5822,-1.7135,-1.8455,-1.9879,-2.1013,-2.1941,-2.269,-2.3539,-2.4407,-2.4968,-2.526,-2.5048,2.4464,2.4615,2.4719,2.4893,2.5069,2.5156,2.5101,2.498,2.4846,2.4676,2.453,2.4375,2.4284,2.4192,2.4209,2.4209,2.4209,2.421,2.421,2.4247,2.4411,2.4551,2.4687,2.485,2.4966,2.5113,2.5053,2.5109,2.5284,2.5187,2.5177,2.5198,2.5203,2.5144,2.5114,2.5163,2.4361,2.2757,2.2808,2.2133,2.0633,2.0425,1.9993,1.9219,1.9144,1.9059,1.8982,1.8918,1.9177,1.965,1.8941,1.8399,1.8196,1.7972,1.7775,1.7736,1.8318,1.8506,1.8103,1.7466,1.7384,1.771,1.7188,1.6831,1.7037,1.5756,1.45,1.363,1.3131,1.1792,0.9609,0.7905,0.6019,0.3811,0.1721,-0.0111,-0.161,-0.2681,-0.3524,-0.4079,-0.447,-0.4632,-0.4632,-0.4522,-0.4073,-0.3186,-0.2687,-0.2242,-0.2077,-0.2631,-0.334,-0.3539,-0.4045,-0.4611,-0.5194,-0.6421,-0.8088,-0.932,-1.0747,-1.2113,-1.3392,-1.4864,-1.6358,-1.7517,-1.8865,-2.026,-2.1346,-2.2282,-2.3157,-2.405,-2.4764,-2.5337,-2.5979,-2.633,-2.5915,2.4498,2.466,2.4813,2.498,2.5141,2.5191,2.5125,2.4987,2.4861,2.4695,2.4513,2.4338,2.4266,2.419,2.4209,2.419,2.419,2.4209,2.4209,2.4265,2.4801,2.5152,2.5257,2.5468,2.5627,2.5742,2.5405,2.5243,2.5274,2.5293,2.5292,2.5261,2.5217,2.5184,2.5164,2.5184,2.4635,2.3554,2.3102,2.2327,2.1273,2.072,2.0332,2.0025,1.9936,1.9862,1.9754,1.9692,1.9707,1.9842,1.948,1.9145,1.8957,1.8733,1.861,1.8618,1.9406,1.9874,1.9809,1.9956,2.0034,1.987,1.8806,1.7764,1.6592,1.4873,1.3061,1.1348,1.1079,1.0201,0.7895,0.6005,0.4175,0.2318,0.0496,-0.1337,-0.3183,-0.3741,-0.4242,-0.4736,-0.4963,-0.5081,-0.4963,-0.4629,-0.4125,-0.3461,-0.3079,-0.2869,-0.2977,-0.3463,-0.4146,-0.5039,-0.6168,-0.6882,-0.7052,-0.8115,-0.971,-1.1353,-1.2748,-1.4035,-1.5404,-1.6704,-1.8177,-1.9385,-2.0798,-2.2163,-2.342,-2.4317,-2.5144,-2.5768,-2.651,-2.7171,-2.7205,-2.7337,-2.68,2.4513,2.4723,2.4898,2.5057,2.5214,2.5214,2.5137,2.4987,2.4861,2.4676,2.4495,2.4357,2.4247,2.4171,2.419,2.43,2.4502,2.452,2.4668,2.4926,2.5557,2.5912,2.6097,2.6298,2.6351,2.6224,2.5826,2.5463,2.5341,2.5312,2.5292,2.5282,2.525,2.522,2.5212,2.5201,2.483,2.4128,2.3528,2.2874,2.2114,2.148,2.097,2.0542,2.0632,2.055,2.0216,2.0527,2.0402,1.9813,1.9886,1.9783,1.9398,1.9429,1.9601,1.9923,2.0609,2.1166,2.1318,2.1838,2.1863,2.1148,1.9713,1.7815,1.5725,1.3888,1.1406,0.8373,0.7889,0.7002,0.5925,0.4056,0.2424,0.0887,-0.0778,-0.2506,-0.4187,-0.4629,-0.4901,-0.5336,-0.5403,-0.5348,-0.5195,-0.4786,-0.4323,-0.4141,-0.3903,-0.3846,-0.4286,-0.4784,-0.5561,-0.6773,-0.8392,-0.9112,-0.8938,-1.0151,-1.18,-1.3338,-1.4775,-1.6026,-1.7464,-1.8643,-1.9894,-2.1151,-2.2561,-2.3787,-2.4883,-2.5962,-2.6751,-2.7412,-2.804,-2.8464,-2.8276,-2.8378,-2.7979,2.451,2.4734,2.4994,2.5122,2.521,2.5195,2.5118,2.498,2.4846,2.4695,2.4495,2.4357,2.4228,2.4168,2.4244,2.4612,2.5256,2.5328,2.5754,2.6403,2.665,2.6841,2.7045,2.7229,2.7001,2.6549,2.6381,2.5981,2.5341,2.5303,2.5293,2.5311,2.5282,2.5252,2.5222,2.5262,2.4899,2.4268,2.4089,2.3743,2.3029,2.2868,2.2018,2.0749,2.1095,2.1078,2.0497,2.15,2.1441,1.9811,2.0352,2.0277,1.954,2.0063,2.0839,2.1663,2.2066,2.2289,2.2388,2.236,2.2006,2.1185,1.928,1.6981,1.4334,1.2759,1.0,0.5606,0.3666,0.288,0.3059,0.2025,0.0716,-0.0832,-0.2114,-0.3335,-0.4446,-0.5113,-0.5386,-0.5723,-0.5745,-0.5554,-0.5211,-0.5037,-0.4984,-0.5013,-0.5093,-0.5347,-0.5889,-0.6623,-0.765,-0.8934,-1.0257,-1.1194,-1.107,-1.214,-1.3831,-1.5324,-1.6622,-1.7927,-1.9074,-2.0329,-2.1609,-2.2858,-2.422,-2.5353,-2.6286,-2.7043,-2.7637,-2.8166,-2.8547,-2.8823,-2.8894,-2.9324,-2.8968,2.4623,2.4912,2.5082,2.5191,2.521,2.5149,2.505,2.4915,2.4731,2.4575,2.4425,2.4302,2.4504,2.4922,2.4961,2.5107,2.5381,2.5915,2.636,2.6753,2.7354,2.7734,2.7885,2.8079,2.8104,2.7812,2.6955,2.6096,2.538,2.5313,2.5303,2.5293,2.5293,2.5293,2.5264,2.5332,2.5206,2.491,2.4536,2.4112,2.3814,2.3296,2.2613,2.1991,2.2117,2.1873,2.1186,2.1775,2.1924,2.1562,2.143,2.1215,2.0988,2.1332,2.1758,2.2198,2.2821,2.3276,2.3411,2.3467,2.2772,2.107,1.8455,1.5158,1.1724,0.8817,0.5618,0.2226,-0.0173,-0.1335,-0.1955,-0.1579,-0.1549,-0.2879,-0.3877,-0.4772,-0.5538,-0.6041,-0.6263,-0.6455,-0.6327,-0.6119,-0.5983,-0.5931,-0.5902,-0.596,-0.6216,-0.6623,-0.7285,-0.8128,-0.9305,-1.0659,-1.2254,-1.3617,-1.4443,-1.4582,-1.5483,-1.6993,-1.8387,-1.9753,-2.1,-2.2248,-2.3538,-2.4415,-2.5735,-2.6471,-2.7217,-2.7694,-2.8334,-2.859,-2.9003,-2.9228,-2.9433,-2.9626,-2.9441,2.4749,2.4993,2.5113,2.5168,2.5156,2.5069,2.4961,2.4818,2.4654,2.4493,2.4393,2.4524,2.4908,2.5438,2.5933,2.6133,2.613,2.672,2.7169,2.7509,2.8186,2.8532,2.8708,2.889,2.8903,2.856,2.7242,2.6096,2.5389,2.5293,2.5293,2.5303,2.5313,2.5313,2.5313,2.5361,2.5425,2.531,2.493,2.4739,2.464,2.4128,2.3723,2.3565,2.3367,2.2824,2.1961,2.2386,2.2733,2.283,2.2356,2.2116,2.23,2.2462,2.2604,2.2728,2.2995,2.3368,2.3477,2.2865,2.1442,1.9461,1.6,1.2145,0.7801,0.4155,0.0977,-0.1831,-0.4486,-0.6248,-0.642,-0.5709,-0.5143,-0.545,-0.5918,-0.649,-0.7067,-0.7255,-0.7266,-0.7186,-0.7063,-0.6915,-0.674,-0.6813,-0.6976,-0.7048,-0.7476,-0.8051,-0.8766,-0.984,-1.1113,-1.2495,-1.4176,-1.5632,-1.6696,-1.7249,-1.7591,-1.8945,-2.0059,-2.1443,-2.2731,-2.4035,-2.5121,-2.6027,-2.6768,-2.74,-2.7946,-2.843,-2.8725,-2.8957,-2.9203,-2.9433,-2.9608,-2.9822,-2.968,2.4941,2.5088,2.5095,2.5145,2.5089,2.4966,2.4837,2.4689,2.4561,2.4446,2.4543,2.5095,2.5403,2.5745,2.694,2.7636,2.7655,2.7769,2.8198,2.885,2.9089,2.9256,2.94,2.9568,2.9266,2.8641,2.7268,2.6124,2.5349,2.5292,2.5302,2.5303,2.5313,2.5313,2.5313,2.537,2.5443,2.5476,2.5447,2.5511,2.5586,2.5353,2.5169,2.5014,2.4708,2.3848,2.2428,2.3327,2.3727,2.3578,2.3044,2.2937,2.3252,2.3178,2.3203,2.2734,2.2333,2.2175,2.1866,1.9218,1.6674,1.4567,1.1446,0.6823,0.266,-0.0395,-0.3217,-0.6069,-0.8795,-1.0667,-1.0065,-1.0016,-0.9405,-0.8172,-0.8172,-0.8479,-0.8591,-0.858,-0.8422,-0.8111,-0.7957,-0.7785,-0.7615,-0.7812,-0.8051,-0.8291,-0.8868,-0.9686,-1.0525,-1.1646,-1.3177,-1.4529,-1.5859,-1.7224,-1.8589,-1.9826,-2.0278,-2.0903,-2.1865,-2.2995,-2.4091,-2.5287,-2.6115,-2.7009,-2.7613,-2.8192,-2.8428,-2.8845,-2.8984,-2.9203,-2.9412,-2.9608,-2.977,-2.9937,-3.009,2.6279,2.5904,2.5861,2.5506,2.4996,2.4875,2.4723,2.4545,2.4481,2.4672,2.5056,2.5331,2.5988,2.6878,2.7581,2.8099,2.8553,2.8608,2.8796,2.9081,2.9215,2.9368,2.9492,2.9645,2.9101,2.8103,2.7561,2.66,2.5512,2.5292,2.5302,2.5303,2.5313,2.5313,2.5293,2.5369,2.5418,2.5505,2.5571,2.5612,2.5604,2.5488,2.5335,2.5105,2.4823,2.4213,2.3474,2.3644,2.3702,2.3581,2.3521,2.3591,2.3628,2.2862,2.1404,1.944,1.7016,1.4177,1.1599,0.9556,0.7205,0.4611,0.1954,-0.0696,-0.3593,-0.6041,-0.8184,-1.0155,-1.1996,-1.2898,-1.3139,-1.329,-1.2373,-1.0272,-1.0065,-1.0172,-1.0214,-0.9969,-0.9636,-0.9323,-0.918,-0.9077,-0.8974,-0.9115,-0.9298,-0.9436,-1.0066,-1.0835,-1.1779,-1.2967,-1.4328,-1.5668,-1.7136,-1.859,-1.9851,-2.1117,-2.2059,-2.2598,-2.3486,-2.4302,-2.5368,-2.6319,-2.7151,-2.7791,-2.8402,-2.8779,-2.8984,-2.916,-2.9267,-2.9412,-2.9551,-2.9735,-2.9924,-3.0064,-3.0207,2.7062,2.6698,2.6304,2.583,2.5231,2.4876,2.458,2.4465,2.4672,2.5001,2.5379,2.5981,2.675,2.7643,2.8054,2.8498,2.8957,2.8975,2.9035,2.9095,2.9193,2.9326,2.9377,2.9288,2.8674,2.7652,2.7287,2.6522,2.5327,2.5252,2.5273,2.5312,2.5303,2.5313,2.5332,2.5367,2.5434,2.5499,2.5574,2.5598,2.5572,2.5438,2.5244,2.5022,2.4689,2.4318,2.3941,2.3777,2.3667,2.3623,2.375,2.3596,2.281,2.0652,1.7874,1.4217,1.0675,0.7111,0.387,0.1372,-0.1216,-0.3597,-0.5839,-0.8026,-1.0018,-1.1868,-1.3182,-1.4213,-1.4925,-1.5481,-1.5666,-1.5621,-1.4783,-1.3361,-1.248,-1.2068,-1.1911,-1.1569,-1.1182,-1.0877,-1.0622,-1.0361,-1.016,-1.0218,-1.0408,-1.0541,-1.1143,-1.1909,-1.2887,-1.4049,-1.538,-1.6781,-1.8324,-1.9711,-2.1089,-2.2359,-2.366,-2.4356,-2.5012,-2.5707,-2.6509,-2.7317,-2.8103,-2.8499,-2.9034,-2.9123,-2.933,-2.9373,-2.9474,-2.9608,-2.9717,-2.9888,-3.0045,-3.0166,-3.0273,2.745,2.7365,2.6601,2.6167,2.5864,2.5107,2.4762,2.4635,2.5184,2.5507,2.5847,2.6863,2.7593,2.7931,2.8503,2.8879,2.8994,2.8975,2.8975,2.904,2.9152,2.924,2.9293,2.8858,2.819,2.7399,2.6688,2.5965,2.5229,2.5198,2.5241,2.5311,2.5293,2.5322,2.5379,2.5404,2.5441,2.5505,2.5567,2.5605,2.5593,2.5376,2.5164,2.4898,2.4601,2.4265,2.4001,2.3784,2.3669,2.3707,2.3539,2.2341,2.0134,1.6975,1.2576,0.7656,0.328,-0.0123,-0.2415,-0.6378,-0.8947,-1.0228,-1.2711,-1.4594,-1.6146,-1.6889,-1.7454,-1.7839,-1.7954,-1.7955,-1.7852,-1.7445,-1.6987,-1.6736,-1.5187,-1.4168,-1.3666,-1.3304,-1.2907,-1.2411,-1.2089,-1.167,-1.1163,-1.1233,-1.1303,-1.149,-1.1988,-1.2834,-1.3948,-1.509,-1.649,-1.7966,-1.9403,-2.0946,-2.2359,-2.3728,-2.4986,-2.5847,-2.6471,-2.7055,-2.7546,-2.8219,-2.8759,-2.9153,-2.9414,-2.9512,-2.9589,-2.9626,-2.9681,-2.9787,-2.9921,-3.006,-3.0147,-3.0247,-3.0323,2.8739,2.8192,2.7845,2.7306,2.6656,2.6284,2.6095,2.6029,2.6153,2.6487,2.6964,2.7364,2.7971,2.8523,2.8753,2.8929,2.8975,2.8975,2.8975,2.9017,2.9085,2.9222,2.9202,2.8708,2.7992,2.721,2.6435,2.5791,2.5182,2.5172,2.5228,2.5311,2.5292,2.5332,2.5397,2.5453,2.5518,2.5576,2.5593,2.5577,2.5503,2.5286,2.5069,2.4896,2.4588,2.4335,2.4153,2.3771,2.3551,2.3397,2.1757,1.9383,1.588,1.0904,0.5424,-0.0169,-0.5063,-0.9925,-1.4035,-1.666,-1.8849,-2.091,-2.0935,-2.1871,-2.1535,-2.1398,-2.1213,-2.0853,-2.0312,-1.99,-1.9748,-1.912,-1.868,-1.8243,-1.6927,-1.5829,-1.5419,-1.4985,-1.4477,-1.3675,-1.3155,-1.2621,-1.2174,-1.1988,-1.205,-1.2228,-1.2765,-1.3545,-1.4709,-1.6012,-1.7355,-1.897,-2.0522,-2.2152,-2.3682,-2.5049,-2.6266,-2.721,-2.7861,-2.8378,-2.8687,-2.8983,-2.936,-2.9661,-2.9717,-2.9808,-2.9823,-2.9855,-2.9921,-2.9969,-3.006,-3.0166,-3.0221,-3.0305,-3.0367,2.9326,2.8839,2.8409,2.7864,2.7301,2.6888,2.6638,2.6625,2.6849,2.7128,2.7507,2.787,2.8282,2.8785,2.8834,2.8905,2.8975,2.8975,2.8975,2.9017,2.9067,2.8975,2.8697,2.809,2.7344,2.6589,2.5894,2.539,2.5082,2.5088,2.5141,2.5239,2.529,2.5332,2.5387,2.548,2.5529,2.5584,2.5605,2.5554,2.5447,2.5197,2.5027,2.4869,2.4629,2.4366,2.3741,2.2166,2.1346,2.0947,1.8764,1.5018,0.9903,0.4002,-0.1994,-0.7799,-1.2711,-1.7456,-2.1236,-2.3726,-2.5457,-2.6689,-2.6889,-2.6358,-2.5358,-2.4648,-2.3915,-2.3216,-2.2292,-2.173,-2.1273,-2.0459,-1.9773,-1.9434,-1.8549,-1.7624,-1.6992,-1.6412,-1.5727,-1.4906,-1.4171,-1.3542,-1.2821,-1.2674,-1.2674,-1.2911,-1.3433,-1.4382,-1.5535,-1.6862,-1.8386,-2.0096,-2.1766,-2.3436,-2.4936,-2.6294,-2.7419,-2.8379,-2.9385,-2.9857,-2.9774,-2.9887,-2.9933,-3.0102,-3.0079,-3.006,-3.0129,-3.0141,-3.0075,-3.0118,-3.0207,-3.0247,-3.0286,-3.033,-3.039,2.9453,2.9357,2.8552,2.8133,2.7932,2.7203,2.6955,2.6885,2.7326,2.7586,2.7743,2.8254,2.8547,2.8767,2.8785,2.8876,2.8975,2.8975,2.8975,2.8998,2.8989,2.8762,2.807,2.7395,2.673,2.6021,2.5201,2.4896,2.4903,2.4961,2.505,2.5184,2.525,2.5332,2.5412,2.548,2.5546,2.559,2.5582,2.5526,2.539,2.5143,2.4993,2.4873,2.4326,2.3332,2.166,1.9277,1.7064,1.6851,1.4101,0.8993,0.2767,-0.3532,-0.9142,-1.4128,-1.8772,-2.2521,-2.4931,-2.7044,-2.8538,-2.8844,-2.9106,-2.8933,-2.7625,-2.6536,-2.5607,-2.486,-2.3873,-2.2834,-2.2174,-2.1198,-2.057,-2.0205,-1.9816,-1.9046,-1.8249,-1.7595,-1.6842,-1.5761,-1.5005,-1.4268,-1.3638,-1.3241,-1.3111,-1.3398,-1.4034,-1.5061,-1.6388,-1.7928,-1.9598,-2.1458,-2.3113,-2.4804,-2.6179,-2.7539,-2.8526,-2.9513,-3.0708,-3.1255,-3.0887,-3.0839,-3.0696,-3.0685,-3.0849,-3.0753,-3.059,-3.0508,-3.033,-3.0247,-3.0299,-3.0292,-3.0316,-3.0355,-3.0402,2.9453,2.9454,2.9103,2.8941,2.8879,2.8539,2.831,2.8173,2.8257,2.8211,2.825,2.8412,2.8569,2.8718,2.8785,2.8858,2.897,2.8994,2.8975,2.8998,2.8998,2.8562,2.7834,2.7089,2.6727,2.6228,2.5164,2.4698,2.4802,2.4884,2.4987,2.5122,2.5201,2.5322,2.5464,2.5537,2.559,2.5605,2.5556,2.5465,2.5329,2.513,2.4915,2.4673,2.3435,2.1234,1.827,1.4601,0.9919,0.5752,0.3728,0.0732,-0.4705,-1.0578,-1.5634,-1.945,-2.2954,-2.5807,-2.7536,-2.857,-2.9476,-3.0013,-2.9815,-2.9459,-2.8562,-2.7338,-2.6383,-2.551,-2.4192,-2.2967,-2.2078,-2.1656,-2.0993,-2.043,-1.976,-1.9002,-1.8289,-1.7885,-1.7086,-1.6071,-1.525,-1.4568,-1.3964,-1.3549,-1.3587,-1.3916,-1.4765,-1.5698,-1.728,-1.9089,-2.1145,-2.3231,-2.5002,-2.672,-2.7951,-2.9152,-2.9963,-3.0776,-3.1862,-3.2551,-3.2186,-3.2179,-3.2167,-3.1949,-3.1712,-3.1514,-3.1181,-3.0744,-3.0544,-3.0479,-3.039,-3.0467,-3.0506,-3.0487,-3.0598,2.9392,2.939,2.9283,2.9134,2.9044,2.8905,2.8718,2.8594,2.844,2.838,2.838,2.8406,2.8492,2.8662,2.8737,2.881,2.8834,2.8858,2.8881,2.8905,2.891,2.8512,2.7765,2.7022,2.6552,2.6133,2.5041,2.4586,2.4645,2.4768,2.4898,2.5043,2.5141,2.5264,2.5453,2.5547,2.559,2.558,2.5503,2.5398,2.5255,2.5113,2.4212,2.2957,2.0848,1.7766,1.3499,0.7348,0.147,-0.3756,-0.7051,-0.9084,-1.189,-1.6697,-2.0861,-2.3552,-2.5792,-2.7437,-2.8612,-2.9486,-3.0091,-3.0489,-3.0195,-2.9448,-2.8562,-2.7434,-2.6551,-2.566,-2.44,-2.3051,-2.1842,-2.1148,-2.0696,-1.9944,-1.9166,-1.8365,-1.7707,-1.7475,-1.7064,-1.6056,-1.5352,-1.4889,-1.4358,-1.4093,-1.4506,-1.4978,-1.6447,-1.753,-1.9364,-2.125,-2.3371,-2.5399,-2.7114,-2.8673,-2.9835,-3.0801,-3.1552,-3.2247,-3.2956,-3.3431,-3.3419,-3.3585,-3.3828,-3.3292,-3.2608,-3.2085,-3.1722,-3.1262,-3.0799,-3.0565,-3.0516,-3.0659,-3.0772,-3.0806,-3.0987,2.8998,2.8934,2.887,2.8699,2.8539,2.8324,2.8207,2.8198,2.8067,2.804,2.8228,2.8273,2.8406,2.8536,2.8612,2.8644,2.8669,2.8651,2.8658,2.8452,2.8529,2.8077,2.7387,2.6664,2.6066,2.5425,2.4709,2.4447,2.4528,2.4626,2.4823,2.5,2.5152,2.5302,2.5418,2.5539,2.5586,2.5534,2.5453,2.5332,2.5178,2.4957,2.3595,2.0154,1.6426,1.1918,0.6384,-0.0141,-0.6694,-1.2092,-1.7654,-1.939,-1.9974,-2.1712,-2.4639,-2.6069,-2.7555,-2.8567,-2.9206,-2.995,-3.0474,-3.0448,-2.9998,-2.9209,-2.8164,-2.6991,-2.6073,-2.5253,-2.4134,-2.2711,-2.1524,-2.0475,-1.9629,-1.8793,-1.8075,-1.7276,-1.6664,-1.6594,-1.6171,-1.5839,-1.5314,-1.4898,-1.4884,-1.4824,-1.545,-1.6291,-1.7871,-1.9493,-2.1382,-2.3343,-2.5435,-2.7197,-2.8853,-3.0179,-3.1321,-3.2244,-3.3005,-3.3391,-3.4031,-3.4294,-3.4515,-3.468,-3.4661,-3.4036,-3.3396,-3.2907,-3.2338,-3.1835,-3.1352,-3.0849,-3.0858,-3.1204,-3.1248,-3.1164,-3.151,2.7382,2.7363,2.7185,2.7022,2.6893,2.6649,2.6849,2.7217,2.7184,2.7477,2.7982,2.8182,2.8291,2.8424,2.8432,2.844,2.8376,2.8258,2.8037,2.7713,2.7724,2.7392,2.6673,2.6096,2.555,2.5257,2.4671,2.4357,2.4478,2.4591,2.479,2.505,2.5214,2.5335,2.5459,2.5556,2.5535,2.5454,2.5376,2.5274,2.5127,2.3874,2.1032,1.6182,1.1044,0.502,-0.1532,-0.7502,-1.32,-1.8521,-2.2606,-2.4462,-2.4873,-2.5817,-2.6687,-2.7504,-2.8595,-2.9434,-2.9862,-3.0217,-3.0404,-3.0151,-2.9582,-2.8556,-2.7317,-2.6034,-2.508,-2.4182,-2.3144,-2.1777,-2.0478,-1.9381,-1.8439,-1.7512,-1.6697,-1.5956,-1.5401,-1.5251,-1.5384,-1.5382,-1.5179,-1.5155,-1.544,-1.5924,-1.6747,-1.7925,-1.9539,-2.1391,-2.3339,-2.5299,-2.7328,-2.8945,-3.0467,-3.1618,-3.2733,-3.3573,-3.43,-3.4406,-3.4841,-3.5177,-3.5366,-3.556,-3.5339,-3.4758,-3.4294,-3.3858,-3.3244,-3.2582,-3.2119,-3.1764,-3.1797,-3.1864,-3.213,-3.2347,-3.2455,2.6935,2.6821,2.6661,2.6472,2.6277,2.6087,2.6065,2.626,2.6587,2.6939,2.7356,2.7812,2.8126,2.8209,2.8219,2.8022,2.7594,2.7155,2.69,2.6657,2.6752,2.6504,2.5899,2.5452,2.5127,2.4817,2.4413,2.4321,2.4464,2.461,2.4799,2.5043,2.5243,2.5418,2.5522,2.5547,2.5492,2.5415,2.5324,2.5078,2.4258,2.1786,1.6263,1.0146,0.3837,-0.2583,-0.8579,-1.452,-1.9024,-2.2735,-2.5661,-2.7112,-2.7763,-2.8069,-2.8278,-2.8651,-2.927,-2.9836,-3.0125,-3.0314,-3.0213,-2.9732,-2.8979,-2.7713,-2.6316,-2.5022,-2.3789,-2.2605,-2.164,-2.04,-1.9073,-1.8098,-1.7207,-1.6386,-1.5664,-1.5054,-1.4776,-1.4641,-1.4919,-1.533,-1.5477,-1.5705,-1.6187,-1.6891,-1.7941,-1.9449,-2.1259,-2.3276,-2.5322,-2.7383,-2.9438,-3.1052,-3.2449,-3.3256,-3.4068,-3.4545,-3.51,-3.5264,-3.5398,-3.5729,-3.5859,-3.5852,-3.5846,-3.5554,-3.5132,-3.4683,-3.4256,-3.3654,-3.3179,-3.2722,-3.2701,-3.2793,-3.3235,-3.355,-3.3569,2.6358,2.6165,2.6002,2.5827,2.5577,2.5403,2.525,2.5314,2.5788,2.6111,2.6409,2.7025,2.7346,2.7427,2.7338,2.7073,2.6427,2.5862,2.5727,2.5678,2.5822,2.5578,2.5145,2.4992,2.4816,2.445,2.4376,2.4375,2.4497,2.4639,2.4831,2.5099,2.5313,2.5467,2.557,2.5556,2.5482,2.5398,2.5217,2.472,2.1461,1.5916,0.9186,0.263,-0.4069,-0.9879,-1.5214,-1.9619,-2.3088,-2.5535,-2.7323,-2.8496,-2.8773,-2.9089,-2.9243,-2.9312,-2.9551,-2.9863,-3.0095,-3.0144,-2.9873,-2.9162,-2.8056,-2.6615,-2.497,-2.3495,-2.2127,-2.057,-1.9703,-1.8806,-1.7642,-1.672,-1.5991,-1.5392,-1.4848,-1.4497,-1.4569,-1.4705,-1.533,-1.5675,-1.5886,-1.6651,-1.7446,-1.8507,-1.9715,-2.1658,-2.3456,-2.5644,-2.7702,-2.9666,-3.1625,-3.3248,-3.448,-3.5069,-3.5463,-3.5408,-3.5689,-3.5686,-3.5731,-3.5888,-3.5929,-3.5938,-3.5909,-3.588,-3.5792,-3.5373,-3.5022,-3.4622,-3.4041,-3.3647,-3.3529,-3.3738,-3.4274,-3.4433,-3.4414,2.458,2.4392,2.421,2.3999,2.3825,2.3642,2.3727,2.4101,2.4336,2.4701,2.531,2.5544,2.575,2.575,2.5568,2.5408,2.5296,2.5197,2.4954,2.4757,2.4913,2.4755,2.4247,2.4262,2.4469,2.4339,2.4479,2.4564,2.4639,2.4771,2.4962,2.5216,2.5406,2.5535,2.5602,2.5568,2.554,2.5402,2.4822,2.1414,1.51,0.8066,0.1199,-0.5088,-1.0716,-1.5735,-2.022,-2.3525,-2.5681,-2.7245,-2.8147,-2.8669,-2.8881,-2.904,-2.9246,-2.947,-2.9719,-2.9973,-3.0098,-2.9921,-2.9273,-2.8221,-2.6854,-2.5234,-2.3334,-2.1404,-1.979,-1.8386,-1.7826,-1.7205,-1.6165,-1.5496,-1.4848,-1.4624,-1.4328,-1.4353,-1.4489,-1.5455,-1.6009,-1.726,-1.7852,-1.8502,-1.924,-2.0415,-2.1655,-2.3695,-2.575,-2.7894,-2.988,-3.1724,-3.3099,-3.4542,-3.5195,-3.5739,-3.5938,-3.5991,-3.6016,-3.6016,-3.6007,-3.5979,-3.5974,-3.5968,-3.5994,-3.5977,-3.5952,-3.5789,-3.5275,-3.4897,-3.4651,-3.455,-3.4432,-3.4808,-3.5369,-3.5358,-3.5134,2.3939,2.386,2.3707,2.3463,2.3199,2.3003,2.2998,2.3229,2.3677,2.405,2.4441,2.493,2.5097,2.493,2.4557,2.4287,2.4257,2.4074,2.3928,2.3932,2.4073,2.4118,2.4107,2.4191,2.4303,2.4479,2.4626,2.4785,2.4869,2.4987,2.5141,2.5331,2.5492,2.5593,2.5598,2.5579,2.523,2.3753,2.0472,1.4588,0.742,0.0439,-0.6071,-1.1955,-1.6822,-2.07,-2.3522,-2.5661,-2.6951,-2.8037,-2.85,-2.8834,-2.9044,-2.9265,-2.9512,-2.9708,-2.9857,-2.9988,-2.9952,-2.9488,-2.8464,-2.7061,-2.5414,-2.3478,-2.1194,-1.9186,-1.7725,-1.6689,-1.6189,-1.553,-1.4833,-1.4451,-1.4322,-1.416,-1.4289,-1.4944,-1.5338,-1.6201,-1.7142,-1.8512,-1.9943,-2.1049,-2.1982,-2.3056,-2.4235,-2.5702,-2.7637,-2.9621,-3.1542,-3.3292,-3.4455,-3.5385,-3.5724,-3.5923,-3.5971,-3.6016,-3.6016,-3.6016,-3.6013,-3.601,-3.6012,-3.6012,-3.6011,-3.6011,-3.5989,-3.5751,-3.5415,-3.5374,-3.5327,-3.5326,-3.5354,-3.5548,-3.5732,-3.5678,-3.5532,2.3495,2.3495,2.3417,2.3206,2.2944,2.279,2.2676,2.2654,2.3151,2.3408,2.3573,2.3996,2.4253,2.4144,2.3591,2.3335,2.3367,2.2953,2.3005,2.3247,2.3553,2.3831,2.4057,2.4266,2.4462,2.4645,2.4804,2.4962,2.5115,2.5224,2.5303,2.5416,2.554,2.5586,2.5489,2.4924,2.3971,2.0289,1.3983,0.7052,-0.0142,-0.6649,-1.2449,-1.7484,-2.1593,-2.4474,-2.5792,-2.6896,-2.7862,-2.8246,-2.8644,-2.8952,-2.916,-2.9416,-2.9668,-2.9787,-2.9823,-2.945,-2.9049,-2.836,-2.7299,-2.5479,-2.3077,-2.0444,-1.8323,-1.6713,-1.5777,-1.4977,-1.468,-1.414,-1.3708,-1.373,-1.4042,-1.4346,-1.4625,-1.5497,-1.6517,-1.7793,-1.9385,-2.1201,-2.2835,-2.4522,-2.541,-2.6175,-2.7078,-2.8015,-2.9606,-3.1474,-3.3072,-3.4706,-3.5295,-3.5987,-3.6027,-3.6094,-3.6074,-3.6074,-3.6055,-3.6074,-3.6094,-3.6016,-3.6016,-3.6016,-3.6014,-3.6014,-3.6016,-3.5917,-3.57,-3.5875,-3.5989,-3.5821,-3.5697,-3.5763,-3.5853,-3.5826,-3.5833,2.3052,2.2952,2.3003,2.2952,2.279,2.2596,2.2487,2.2422,2.2434,2.2474,2.2525,2.2558,2.2705,2.2575,2.27,2.2609,2.2661,2.2676,2.2944,2.3271,2.3535,2.3837,2.4135,2.441,2.461,2.4727,2.4936,2.5126,2.5244,2.5274,2.5371,2.5486,2.5389,2.5413,2.4532,2.3084,1.9077,1.4156,0.6928,-0.004,-0.6679,-1.2762,-1.8172,-2.2146,-2.4663,-2.623,-2.7508,-2.7936,-2.8219,-2.8492,-2.8821,-2.9107,-2.9341,-2.9576,-2.98,-2.971,-2.9277,-2.8536,-2.7452,-2.6738,-2.5512,-2.2975,-1.9952,-1.7063,-1.5486,-1.4657,-1.3871,-1.3346,-1.3222,-1.323,-1.3157,-1.3455,-1.4106,-1.4966,-1.578,-1.7237,-1.8507,-2.0076,-2.1724,-2.385,-2.5615,-2.7207,-2.8793,-2.9512,-2.9562,-3.0363,-3.1305,-3.3093,-3.4236,-3.5593,-3.5885,-3.6254,-3.6239,-3.625,-3.6211,-3.6309,-3.6641,-3.6523,-3.6406,-3.6191,-3.6016,-3.6016,-3.6016,-3.6016,-3.6016,-3.6016,-3.6015,-3.6015,-3.6012,-3.6009,-3.5996,-3.5951,-3.5924,-3.5897,-3.5914,2.279,2.2712,2.2659,2.2605,2.2542,2.2432,2.2338,2.2254,2.2106,2.2044,2.2061,2.2089,2.2192,2.2265,2.2366,2.2477,2.2649,2.2816,2.3095,2.3412,2.3728,2.4018,2.4303,2.4528,2.4746,2.4883,2.5061,2.5192,2.5284,2.5129,2.4851,2.482,2.4629,2.4388,2.3195,1.899,1.3138,0.683,0.0121,-0.6445,-1.2546,-1.7562,-2.1965,-2.4762,-2.6498,-2.7349,-2.8047,-2.8344,-2.8533,-2.8742,-2.903,-2.9289,-2.9497,-2.9721,-2.9603,-2.9199,-2.8457,-2.6801,-2.5075,-2.4394,-2.2966,-1.9061,-1.6157,-1.4214,-1.3256,-1.2818,-1.2391,-1.2057,-1.2218,-1.2512,-1.2813,-1.3673,-1.4744,-1.5816,-1.7232,-1.8879,-2.0653,-2.2409,-2.4343,-2.6538,-2.8199,-2.9732,-3.1347,-3.2823,-3.2718,-3.2732,-3.3645,-3.4611,-3.5689,-3.6479,-3.6778,-3.7053,-3.7106,-3.7226,-3.7226,-3.7305,-3.7363,-3.709,-3.6797,-3.666,-3.6504,-3.6016,-3.6016,-3.6016,-3.6035,-3.6016,-3.6016,-3.6016,-3.6015,-3.6012,-3.6007,-3.5977,-3.5962,-3.5958,-3.5974,2.2579,2.2525,2.2377,2.2366,2.2366,2.2248,2.218,2.2065,2.1886,2.1811,2.1811,2.1928,2.2118,2.2293,2.2432,2.2596,2.2799,2.301,2.3301,2.3602,2.3919,2.421,2.4461,2.4654,2.4828,2.4987,2.5053,2.5152,2.4989,2.4645,2.388,2.3196,2.2557,2.1639,1.9702,1.3454,0.6343,-0.0084,-0.6103,-1.1603,-1.7451,-2.1185,-2.4149,-2.6151,-2.7487,-2.8182,-2.8529,-2.8795,-2.8993,-2.9153,-2.9339,-2.9522,-2.9612,-2.9511,-2.9099,-2.8105,-2.6619,-2.4583,-2.2477,-2.0574,-1.8875,-1.5144,-1.3252,-1.202,-1.1537,-1.1298,-1.1093,-1.1254,-1.17,-1.2365,-1.3025,-1.4434,-1.6193,-1.7508,-1.9318,-2.1051,-2.3369,-2.5351,-2.727,-2.9237,-3.0904,-3.2644,-3.4015,-3.5443,-3.5423,-3.5287,-3.5685,-3.6358,-3.6927,-3.755,-3.7756,-3.8021,-3.8202,-3.8359,-3.8516,-3.8281,-3.8047,-3.791,-3.7656,-3.748,-3.7226,-3.6699,-3.6387,-3.6523,-3.6465,-3.6133,-3.6035,-3.6055,-3.6035,-3.6015,-3.5992,-3.5986,-3.6001,-3.5991,-3.5996,2.2422,2.2377,2.2254,2.2225,2.2237,2.2089,2.1928,2.1797,2.1664,2.1603,2.168,2.1811,2.2073,2.2315,2.2552,2.2799,2.3042,2.3248,2.3482,2.384,2.4136,2.4372,2.4572,2.4775,2.4869,2.4962,2.4886,2.4693,2.4388,2.3399,2.241,1.9999,1.7957,1.6222,1.6528,0.7769,0.0044,-0.5771,-1.1504,-1.6275,-2.0171,-2.3251,-2.5295,-2.6956,-2.8022,-2.8634,-2.8993,-2.9214,-2.9349,-2.9407,-2.9313,-2.926,-2.9023,-2.8372,-2.7475,-2.6103,-2.3735,-2.1081,-1.8219,-1.5659,-1.3382,-1.1795,-1.0436,-0.9845,-0.9771,-0.9906,-1.0432,-1.0956,-1.1842,-1.3004,-1.4283,-1.5922,-1.7802,-1.9751,-2.1594,-2.3804,-2.6142,-2.831,-3.0183,-3.1808,-3.3815,-3.5752,-3.6931,-3.7888,-3.7965,-3.7982,-3.8017,-3.8191,-3.8376,-3.8567,-3.8744,-3.9138,-3.9375,-3.9375,-3.9394,-3.9004,-3.875,-3.8613,-3.8476,-3.8301,-3.8027,-3.7598,-3.7363,-3.7246,-3.707,-3.6914,-3.6504,-3.6133,-3.6484,-3.6797,-3.6151,-3.601,-3.6009,-3.6007,-3.6009,2.231,2.2254,2.2135,2.2003,2.1919,2.1827,2.1691,2.154,2.1402,2.1435,2.165,2.184,2.2198,2.2535,2.285,2.3109,2.3387,2.3592,2.3844,2.408,2.4372,2.4561,2.4719,2.4808,2.4842,2.4724,2.4524,2.3854,2.3194,2.1867,1.9979,1.7493,1.2074,0.8276,0.5946,0.0138,-0.585,-1.083,-1.541,-1.9305,-2.2203,-2.3996,-2.563,-2.7282,-2.8118,-2.8732,-2.9097,-2.9254,-2.9184,-2.886,-2.8553,-2.7906,-2.7122,-2.6208,-2.4524,-2.2521,-1.9907,-1.6257,-1.2577,-0.966,-0.881,-0.8423,-0.8512,-0.829,-0.8571,-0.9306,-1.0132,-1.1316,-1.2725,-1.4083,-1.5581,-1.8076,-2.0191,-2.2389,-2.4474,-2.6927,-2.93,-3.1159,-3.2996,-3.4359,-3.6142,-3.752,-3.8809,-3.922,-3.9379,-3.9277,-3.913,-3.9115,-3.9253,-3.9461,-3.9666,-4.0253,-4.0566,-4.0469,-4.0293,-3.9922,-3.9629,-3.9492,-3.9316,-3.9101,-3.8789,-3.8496,-3.8281,-3.8144,-3.7949,-3.7715,-3.7421,-3.7264,-3.7615,-3.7655,-3.6972,-3.6425,-3.6404,-3.6248,-3.6012,2.2254,2.2185,2.2003,2.1811,2.1617,2.1556,2.1433,2.123,2.1151,2.1325,2.157,2.194,2.2375,2.2773,2.3146,2.3455,2.3783,2.4004,2.4174,2.4386,2.4572,2.4685,2.4764,2.47,2.4495,2.4234,2.3546,2.2779,2.1473,1.9727,1.6614,1.1927,0.6253,0.2605,-0.0876,-0.5506,-0.9906,-1.4174,-1.7852,-2.0281,-2.22,-2.3662,-2.4991,-2.6399,-2.742,-2.8147,-2.842,-2.8373,-2.8025,-2.7163,-2.6209,-2.5196,-2.3929,-2.2394,-2.0581,-1.8203,-1.4893,-1.1426,-0.8052,-0.668,-0.6537,-0.7005,-0.6988,-0.7497,-0.833,-0.9669,-1.1001,-1.2331,-1.3977,-1.5974,-1.7969,-2.0477,-2.2986,-2.5227,-2.7499,-2.9978,-3.1895,-3.376,-3.4992,-3.6397,-3.7507,-3.8945,-4.0031,-4.0372,-4.0548,-4.0351,-4.0118,-4.0106,-4.0052,-4.0212,-4.0351,-4.0781,-4.1133,-4.0937,-4.0879,-4.0879,-4.0605,-4.0371,-4.0137,-3.9902,-3.9785,-3.9531,-3.9277,-3.8965,-3.8613,-3.8378,-3.8435,-3.849,-3.8467,-3.8233,-3.7729,-3.7264,-3.6914,-3.6777,-3.666,2.2271,2.214,2.1886,2.1631,2.1417,2.1309,2.1087,2.086,2.1023,2.1261,2.1584,2.2108,2.2617,2.3052,2.3468,2.3828,2.4118,2.4385,2.4535,2.4666,2.4746,2.476,2.4598,2.4398,2.3916,2.3283,2.2382,2.105,1.953,1.6756,1.2554,0.7686,0.3411,-0.0632,-0.4632,-0.8337,-1.2175,-1.5681,-1.8369,-2.0126,-2.1231,-2.1917,-2.2109,-2.2833,-2.3397,-2.3998,-2.4194,-2.4166,-2.3803,-2.2917,-2.1724,-2.0446,-1.9093,-1.7592,-1.5753,-1.323,-0.97,-0.7466,-0.6029,-0.5504,-0.6103,-0.7028,-0.7339,-0.7755,-0.8895,-1.0691,-1.2464,-1.441,-1.6307,-1.8556,-2.0787,-2.3426,-2.6056,-2.831,-3.0523,-3.2546,-3.4342,-3.5756,-3.6788,-3.7849,-3.8726,-3.9755,-4.0447,-4.0894,-4.0994,-4.089,-4.0644,-4.0683,-4.0664,-4.0742,-4.0859,-4.0918,-4.1172,-4.1191,-4.1191,-4.1191,-4.1113,-4.0742,-4.0859,-4.0723,-4.0625,-4.043,-4.0156,-3.9746,-3.9199,-3.9042,-3.9349,-3.9242,-3.8938,-3.8687,-3.8746,-3.8253,-3.7965,-3.7968,-3.7949,2.2123,2.1945,2.1661,2.1386,2.1151,2.086,2.0728,2.0811,2.0974,2.1323,2.1911,2.2422,2.2961,2.3512,2.3911,2.4261,2.4545,2.4747,2.4842,2.4874,2.479,2.4598,2.4259,2.3764,2.3123,2.2065,2.0874,1.9339,1.7106,1.4105,1.0462,0.6015,0.2481,-0.1463,-0.4955,-0.8622,-1.2139,-1.5352,-1.7702,-1.8659,-1.8487,-1.8346,-1.7409,-1.6059,-1.6038,-1.6477,-1.6508,-1.6402,-1.6188,-1.6876,-1.5733,-1.4584,-1.3608,-1.256,-1.1188,-0.9024,-0.705,-0.586,-0.5857,-0.6314,-0.7293,-0.8758,-0.9929,-1.0222,-1.1058,-1.2462,-1.4538,-1.6718,-1.9022,-2.1334,-2.3879,-2.6521,-2.8876,-3.1,-3.3027,-3.4729,-3.6313,-3.7217,-3.8205,-3.8895,-3.9776,-4.0204,-4.087,-4.0988,-4.1072,-4.1094,-4.111,-4.1108,-4.111,-4.113,-4.1132,-4.1152,-4.1152,-4.1171,-4.1191,-4.1191,-4.1191,-4.1152,-4.1191,-4.1191,-4.1016,-4.084,-4.082,-4.0566,-4.0078,-4.0151,-4.0491,-4.0207,-3.9774,-4.0174,-4.0233,-3.9582,-3.9071,-3.9056,-3.8984,2.1991,2.1797,2.1448,2.1151,2.0794,2.0595,2.0646,2.0877,2.1071,2.1521,2.2192,2.2737,2.3325,2.3911,2.4312,2.4647,2.4924,2.4993,2.5024,2.4891,2.4685,2.4239,2.3745,2.2922,2.1969,2.0782,1.9338,1.7782,1.5481,1.2424,0.8856,0.6469,0.3013,0.0126,-0.2906,-0.588,-0.8914,-1.215,-1.4605,-1.5886,-1.5137,-1.3332,-1.0153,-0.7776,-0.754,-0.7312,-0.7553,-0.7558,-0.909,-1.0116,-0.9219,-0.9141,-0.8652,-0.8286,-0.8603,-0.7095,-0.7115,-0.7229,-0.7812,-0.8968,-1.016,-1.1762,-1.359,-1.4742,-1.512,-1.6147,-1.7812,-1.9656,-2.1923,-2.43,-2.6979,-2.9595,-3.1599,-3.3669,-3.526,-3.6825,-3.7794,-3.8609,-3.9278,-3.9904,-4.0384,-4.075,-4.1019,-4.1084,-4.1113,-4.1108,-4.1101,-4.1099,-4.1103,-4.1107,-4.111,-4.113,-4.1131,-4.1113,-4.1152,-4.1191,-4.1191,-4.1191,-4.1191,-4.1191,-4.1191,-4.1152,-4.1035,-4.1035,-4.1016,-4.1025,-4.0915,-4.0964,-4.0783,-4.1039,-4.1045,-4.0496,-4.0034,-4.0049,-3.9961,2.1797,2.1617,2.1309,2.0893,2.0475,2.0527,2.073,2.1071,2.1354,2.1803,2.2485,2.3088,2.3656,2.4225,2.4628,2.4943,2.5099,2.5182,2.5018,2.4828,2.4318,2.3766,2.2876,2.2002,2.0789,1.936,1.7943,1.6506,1.4698,1.2264,0.9899,0.7557,0.5428,0.2868,0.0196,-0.2496,-0.5097,-0.7354,-1.005,-1.1661,-0.9735,-0.7165,-0.3763,-0.1436,-0.0186,0.0603,0.0251,-0.0853,-0.2628,-0.2922,-0.3722,-0.4353,-0.552,-0.6344,-0.6919,-0.7962,-0.8674,-0.9873,-1.1077,-1.2487,-1.413,-1.5815,-1.757,-1.9184,-1.9941,-1.9668,-2.102,-2.3206,-2.5531,-2.7808,-3.044,-3.2353,-3.4246,-3.561,-3.6967,-3.8083,-3.8831,-3.9494,-3.9989,-4.0479,-4.0699,-4.1019,-4.1047,-4.1113,-4.1112,-4.1099,-4.1111,-4.1111,-4.1116,-4.1103,-4.1107,-4.1108,-4.111,-4.1113,-4.1172,-4.1191,-4.1191,-4.1191,-4.1191,-4.1191,-4.1191,-4.1191,-4.1191,-4.1172,-4.1151,-4.1121,-4.1062,-4.1072,-4.1058,-4.1032,-4.102,-4.1037,-4.0933,-4.0784,-4.0723,2.1573,2.134,2.1055,2.0761,2.0644,2.0761,2.1007,2.1415,2.1907,2.2324,2.2813,2.3414,2.4008,2.4554,2.4898,2.5184,2.5284,2.5165,2.4943,2.4429,2.3879,2.2954,2.1932,2.087,1.96,1.8162,1.6751,1.5602,1.4358,1.2811,1.1562,0.9972,0.797,0.5745,0.3364,0.0813,-0.1376,-0.3502,-0.5745,-0.7278,-0.6038,-0.0162,0.4613,0.7552,0.9647,1.0513,0.9645,0.705,0.4244,0.2138,-0.0395,-0.2863,-0.5833,-0.7432,-0.8933,-1.0369,-1.1854,-1.3346,-1.5031,-1.6701,-1.8417,-2.0038,-2.1786,-2.3468,-2.4191,-2.3663,-2.4514,-2.693,-2.9102,-3.1365,-3.3357,-3.5052,-3.6496,-3.75,-3.847,-3.9142,-3.9814,-4.0211,-4.0664,-4.0843,-4.1012,-4.1064,-4.1094,-4.1108,-4.1101,-4.1116,-4.1111,-4.1111,-4.1116,-4.1103,-4.1107,-4.1108,-4.1108,-4.1133,-4.1172,-4.1191,-4.1191,-4.1191,-4.1191,-4.1191,-4.1191,-4.1191,-4.1191,-4.1191,-4.115,-4.1121,-4.1104,-4.1096,-4.1084,-4.1025,-4.1039,-4.1061,-4.109,-4.0977,-4.105,2.1356,2.123,2.0958,2.0827,2.0827,2.0974,2.1293,2.1688,2.2231,2.2729,2.3206,2.3735,2.4293,2.4788,2.5102,2.5274,2.533,2.5126,2.4661,2.4074,2.321,2.2169,2.1038,1.9832,1.8685,1.7383,1.6618,1.5608,1.4783,1.4316,1.3564,1.1997,1.0251,0.8179,0.5913,0.3517,0.1003,-0.1216,-0.3377,-0.4718,-0.429,0.1051,0.6485,1.0427,1.253,1.4245,1.3672,1.0147,0.5247,0.1224,-0.2221,-0.7082,-1.0196,-1.1773,-1.2914,-1.4545,-1.6216,-1.7758,-1.956,-2.1231,-2.2825,-2.4346,-2.571,-2.7242,-2.8379,-2.8124,-2.8999,-3.1124,-3.2095,-3.414,-3.5542,-3.7142,-3.79,-3.8808,-3.9359,-3.9886,-4.0312,-4.0636,-4.087,-4.0988,-4.1086,-4.1094,-4.1107,-4.1101,-4.1114,-4.1108,-4.1104,-4.1099,-4.1103,-4.1125,-4.1108,-4.111,-4.1129,-4.1133,-4.1191,-4.1191,-4.1191,-4.1191,-4.1191,-4.1191,-4.1191,-4.1191,-4.1191,-4.1172,-4.115,-4.1123,-4.1108,-4.1105,-4.1075,-4.1026,-4.1064,-4.1111,-4.1113,-4.1111,-4.1123,2.1167,2.1167,2.1039,2.0958,2.1039,2.1246,2.154,2.1911,2.2493,2.3028,2.3516,2.4007,2.4523,2.4924,2.5186,2.5283,2.5187,2.486,2.4335,2.3533,2.259,2.1454,2.0268,1.9104,1.8106,1.7587,1.7058,1.6872,1.655,1.6053,1.5081,1.3752,1.1862,0.9814,0.74,0.4556,0.1527,-0.2001,-0.4786,-0.7298,-0.4977,-0.1269,0.3165,0.6444,0.873,1.0866,1.0208,0.6975,0.1396,-0.2521,-0.6824,-1.1539,-1.4868,-1.6442,-1.7771,-1.921,-2.0824,-2.2509,-2.4169,-2.555,-2.6886,-2.8224,-2.9444,-3.051,-3.1515,-3.2546,-3.3424,-3.4304,-3.522,-3.6258,-3.7661,-3.8577,-3.9248,-3.9738,-4.0142,-4.0455,-4.0729,-4.0944,-4.1026,-4.1108,-4.1113,-4.1101,-4.1114,-4.1108,-4.1104,-4.1097,-4.1108,-4.1101,-4.1108,-4.1129,-4.1151,-4.1151,-4.1151,-4.1172,-4.1191,-4.1191,-4.1191,-4.1191,-4.1191,-4.1191,-4.1191,-4.1172,-4.1172,-4.1172,-4.1149,-4.1123,-4.1114,-4.1117,-4.1072,-4.1025,-4.1061,-4.11,-4.1109,-4.1108,-4.1116,2.1007,2.1135,2.123,2.1355,2.1481,2.1617,2.1899,2.226,2.266,2.3153,2.3638,2.4137,2.4595,2.4991,2.5152,2.5194,2.5023,2.4592,2.381,2.2989,2.1933,2.0687,1.9682,1.8851,1.8017,1.7924,1.8154,1.8228,1.7699,1.7115,1.605,1.4276,1.1992,0.9462,0.6471,0.3233,-0.0804,-0.4604,-0.8937,-1.2161,-1.1387,-0.7534,-0.2481,0.0222,0.1875,0.2132,0.0857,-0.2891,-0.6073,-0.9406,-1.3042,-1.6878,-1.931,-2.1087,-2.2395,-2.3661,-2.5316,-2.6535,-2.8014,-2.9055,-3.0156,-3.0837,-3.182,-3.2451,-3.3579,-3.4959,-3.5807,-3.6618,-3.7476,-3.8177,-3.9258,-3.9605,-4.0146,-4.0346,-4.0665,-4.0789,-4.0983,-4.1035,-4.109,-4.1093,-4.1082,-4.1085,-4.1085,-4.1085,-4.109,-4.1094,-4.1116,-4.1107,-4.111,-4.1131,-4.1171,-4.1172,-4.1172,-4.1191,-4.1191,-4.1191,-4.1191,-4.1191,-4.1191,-4.1172,-4.1151,-4.1131,-4.1131,-4.115,-4.1149,-4.1105,-4.1116,-4.1108,-4.1097,-4.1081,-4.1085,-4.1113,-4.1117,-4.1097,-4.1081]},{"header":{"parameterUnit":"m.s-1","parameterCategory":1,"la1":31.0,"la2":29.5877,"lo1":-88.7671,"lo2":-86.6584,"dy":0.0162,"dx":0.0185,"nx":115,"ny":88,"refTime":"2024-03-02T06:00:00:Z","depth":0,"parameterNumber":3,"parameterNumberName":"V-component_of_WINDS"},"data":[0.0,0.0,0.0,0.0,0.0,0.0,0.0,0.0,0.0,0.0,0.0,0.0,0.0,0.0,0.0,0.0,0.0,0.0,0.0,0.0,0.0,0.0,0.0,0.0,0.0,0.0,0.0,0.0,0.0,0.0,0.0,0.0,0.0,0.0,0.0,0.0,0.0,0.0,0.0,0.0,0.0,0.0,0.0,0.0,0.0,0.0,0.0,0.0,0.0,0.0,0.0,0.0,0.0,0.0,0.0,0.0,0.0,0.0,0.0,0.0,0.0,0.0,0.0,0.0,0.0,0.0,0.0,0.0,0.0,0.0,0.0,0.0,0.0,0.0,0.0,0.0,0.0,0.0,0.0,0.0,0.0,0.0,0.0,0.0,0.0,0.0,0.0,0.0,0.0,0.0,0.0,0.0,0.0,0.0,0.0,0.0,0.0,0.0,0.0,0.0,0.0,0.0,0.0,0.0,0.0,0.0,0.0,0.0,0.0,0.0,0.0,0.0,0.0,0.0,0.0,0.0,0.0,0.0,0.0,0.0,0.0,0.0,0.0,0.0,0.0,0.0,0.0,0.0,0.0,0.0,0.0,0.0,0.0,0.0,0.0,0.0,0.0,0.0,0.0,0.0,0.0,0.0,0.0,0.0,0.0,0.0,0.0,0.0,0.0,0.0,0.0,0.0,0.0,0.0,0.0,0.0,0.0,0.0,0.0,0.0,0.0,0.0,0.0,0.0,0.0,0.0,0.0,0.0,0.0,0.0,0.0,0.0,0.0,0.0,0.0,0.0,0.0,0.0,0.0,0.0,0.0,0.0,0.0,0.0,0.0,0.0,0.0,0.0,0.0,0.0,0.0,0.0,0.0,0.0,0.0,0.0,0.0,0.0,0.0,0.0,0.0,0.0,0.0,0.0,0.0,0.0,0.0,0.0,0.0,0.0,0.0,0.0,0.0,0.0,0.0,0.0,0.0,0.0,0.0,0.0,0.0,0.0,0.0,0.0,0.0,0.0,0.0,0.0,0.0,0.0,0.0,0.0,0.0,0.0,0.0,0.0,0.0,0.0,0.0,0.0,0.0,0.0,0.0,0.0,0.0,0.0,0.0,0.0,0.0,0.0,0.0,0.0,0.0,0.0,0.0,0.0,0.0,0.0,0.0,0.0,0.0,0.0,0.0,0.0,0.0,0.0,0.0,0.0,0.0,0.0,0.0,0.0,0.0,0.0,0.0,0.0,0.0,0.0,0.0,0.0,0.0,0.0,0.0,0.0,0.0,0.0,0.0,0.0,0.0,0.0,0.0,0.0,0.0,0.0,0.0,0.0,0.0,0.0,0.0,0.0,0.0,0.0,0.0,0.0,0.0,0.0,0.0,0.0,0.0,0.0,0.0,0.0,0.0,0.0,0.0,0.0,0.0,0.0,0.0,0.0,0.0,0.0,0.0,0.0,0.0,0.0,0.0,0.0,0.0,0.0,0.0,0.0,0.0,0.0,0.0,0.0,0.0,0.0,0.0,0.0,0.0,0.0,0.0,0.0,0.0,0.0,0.0,0.0,0.0,0.0,0.0,0.0,0.0,0.0,0.0,0.0,0.0,0.0,0.0,0.0,0.0,0.0,0.0,0.0,0.0,0.0,0.0,0.0,0.0,0.0,0.0,0.0,0.0,0.0,0.0,0.0,0.0,0.0,0.0,0.0,0.0,0.0,0.0,0.0,0.0,0.0,0.0,0.0,0.0,0.0,0.0,0.0,0.0,0.0,0.0,0.0,0.0,0.0,0.0,0.0,0.0,0.0,0.0,0.0,0.0,0.0,0.0,0.0,0.0,0.0,0.0,0.0,0.0,0.0,0.0,0.0,0.0,0.0,0.0,0.0,0.0,0.0,0.0,0.0,0.0,0.0,0.0,0.0,0.0,0.0,0.0,0.0,0.0,0.0,0.0,0.0,0.0,0.0,0.0,0.0,0.0,0.0,0.0,0.0,0.0,0.0,0.0,0.0,0.0,0.0,0.0,0.0,0.0,0.0,0.0,0.0,0.0,0.0,0.0,0.0,0.0,0.0,0.0,0.0,0.0,0.0,0.0,0.0,0.0,0.0,0.0,0.0,0.0,0.0,0.0,0.0,0.0,0.0,0.0,0.0,0.0,0.0,0.0,0.0,0.0,0.0,0.0,0.0,0.0,0.0,0.0,0.0,0.0,0.0,0.0,0.0,0.0,0.0,0.0,0.0,0.0,0.0,0.0,0.0,0.0,0.0,0.0,0.0,0.0,0.0,0.0,0.0,0.0,0.0,0.0,0.0,0.0,0.0,0.0,0.0,0.0,0.0,0.0,0.0,0.0,0.0,0.0,0.0,0.0,0.0,0.0,0.0,0.0,0.0,0.0,0.0,0.0,0.0,0.0,0.0,0.0,0.0,0.0,0.0,0.0,0.0,0.0,0.0,0.0,0.0,0.0,0.0,0.0,0.0,0.0,0.0,0.0,0.0,0.0,0.0,0.0,0.0,0.0,0.0,0.0,0.0,0.0,0.0,0.0,0.0,0.0,0.0,0.0,0.0,0.0,0.0,0.0,0.0,0.0,0.0,0.0,0.0,0.0,0.0,0.0,0.0,0.0,0.0,0.0,0.0,0.0,0.0,0.0,0.0,0.0,0.0,0.0,0.0,0.0,0.0,0.0,0.0,0.0,0.0,0.0,0.0,0.0,0.0,0.0,0.0,0.0,0.0,0.0,0.0,0.0,0.0,0.0,0.0,0.0,0.0,0.0,0.0,0.0,0.0,0.0,0.0,0.0,0.0,0.0,0.0,0.0,0.0,0.0,0.0,0.0,0.0,0.0,0.0,0.0,0.0,0.0,0.0,0.0,0.0,0.0,0.0,0.0,0.0,0.0,0.0,0.0,0.0,0.0,0.0,0.0,0.0,0.0,0.0,0.0,0.0,0.0,0.0,0.0,0.0,0.0,0.0,0.0,0.0,0.0,0.0,0.0,0.0,0.0,0.0,0.0,0.0,0.0,0.0,0.0,0.0,0.0,0.0,0.0,0.0,0.0,0.0,0.0,0.0,0.0,0.0,0.0,0.0,0.0,0.0,0.0,0.0,0.0,0.0,0.0,0.0,0.0,0.0,0.0,0.0,0.0,0.0,0.0,0.0,0.0,0.0,0.0,0.0,0.0,0.0,0.0,0.0,0.0,0.0,0.0,0.0,0.0,0.0,0.0,0.0,0.0,0.0,0.0,0.0,0.0,0.0,0.0,0.0,0.0,0.0,0.0,0.0,0.0,0.0,0.0,0.0,0.0,0.0,0.0,0.0,0.0,0.0,0.0,0.0,0.0,0.0,0.0,0.0,0.0,0.0,0.0,0.0,0.0,0.0,0.0,0.0,0.0,0.0,0.0,0.0,0.0,0.0,0.0,0.0,0.0,0.0,0.0,0.0,0.0,0.0,0.0,0.0,0.0,0.0,0.0,0.0,0.0,0.0,0.0,0.0,0.0,0.0,0.0,0.0,0.0,0.0,0.0,0.0,0.0,0.0,0.0,0.0,0.0,0.0,0.0,0.0,0.0,0.0,0.0,0.0,0.0,0.0,0.0,0.0,0.0,0.0,0.0,0.0,0.0,0.0,0.0,0.0,0.0,0.0,0.0,0.0,0.0,0.0,0.0,0.0,0.0,0.0,0.0,0.0,0.0,0.0,0.0,0.0,0.0,0.0,0.0,0.0,0.0,0.0,0.0,0.0,0.0,0.0,0.0,0.0,0.0,0.0,0.0,0.0,0.0,0.0,0.0,0.0,0.0,0.0,0.0,0.0,0.0,0.0,0.0,0.0,0.0,0.0,0.0,0.0,0.0,0.0,0.0,0.0,0.0,0.0,0.0,0.0,0.0,0.0,0.0,0.0,0.0,0.0,0.0,0.0,0.0,0.0,0.0,0.0,0.0,0.0,0.0,0.0,0.0,0.0,0.0,0.0,0.0,0.0,0.0,0.0,0.0,0.0,0.0,0.0,0.0,0.0,0.0,0.0,0.0,0.0,0.0,0.0,0.0,0.0,0.0,0.0,0.0,0.0,0.0,0.0,0.0,0.0,0.0,0.0,0.0,0.0,0.0,0.0,0.0,0.0,0.0,0.0,0.0,0.0,0.0,0.0,0.0,0.0,0.0,0.0,0.0,0.0,0.0,0.0,0.0,0.0,0.0,0.0,0.0,0.0,0.0,0.0,0.0,0.0,0.0,0.0,0.0,0.0,0.0,0.0,0.0,0.0,0.0,0.0,0.0,0.0,0.0,0.0,0.0,0.0,-0.067,0.0,0.0,0.0,0.0,0.0,0.0,0.0,0.0,0.0,0.0,0.0,0.0,0.0,0.0,0.0,0.0,0.0,0.0,0.0,0.0,0.0,0.0,0.0,0.0,0.0,0.0,0.0,0.0,0.0,0.0,0.0,0.0,0.0,0.0,0.0,0.0,0.0,0.0,0.0,0.0,0.0,0.0,0.0,0.0,0.0,0.0,0.0,0.0,0.0,0.0,0.0,0.0,0.0,0.0,0.0,0.0,0.0,0.0,0.0,0.0,0.0,0.0,0.0,0.0,0.0,0.0,0.0,0.0,0.0,0.0,0.0,0.0,0.0,0.0,0.0,0.0,0.0,0.0,0.0,0.0,0.0,0.0,0.0,0.0,0.0,0.0,0.0,0.0,0.0,0.0,0.0,0.0,0.0,0.0,0.0,0.0,0.0,0.0,0.0,0.0,0.0,0.0,0.0,0.0,0.0,0.0,0.0,0.0,0.0,0.0,0.0569,0.0197,-0.0197,-0.0507,-0.0735,0.0,0.0,0.0,0.0,0.0,0.0,0.0,0.0,0.0,0.0,0.0,0.0,0.0,0.0,0.0,0.0,0.0,0.0,0.0,0.0,0.0,0.0,0.0,0.0,0.0,0.0,0.0,0.0,0.0,0.0,0.0,0.0,0.0,0.0,0.0,0.0,0.0,0.0,0.0,0.0,0.0,0.0,0.0,0.0,0.0,0.0,0.0,0.0,0.0,0.0,0.0,0.0,0.0,0.0,0.0,0.0,0.0,0.0,0.0,0.0,0.0,0.0,0.0,0.0,0.0,0.0,0.0,0.0,0.0,0.0,0.0,0.0,0.0,0.0,0.0,0.0,0.0,0.0,0.0,0.0,0.0,0.0,0.0,0.0,0.0,0.0,0.0,0.0,0.0,0.0,0.0,0.0,0.0,0.0,0.0,0.0,0.0,0.0,0.0,0.0,0.0,0.0,0.0,0.0,0.0,0.0,0.0,0.0,0.0,0.0,0.0,0.0,-0.0088,-0.0477,-0.0831,0.0,0.0,0.0,0.0,0.0,0.0,0.0,0.0,0.0,0.0,0.0,0.0,0.0,0.0,0.0,0.0,0.0,0.0,0.0,0.0,0.0,0.0,0.0,0.0,0.0,0.0,0.0,0.0,0.0,0.0,0.0,0.0,0.0,0.0,0.0,0.0,0.0,0.0,0.0,0.0,0.0,0.0,0.0,0.0,0.0,0.0,0.0,0.0,0.0,0.0,0.0,0.0,0.0,0.0,0.0,0.0,0.0,0.0,0.0,0.0,0.0,0.0,0.0,0.0,0.0,0.0,0.0,0.0,0.0,0.0,0.0,0.0,0.0,0.0,0.0,0.0,0.0,0.0,0.0,0.0,0.0,0.0,0.0,0.0,0.0,0.0,0.0,0.0,0.0,0.0,0.0,0.0,0.0,0.0,0.0,0.0,0.0,0.0,0.0,0.0,0.0,0.0,0.0,0.0,0.0,0.0,0.0,0.0,0.0,0.0,0.0699,0.0463,-0.0033,0.0,-0.1033,0.0,0.0,0.0,0.0,0.0,0.0,0.0,0.0,0.0,0.0,0.0,0.0,0.0,0.0,0.0,0.0,0.0,0.0,0.0,0.0,0.0,0.0,0.0,0.0,0.0,0.0,0.0,0.0,0.0,0.0,0.0,0.0,0.0,0.0,0.0,0.0,0.0,0.0,0.0,0.0,0.0,0.0,0.0,0.0,0.0,0.0,0.0,0.0,0.0,0.0,0.0,0.0,0.0,0.0,0.0,0.0,0.0,0.0,0.0,0.0,0.0,0.0,0.0,0.0,0.0,0.0,0.0,0.0,0.0,0.0,0.0,0.0,0.0,0.0,0.0,0.0,0.0,0.0,0.0,0.0,0.0,0.0,0.0,0.0,0.0,0.0,0.0,0.0,0.0,0.0,0.0,0.0,0.0,0.0,0.0,0.0,0.0,0.0,0.0,0.0,0.0,0.0,0.0,0.0,0.0,0.0,0.0,0.0,0.0,0.0,0.0606,0.0504,-0.0202,-0.0774,0.0,0.0,0.0,0.0,0.0,0.0,0.0,0.0,0.0,0.0,0.0,0.0,0.0,0.0,0.0,0.0,0.0,0.0,0.0,0.0,0.0,0.0,0.0,0.0,0.0,0.0,0.0,0.0,0.0,0.0,0.0,0.0,0.0,0.0,0.0,0.0,0.0,0.0,0.0,0.0,0.0,0.0,0.0,0.0,0.0,0.0,0.0,0.0,0.0,0.0,0.0,0.0,0.0,0.0,0.0,0.0,0.0,0.0,0.0,0.0,0.0,0.0,0.0,0.0,0.0,0.0,0.0,0.0,0.0,0.0,0.0,0.0,0.0,0.0,0.0,0.0,0.0,0.0,0.0,0.0,0.0,0.0,0.0,0.0,0.0,0.0,0.0,0.0,0.0,0.0,0.0,0.0,0.0,0.0,0.0,0.0,0.0,0.0,0.0,0.0,0.0,0.0,0.0,0.0,0.0,0.0,0.0,0.0,0.0,0.0,0.0606,0.0437,0.0269,-0.0471,-0.0977,-0.1179,0.0,0.0,0.0,0.0,0.0,0.0,0.0,0.0,0.0,0.0,0.0,0.0,0.0,0.0,0.0,0.0,0.0,0.0,0.0,0.0,0.0,0.0,0.0,0.0,0.0,0.0,0.0,0.0,0.0,0.0,0.0,0.0,0.0,0.0,0.0,0.0,0.0,0.0,0.0,0.0,0.0,0.0,0.0,0.0,0.0,0.0,0.0,0.0,0.0,0.0,0.0,0.0,0.0,0.0,0.0,0.0,0.0,0.0,0.0,0.0,0.0,0.0,0.0,0.0,0.0,0.0,0.0,0.0,0.0,0.0,0.0,0.0,0.0,0.0,0.0,0.0,0.0,0.0,0.0,0.0,0.0,0.0,0.0,0.0,0.0,0.0,0.0,0.0,0.0,0.0,0.0,0.0,0.0,0.0,0.0,0.0,0.0,0.0,0.0,0.0,0.0,0.0,0.0,0.0,0.0,0.0,0.0,0.0,0.1044,0.0673,0.0269,-0.0235,-0.0774,-0.1145,0.0,0.0,0.0,0.0,0.0,0.0,0.0,0.0,0.0,0.0,0.0,0.0,0.0,0.0,0.0,0.0,0.0,0.0,0.0,0.0,0.0,0.0,0.0,0.0,0.0,0.0,0.0,0.0,0.0,0.0,0.0,0.0,0.0,0.0,0.0,0.0,0.0,0.0,0.0,0.0,0.0,0.0,0.0,0.0,0.0,0.0,0.0,0.0,0.0,0.0,0.0,0.0,0.0,0.0,0.0,0.0,0.0,0.0,0.0,0.0,0.0,0.0,0.0,0.0,0.0,0.0,0.0,0.0,0.0,0.0,0.0,0.0,0.0,0.0,0.0,0.0,0.0,0.0,0.0,0.0,0.0,0.0,0.0,0.0,0.0,0.0,0.0,0.0,0.0,0.0,0.0,0.0,0.0,0.0,0.0,0.0,0.0,0.0,0.0,0.0,0.0,0.0,0.0,0.0,0.0,0.0,0.0,0.0,0.0,0.0707,0.037,0.0034,-0.0303,-0.0808,-0.1145,0.0,0.0,0.0,0.0,0.0,0.0,0.0,0.0,0.0,0.0,0.0,0.0,0.0,0.0,0.0,0.0,0.0,0.0,0.0,0.0,0.0,0.0,0.0,0.0,0.0,0.0,0.0,0.0,0.0,0.0,0.0,0.0,0.0,0.0,0.0,0.0,0.0,0.0,0.0,0.0,0.0,0.0,0.0,0.0,0.0,0.0,0.0,0.0,0.0,0.0,0.0,0.0,0.0,0.0,0.0,0.0,0.0,0.0,0.0,0.0,0.0,0.0,0.0,0.0,0.0,0.0,0.0,0.0,0.0,0.0,0.0,0.0,0.0,0.0,0.0,0.0,0.0,0.0,0.0,0.0,0.0,0.0,0.0,0.0,0.0,0.0,0.0,0.0,0.0,0.0,0.0,0.0,0.0,0.0,0.0,0.0,0.0,0.0,0.0,0.0,0.0,0.0,0.0,0.0,0.0,0.0,0.0,0.0,0.0,0.0437,0.0,0.0,-0.0202,-0.0707,-0.1078,0.0,0.0,0.0,0.0,0.0,0.0,0.0,0.0,0.0,0.0,0.0,0.0,0.0,0.0,0.0,0.0,0.0,0.0,0.0,0.0,0.0,0.0,0.0,0.0,0.0,0.0,0.0,0.0,0.0,0.0,0.0,0.0,0.0,0.0,0.0,0.0,0.0,0.0,0.0,0.0,0.0,0.0,0.0,0.0,0.0,0.0,0.0,0.0,0.0,0.0,0.0,0.0,0.0,0.0,0.0,0.0,0.0,0.0,0.0,0.0,0.0,0.0,0.0,0.0,0.0,0.0,0.0,0.0,0.0,0.0,0.0,0.0,0.0,0.0,0.0,0.0,0.0,0.0,0.0,0.0,0.0,0.0,0.0,0.0,0.0,0.0,0.0,0.0,0.0,0.0,0.0,0.0,0.0,0.0,0.0,0.0,0.0,0.0,0.0,0.0,0.0,0.0,0.0,0.0,0.0,0.0,0.0,0.0,0.0437,0.0303,0.0303,0.0202,-0.0,-0.0437,-0.0875,0.0,0.0,0.0,0.0,0.0,0.0,0.0,0.0,0.0,0.0,0.0,0.0,0.0,0.0,0.0,0.0,0.0,0.0,0.0,0.0,0.0,0.0,0.0,0.0,0.0,0.0,0.0,0.0,0.0,0.0,0.0,0.0,0.0,0.0,0.0,0.0,0.0,0.0,0.0,0.0,0.0,0.0,0.0,0.0,0.0,0.0,0.0,0.0,0.0,0.0,0.0,0.0,0.0,0.0,0.0,0.0,0.0,0.0,0.0,0.0,0.0,0.0,0.0,0.0,0.0,0.0,0.0,0.0,0.0,0.0,0.0,0.0,0.0,0.0,0.0,0.0,0.0,0.0,0.0,0.0,0.0,0.0,0.0,0.0,0.0,0.0,0.0,0.0,0.0,0.0,0.0,0.0,0.0,0.0,0.0,0.0,0.0,0.0,0.0,0.0,0.0,0.0,0.0,0.0,0.0,0.0,0.0,0.0,0.0,0.0673,0.0639,0.0538,0.0269,-0.0235,-0.0639,0.0,0.0,0.0,0.0,0.0,0.0,0.0,0.0,0.0,0.0,0.0,0.0,0.0,0.0,0.0,0.0,0.0,0.0,0.0,0.0,0.0,0.0,0.0,0.0,0.0,0.0,0.0,0.0,0.0,0.0,0.0,0.0,0.0,0.0,0.0,0.0,0.0,0.0,0.0,0.0,0.0,0.0,0.0,0.0,0.0,0.0,0.0,0.0,0.0,0.0,0.0,0.0,0.0,0.0,0.0,0.0,0.0,0.0,0.0,0.0,0.0,0.0,0.0,0.0,0.0,0.0,0.0,0.0,0.0,0.0,0.0,0.0,0.0,0.0,0.0,0.0,0.0,0.0,0.0,0.0,0.0,0.0,0.0,0.0,0.0,0.0,0.0,0.0,0.0,0.0,0.0,0.0,0.0,0.0,0.0,0.0,0.0,0.0,0.0,0.0,0.0,0.0,0.0,0.0,0.0,0.0,0.0,0.0,0.0,0.0943,0.0943,0.0841,0.0673,0.0202,-0.0235,-0.0571,0.0,0.0,0.0,0.0,0.0,0.0,0.0,0.0,0.0,0.0,0.0,0.0,0.0,0.0,0.0,0.0,0.0,0.0,0.0,0.0,0.0,0.0,0.0,0.0,0.0,0.0,0.0,0.0,0.0,0.0,0.0,0.0,0.0,0.0,0.0,0.0,0.0,0.0,0.0,0.0,0.0,0.0,0.0,0.0,0.0,0.0,0.0,0.0,0.0,0.0,0.0,0.0,0.0,0.0,0.0,0.0,0.0,0.0,0.0,0.0,0.0,0.0,0.0,0.0,0.0,0.0,0.0,0.0,0.0,0.0,0.0,0.0,0.0,0.0,0.0,0.0,0.0,0.0,0.0,0.0,0.0,0.0,0.0,0.0,0.0,0.0,0.0,0.0,0.0,0.0,0.0,0.0,0.0,0.0,0.0,0.0,0.0,0.0,0.0,0.0,0.0,0.0,0.0,0.0,0.0,0.0,0.0,0.0,0.1212,0.1246,0.1211,0.111,0.0706,0.0303,0.0,0.0,0.0,0.0,0.0,0.0,0.0,0.0,0.0,0.0,0.0,0.0,0.0,0.0,0.0,0.0,0.0,0.0,0.0,0.0,0.0,0.0,0.0,0.0,0.0,0.0,0.0,0.0,0.0,0.0,0.0,0.0,0.0,0.0,0.0,0.0,0.0,0.0,0.0,0.0,0.0,0.0,0.0,0.0,0.0,0.0,0.0,0.0,0.0,0.0,0.0,0.0,0.0,0.0,0.0,0.0,0.0,0.0,0.0,0.0,0.0,0.0,0.0,0.0,0.0,0.0,0.0,0.0,0.0,0.0,0.0,0.0,0.0,0.0,0.0,0.0,0.0,0.0,0.0,0.0,0.0,0.0,0.0,0.0,0.0,0.0,0.0,0.0,0.0,0.0,0.0,0.0,0.0,0.0,0.0,0.0,0.0,0.0,0.0,0.0,0.0,0.0,0.0,0.0,0.0,0.0,0.0,0.0,0.0,0.1475,0.1744,0.1713,0.1408,0.1008,0.0639,0.0,0.0,0.0,0.0,0.0,0.0,0.0,0.0,0.0,0.0,0.0,0.0,0.0,0.0,0.0,0.0,0.0,0.0,0.0,0.0,0.0,0.0,0.0,0.0,0.0,0.0,0.0,0.0,0.0,0.0,0.0,0.0,0.0,0.0,0.0,0.0,0.0,0.0,0.0,0.0,0.0,0.0,0.0,0.0,0.0,0.0,0.0,0.0,0.0,0.0,0.0,0.0,0.0,0.0,0.0,0.0,0.0,0.0,0.0,0.0,0.0,0.0,0.0,0.0,0.0,0.0,0.0,0.0,0.0,0.0,0.0,0.0,0.0,0.0,0.0,0.0,0.0,0.0,0.0,0.0,0.0,0.0,0.0,0.0,0.0,0.0,0.0,0.0,0.0,0.0,0.0,0.0,0.0,0.0,0.0,0.0,0.0,0.0,0.0,0.0,0.0,0.0,0.0,0.0,0.0,0.0,0.0,0.0,0.1447,0.1709,0.1978,0.2014,0.1845,0.1444,0.111,0.0,0.0,0.0,0.0,0.0,0.0,0.0,0.0,0.0,0.0,0.0,0.0,0.0,0.0,0.0,0.0,0.0,0.0,0.0,0.0,0.0,0.0,0.0,0.0,0.0,0.0,0.0,0.0,0.0,0.0,0.0,0.0,0.0,0.0,0.0,0.0,0.0,0.0,0.0,0.0,0.0,0.0,0.0,0.0,0.0,0.0,0.0,0.0,0.0,0.0,0.0,0.0,0.0,0.0,0.0,0.0,0.0,0.0,0.0,0.0,0.0,0.0,0.0,0.0,0.0,0.0,0.0,0.0,0.0,0.0,0.0,0.0,0.0,0.0,0.0,0.0,0.0,0.0,0.0,0.0,0.0,0.0,0.0,0.0,0.0,0.0,0.0,0.0,0.0,0.0,0.0,0.0,0.0,0.0,0.0,0.0,0.0,0.0,0.0,0.0,0.0,0.0,0.0,0.0,0.0,0.0,0.0,0.0,0.1445,0.1878,0.2047,0.2183,0.2286,0.1911,0.1544,0.0,0.0,0.0,0.0,0.0,0.0,0.0,0.0,0.0,0.0,0.0,0.0,0.0,0.0,0.0,0.0,0.0,0.0,0.0,0.0,0.0,0.0,0.0,0.0,0.0,0.0,0.0,0.0,0.0,0.0,0.0,0.0,0.0,0.0,0.0,0.0,0.0,0.0,0.0,0.0,0.0,0.0,0.0,0.0,0.0,0.0,0.0,0.0,0.0,0.0,0.0,0.0,0.0,0.0,0.0,0.0,0.0,0.0,0.0,0.0,0.0,0.0,0.0,0.0,0.0,0.0,0.0,0.0,0.0,0.0,0.0,0.0,0.0,0.0,0.0,0.0,0.0,0.0,0.0,0.0,0.0,0.0,0.0,0.0,0.0,0.0,0.0,0.0,0.0,0.0,0.0,0.0,0.0,0.0,0.0,0.0,0.0,0.0,0.0,0.0,0.0,0.0,0.0,0.0,0.0,0.0,0.0,0.0,0.1611,0.1978,0.215,0.2317,0.2377,0.2042,0.168,0.0,0.0,0.0,0.0,0.0,0.0,0.0,0.0,0.0,0.0,0.0,0.0,0.0,0.0,0.0,0.0,0.0,0.0,0.0,0.0,0.0,0.0,0.0,0.0,0.0,0.0,0.0,0.0,0.0,0.0,0.0,0.0,0.0,0.0,0.0,0.0,0.0,0.0,0.0,0.0,0.0,0.0,0.0,0.0,0.0,0.0,0.0,0.0,-0.9834,0.0,0.0,0.0,0.0,0.0,0.0,0.0,0.0,0.0,0.0,0.0,0.0,0.0,0.0,0.0,0.0,0.0,0.0,0.0,0.0,0.0,0.0,0.0,0.0,0.0,0.0,0.0,0.0,0.0,0.0,0.0,0.0,0.0,0.0,0.0,0.0,0.0,0.0,0.0,0.0,0.0,0.0,0.0,0.0,0.0,0.0,0.0,0.0,0.0,0.0,0.0,0.0,0.0,0.0,0.0,0.0,0.0,0.0,0.0,0.1676,0.2047,0.2217,0.2286,0.2245,0.2023,0.1742,0.0,0.0,0.0,0.0,0.0,0.0,0.0,0.0,0.0,0.0,0.0,0.0,0.0,0.0,0.0,0.0,0.0,0.0,0.0,0.0,0.0,0.0,0.0,0.0,0.0,0.0,0.0,0.0,0.0,0.0,0.0,0.0,0.0,0.0,0.0,0.0,0.0,0.0,0.0,0.0,0.0,0.0,0.0,0.0,0.0,0.0,0.0,0.0,0.0,0.0,0.0,0.0,0.0,0.0,0.0,0.0,0.0,0.0,0.0,0.0,0.0,0.0,0.0,0.0,0.0,0.0,0.0,0.0,0.0,0.0,0.0,0.0,0.0,0.0,0.0,0.0,0.0,0.0,0.0,0.0,0.0,0.0,0.0,0.0,0.0,0.0,0.0,0.0,0.0,0.0,0.0,0.0,0.0,0.0,0.0,0.0,0.0,0.0,0.0,0.0,0.0,0.0,0.0,0.0,0.0,0.0,0.0,0.1544,0.1709,0.2081,0.2217,0.2183,0.2081,0.1938,0.1693,0.1352,0.0,0.0,0.0,0.0,0.0,0.0,0.0,0.0,0.0,0.0,0.0,0.0,0.0,0.0,0.0,0.0,0.0,0.0,0.0,0.0,0.0,0.0,0.0,0.0,0.0,0.0,0.0,0.0,0.0,0.0,0.0,0.0,0.0,0.0,0.0,0.0,0.0,0.0,-0.5641,-0.5909,0.0,0.0,0.0,0.0,0.0,0.0,0.0,0.0,-1.1315,0.0,0.0,0.0,0.0,0.0,0.0,0.0,0.0,0.0,0.0,0.0,0.0,0.0,0.0,0.0,0.0,0.0,0.0,0.0,0.0,0.0,0.0,0.0,0.0,0.0,0.0,0.0,0.0,0.0,0.0,0.0,0.0,0.0,0.0,0.0,0.0,0.0,0.0,0.0,0.0,0.0,0.0,0.0,0.0,0.0,0.0,0.0,0.0,0.0,0.0,0.0,0.0,0.0,0.0,0.0,0.0,0.1585,0.1577,0.1742,0.2081,0.2081,0.2047,0.2011,0.1717,0.1407,0.1083,0.0,0.0,0.0,0.0,0.0,0.0,0.0,0.0,0.0,0.0,0.0,0.0,0.0,0.0,0.0,0.0,0.0,0.0,0.0,0.0,0.0,0.0,0.0,0.0,0.0,0.0,0.0,0.0,0.0,0.0,0.0,0.0,0.0,0.0,0.0,0.0,0.0,0.0,0.0,-0.6224,-0.6305,0.0,0.0,0.0,0.0,0.0,0.0,0.0,0.0,-1.1889,0.0,0.0,0.0,0.0,0.0,0.0,0.0,0.0,0.0,0.0,0.0,0.0,0.0,0.0,0.0,0.0,0.0,0.0,0.0,0.0,0.0,0.0,0.0,0.0,0.0,0.0,0.0,0.0,0.0,0.0,0.0,0.0,0.0,0.0,0.0,0.0,0.0,0.0,0.0,0.0,0.0,0.0,0.0,0.0,0.0,0.0,0.0,0.0,0.0,0.0,0.0,0.0,0.0,0.0,0.0,0.155,0.1646,0.1776,0.2047,0.1978,0.188,0.1747,0.1482,0.1181,0.0,0.0,0.0,0.0,0.0,0.0,0.0,0.0,0.0,0.0,0.0,0.0,0.0,0.0,0.0,0.0,0.0,0.0,0.0,0.0,0.0,0.0,0.0,0.0,0.0,0.0,0.0,0.0,0.0,0.0,0.0,0.0,0.0,0.0,0.0,0.0,0.0,0.0,0.0,0.0,-0.6467,-0.6512,-0.6174,0.0,0.0,0.0,0.0,0.0,0.0,-1.2878,-1.2817,0.0,0.0,0.0,0.0,0.0,0.0,0.0,0.0,0.0,0.0,0.0,0.0,0.0,0.0,0.0,0.0,0.0,0.0,0.0,0.0,0.0,0.0,0.0,0.0,0.0,0.0,0.0,0.0,0.0,0.0,0.0,0.0,0.0,0.0,0.0,0.0,0.0,0.0,0.0,0.0,0.0,0.0,0.0,0.0,0.0,0.0,0.0,0.0,0.0,0.0,0.0,0.0,0.0,0.0,0.0,0.1619,0.1678,0.1776,0.1978,0.1911,0.1713,0.1481,0.1274,0.101,0.0,0.0,0.0,0.0,0.0,0.0,0.0,0.0,0.0,0.0,0.0,0.0,0.0,0.0,0.0,0.0,0.0,0.0,0.0,0.0,0.0,0.0,0.0,0.0,0.0,0.0,0.0,0.0,0.0,0.0,0.0,0.0,0.0,0.0,0.0,0.0,0.0,0.0,0.0,0.0,0.0,-0.6936,-0.6709,-0.808,0.0,0.0,0.0,0.0,-1.369,-1.3698,0.0,0.0,0.0,0.0,0.0,0.0,0.0,0.0,0.0,0.0,0.0,0.0,0.0,0.0,0.0,0.0,0.0,0.0,0.0,0.0,0.0,0.0,0.0,0.0,0.0,0.0,0.0,0.0,0.0,0.0,0.0,0.0,0.0,0.0,0.0,0.0,0.0,0.0,0.0,0.0,0.0,0.0,0.0,0.0,0.0,0.0,0.0,0.0,0.0,0.0,0.0,0.0,0.0,0.0,0.0,0.0,0.1823,0.1747,0.1776,0.1878,0.1742,0.1575,0.1414,0.1169,0.0923,0.0,0.0,0.0,0.0,0.0,0.0,0.0,0.0,0.0,0.0,0.0,0.0,0.0,0.0,0.0,0.0,0.0,0.0,0.0,0.0,0.0,0.0,0.0,0.0,0.0,0.0,0.0,0.0,0.0,0.0,0.0,0.0,0.0,0.0,0.0,0.0,0.0,0.0,0.0,0.0,0.0,-0.7892,-0.8184,-0.9214,-1.088,0.0,0.0,-1.3515,-1.4588,-1.4566,0.0,0.0,0.0,0.0,0.0,0.0,0.0,0.0,0.0,0.0,0.0,0.0,0.0,0.0,0.0,0.0,0.0,0.0,0.0,0.0,0.0,0.0,0.0,0.0,0.0,0.0,0.0,0.0,0.0,0.0,0.0,0.0,0.0,0.0,0.0,0.0,0.0,0.0,0.0,0.0,0.0,0.0,0.0,0.0,0.0,0.0,0.0,0.0,0.0,0.0,0.0,0.0,0.0,0.0,0.0,0.074,0.1686,0.1713,0.1742,0.1776,0.1544,0.1378,0.1212,0.0953,0.0711,0.0,0.0,0.0,0.0,0.0,0.0,0.0,0.0,0.0,0.0,0.0,0.0,0.0,0.0,0.0,0.0,0.0,0.0,0.0,0.0,0.0,0.0,0.0,0.0,0.0,0.0,0.0,0.0,0.0,0.0,0.0,0.0,0.0,0.0,0.0,0.0,0.0,0.0,0.0,0.0,0.0,0.0,-0.9459,-1.0376,0.0,0.0,0.0,-1.4241,-1.4813,0.0,0.0,0.0,0.0,0.0,0.0,0.0,0.0,0.0,0.0,0.0,0.0,0.0,0.0,0.0,0.0,0.0,0.0,0.0,0.0,0.0,0.0,0.0,0.0,0.0,0.0,0.0,0.0,0.0,0.0,0.0,0.0,0.0,0.0,0.0,0.0,0.0,0.0,0.0,0.0,0.0,0.0,0.0,0.0,0.0,0.0,0.0,0.0,0.0,0.0,0.0,0.0,0.0,0.0,0.0,0.0,0.0,0.1552,0.1701,0.1712,0.1607,0.1424,0.1219,0.1031,0.0758,0.0,0.0,0.0,0.0,0.0,0.0,0.0,0.0,0.0,0.0,0.0,0.0,0.0,0.0,0.0,0.0,0.0,0.0,0.0,0.0,0.0,0.0,0.0,0.0,0.0,0.0,0.0,-0.2615,0.0,0.0,0.0,0.0,0.0,0.0,0.0,0.0,0.0,0.0,0.0,0.0,0.0,0.0,-0.9985,-1.0507,-1.1433,-1.2585,0.0,0.0,-1.4704,-1.4876,-1.4705,-1.4433,0.0,0.0,0.0,0.0,0.0,0.0,0.0,0.0,0.0,0.0,0.0,0.0,0.0,0.0,0.0,0.0,0.0,0.0,0.0,0.0,0.0,0.0,0.0,0.0,0.0,0.0,0.0,0.0,0.0,0.0,0.0,0.0,0.0,0.0,0.0,0.0,0.0,0.0,0.0,0.0,0.0,0.0,0.0,0.0,0.0,0.0,0.0,0.0,0.0,0.0,0.0,0.0,0.0,0.0,0.0,0.1385,0.173,0.1733,0.1447,0.1402,0.1215,0.0836,0.0506,0.024,0.0,0.0,0.0,0.0,0.0,0.0,0.0,0.0,0.0,0.0,0.0,0.0,0.0,0.0,0.0,0.0,0.0,0.0,0.0,0.0,0.0,0.0,0.0,0.0,0.0,0.0,0.0,0.0,0.0,0.0,0.0,0.0,0.0,0.0,0.0,0.0,0.0,0.0,0.0,0.0,0.0,-1.096,-1.1363,-1.2338,-1.3272,0.0,0.0,-1.4827,-1.4883,-1.4782,-1.4576,-1.432,0.0,0.0,0.0,0.0,0.0,0.0,0.0,0.0,0.0,0.0,0.0,0.0,0.0,0.0,0.0,0.0,0.0,0.0,0.0,0.0,0.0,0.0,0.0,0.0,0.0,0.0,0.0,0.0,0.0,0.0,0.0,0.0,0.0,0.0,0.0,0.0,0.0,0.0,0.0,0.0,0.0,0.0,0.0,0.0,0.0,0.0,0.0,0.0,0.0,0.0,0.0,0.0,0.0,0.074,0.1281,0.1595,0.1671,0.1419,0.1378,0.1189,0.0876,0.051,0.0206,0.0,0.0,0.0,0.0,0.0,0.0,0.0,0.0,0.0,0.0,0.0,0.0,0.0,0.0,0.0,0.0,0.0,0.0,0.0,0.0,0.0,0.0,0.0,0.0,0.0,0.0,0.0,0.0,-0.2081,-0.2407,-0.3303,0.0,0.0,0.0,0.0,0.0,0.0,0.0,0.0,0.0,0.0,-1.1904,-1.2469,-1.3082,0.0,0.0,-1.4679,-1.494,-1.4954,-1.4823,-1.4625,-1.4448,-1.4233,0.0,0.0,0.0,0.0,0.0,0.0,0.0,0.0,0.0,0.0,0.0,0.0,0.0,0.0,0.0,0.0,0.0,0.0,0.0,0.0,0.0,0.0,0.0,0.0,0.0,0.0,0.0,0.0,0.0,0.0,0.0,0.0,0.0,0.0,0.0,0.0,0.0,0.0,0.0,0.0,0.0,0.0,0.0,0.0,0.0,0.0,0.0,0.0,0.0,0.0,0.0,0.0,0.0774,0.118,0.1548,0.1636,0.1375,0.1348,0.1155,0.0861,0.0485,0.0244,0.0,0.0,0.0,0.0,0.0,0.0,0.0,0.0,0.0,0.0,0.0,0.0,0.0,0.0,0.0,0.0,0.0,0.0,0.0,0.0,0.0,0.0,0.0,0.0,0.0,0.0,0.0,0.0,-0.2296,-0.285,-0.4024,0.0,0.0,0.0,0.0,0.0,0.0,0.0,0.0,0.0,0.0,-1.2768,-1.3324,-1.3712,-1.4091,-1.4568,-1.5079,-1.5416,-1.5386,-1.5464,-1.5508,-1.5401,0.0,0.0,0.0,0.0,0.0,0.0,0.0,0.0,0.0,0.0,0.0,0.0,0.0,0.0,0.0,0.0,0.0,0.0,0.0,0.0,0.0,0.0,0.0,0.0,0.0,0.0,0.0,0.0,0.0,0.0,0.1074,0.0,0.0,0.0,0.0,0.0,0.0,0.0,0.0,0.0,0.0,0.0,0.0,0.0,0.0,0.0,0.0,0.0,0.0,0.0,0.0,0.0,0.0,0.0943,0.1214,0.1677,0.172,0.1332,0.1368,0.1157,0.0747,0.051,0.0286,0.0,0.0,0.0,0.0,0.0,0.0,0.0,0.0,0.0,0.0,0.0,0.0,0.0,0.0,0.0,0.0,0.0,0.0,0.0,0.0,0.0,0.0,0.0,0.0,0.0,0.0,0.0,-0.2422,-0.2816,-0.35,0.0,0.0,0.0,0.0,0.0,0.0,0.0,0.0,0.0,0.0,-1.3211,-1.3499,-1.3854,-1.425,-1.4656,-1.4954,-1.5792,-1.6344,-1.6288,-1.6918,-1.7432,0.0,0.0,0.0,0.0,0.0,0.0,0.0,0.0,0.0,0.0,0.0,0.0,0.0,0.0,0.0,0.0,0.0,0.0,0.0,0.0,0.0,0.0,0.0,0.0,0.0,0.0,0.0,0.1308,0.1239,0.0,0.0,0.0,0.0,0.0,0.0,0.0,0.0,0.0,0.0,0.0,0.3278,0.3212,0.0,0.0,0.0,0.0,0.0,0.0,0.0,0.0,0.0,0.0,0.0,0.0,0.1268,0.142,0.1706,0.179,0.1559,0.1436,0.1204,0.0709,0.0511,0.0286,0.0,0.0,0.0,0.0,0.0,0.0,0.0,0.0,0.0,0.0,0.0,0.0,0.0,0.0,0.0,0.0,0.0,0.0,0.0,0.0,0.0,0.0,0.0,0.0,0.0,0.0,-0.2984,0.0,0.0,0.0,0.0,0.0,0.0,0.0,0.0,0.0,0.0,0.0,-1.2254,-1.3335,-1.3698,-1.3984,-1.4316,-1.5403,-1.6112,0.0,0.0,0.0,0.0,0.0,0.0,0.0,0.0,0.0,0.0,0.0,0.0,0.0,0.0,-2.0702,-1.9421,-1.9268,-1.9269,-1.9109,0.0,0.0,0.0,0.0,0.0,0.0,0.0,0.0,0.0,0.0,0.0,0.0,0.0,0.0,0.0,0.0,0.1625,0.0,0.0,0.0,0.0,0.0,0.0,0.0,0.0,0.3043,0.3175,0.3245,0.3212,0.3142,0.0,0.2882,0.255,0.0,0.0,0.0,0.0,0.0,0.0,0.0,0.0,0.1487,0.1599,0.1873,0.1925,0.1806,0.1578,0.1248,0.0867,0.0448,0.0135,-0.0142,-0.0176,-0.0278,0.0,0.0,0.0,0.0,0.0,0.0,0.0,0.0,0.0,0.0,0.0,0.0,0.0,0.0,0.0,0.0,0.0,0.0,0.0,0.0,0.0,0.0,0.0,-0.326,0.0,0.0,0.0,0.0,0.0,0.0,0.0,0.0,0.0,-1.1302,-1.2038,-1.2966,-1.4165,-1.4554,-1.4947,-1.555,0.0,0.0,0.0,0.0,0.0,0.0,0.0,-1.8639,-1.8628,-1.9211,-1.9732,-1.99,-2.1515,-2.2723,-2.2512,0.0,0.0,-2.1225,-2.0834,-2.0659,-2.0429,-2.0131,-1.9759,-1.9379,-1.887,-1.8477,0.0,0.0,0.0,0.0,0.0,0.0,0.0,0.0,0.2106,0.2154,0.0,0.2151,0.0,0.0,0.0,0.0,0.0,0.2841,0.0,0.0,0.3175,0.3212,0.3179,0.3142,0.3109,0.3072,0.2882,0.2679,0.2474,0.2078,0.0,0.0,0.0,0.0,0.0,0.0,0.1595,0.1829,0.2078,0.2174,0.2021,0.1755,0.142,0.1062,0.0372,-0.012,-0.0395,-0.0289,-0.0293,-0.0497,-0.0563,0.0,0.0,0.0,0.0,0.0,0.0,0.0,0.0,0.0,0.0,0.0,0.0,0.0,0.0,0.0,0.0,0.0,0.0,0.0,0.0,-0.3201,0.0,0.0,0.0,0.0,0.0,0.0,0.0,0.0,0.0,0.0,-1.2502,-1.2756,-1.3554,-1.5318,0.0,0.0,0.0,0.0,-1.7874,-1.7922,-1.8679,-1.922,-1.9136,-1.9876,-2.0412,-2.0428,0.0,0.0,-2.2115,-2.3143,-2.3881,-2.3897,-2.3406,-2.2936,-2.2815,-2.2502,-2.2216,-2.1958,-2.1566,-2.1252,-2.0788,-1.9781,-1.9062,0.4768,0.0,0.0,0.0,0.0,0.2698,0.2615,0.267,0.2671,0.2683,0.2753,0.2832,0.0,0.0,0.0,0.0,0.0,0.0,0.3142,0.3175,0.3142,0.3142,0.3109,0.3006,0.294,0.2878,0.2852,0.2679,0.251,0.2377,0.2111,0.1713,0.0,0.0,0.0,0.0,0.208,0.2369,0.2452,0.244,0.2371,0.196,0.1377,0.0629,0.0067,-0.027,-0.0395,-0.0369,-0.0367,-0.0429,-0.0451,0.0,0.0,0.0,0.0,0.0,0.0,0.0,0.0,0.0,0.0,0.0,0.0,0.0,0.0,0.0,0.0,0.0,0.0,0.0,-0.3013,-0.3419,-0.404,0.0,0.0,0.0,0.0,0.0,0.0,0.0,0.0,0.0,-1.5119,-1.4999,-1.527,0.0,0.0,-1.725,-1.7689,-1.8347,-1.8808,-1.8814,-1.9548,0.0,0.0,-2.0783,-2.1327,-2.1324,-2.2103,-2.2604,-2.2259,-2.3329,-2.4189,-2.3966,-2.4335,-2.4623,-2.432,-2.3214,-2.2303,-2.1906,-2.1534,-2.1113,-2.066,-2.0204,-1.9886,0.5174,0.4222,0.3769,0.3409,0.3132,0.2958,0.2933,0.2975,0.3033,0.3096,0.3212,0.3331,0.3529,0.3727,0.3962,0.0,0.0,0.0,0.3629,0.3555,0.3384,0.3279,0.3208,0.306,0.2926,0.2839,0.2843,0.274,0.2577,0.2601,0.249,0.225,0.0,0.0,0.2033,0.2226,0.2475,0.2782,0.2839,0.2854,0.2743,0.201,0.1203,0.0354,-0.0103,-0.0372,-0.0527,-0.0439,-0.0409,-0.045,-0.0435,-0.0516,0.0,0.0,0.0,0.0,0.0,0.0,0.0,0.0,0.0,0.0,0.0,-0.4729,0.0,0.0,0.0,0.0,-0.3145,-0.2734,-0.2515,-0.3393,0.0,0.0,0.0,0.0,0.0,0.0,0.0,-1.3532,-1.4414,-1.549,-1.6991,-1.7003,-1.7122,-1.7766,-1.8051,-1.8351,-1.8809,0.0,-1.9725,-1.9745,-2.0465,-2.1021,-2.1033,-2.1678,-2.2326,-2.2695,-2.3182,-2.3606,-2.3638,-2.4325,-2.4752,-2.4607,-2.4923,-2.5197,-2.493,-2.3813,-2.2861,-2.2629,-2.2271,-2.183,-2.133,-2.091,-2.0594,0.5528,0.4721,0.4259,0.3823,0.342,0.3147,0.3076,0.3129,0.3181,0.3368,0.3538,0.3701,0.3983,0.4345,0.4553,0.0,0.4643,0.4509,0.43,0.408,0.3774,0.3509,0.3401,0.3197,0.3052,0.2927,0.2891,0.2856,0.273,0.2785,0.2815,0.2818,0.2689,0.2585,0.2517,0.2671,0.2897,0.3152,0.3293,0.326,0.3075,0.1975,0.1019,0.0275,-0.0107,-0.0392,-0.0678,-0.0555,-0.0467,-0.0512,-0.0451,-0.0499,-0.0726,0.0,0.0,0.0,0.0,0.0,0.0,0.0,0.0,0.0,0.0,0.0,0.0,0.0,0.0,0.0,-0.272,0.0,-0.1924,-0.332,0.0,0.0,0.0,-0.9304,-1.1187,-1.2539,-1.3781,-1.492,0.0,0.0,-1.8272,-1.8783,-1.8986,-1.8937,-1.9083,-1.9507,-2.0382,-2.0465,-2.0545,-2.0701,-2.1338,-2.1797,-2.1907,-2.2569,-2.3354,-2.4164,-2.4402,-2.4661,-2.5288,-2.5506,-2.5508,-2.5232,-2.5155,-2.4984,-2.4685,-2.4153,-2.3812,-2.3575,-2.3302,-2.2895,-2.2221,-2.151,-2.0943,0.5893,0.5303,0.499,0.4358,0.3619,0.3337,0.3323,0.3473,0.3507,0.3611,0.3825,0.4129,0.4647,0.5322,0.5254,0.5188,0.5177,0.4732,0.4428,0.4166,0.3774,0.3548,0.3401,0.3201,0.31,0.3073,0.3069,0.3015,0.3018,0.3015,0.3073,0.3201,0.3382,0.3412,0.3246,0.3324,0.3529,0.3862,0.3717,0.3342,0.2751,0.1891,0.1136,0.0432,0.0071,-0.0327,-0.0679,-0.0698,-0.0703,-0.0657,-0.0589,-0.0665,-0.0907,-0.1157,0.0,0.0,0.0,0.0,0.0,0.0,0.0,0.0,0.0,-0.4185,-0.3991,0.0,-0.3029,0.0,-0.2504,-0.2197,-0.1943,-0.4164,0.0,0.0,-1.0632,-1.127,-1.2873,-1.4029,-1.5378,-1.7046,-1.7709,-1.8429,-1.9399,-2.0298,-2.0627,-2.0031,-2.0053,-2.0204,-2.0469,-2.0544,-2.0898,-2.1697,-2.1874,-2.2029,-2.2742,-2.3407,-2.4216,-2.5072,-2.5245,-2.5379,-2.5576,-2.556,-2.5391,-2.5014,-2.4908,-2.47,-2.4261,-2.3773,-2.3239,-2.2735,-2.2513,-2.2272,-2.1665,-2.0879,-2.0335,0.6486,0.585,0.5462,0.4866,0.4092,0.383,0.3743,0.3775,0.3775,0.3911,0.4187,0.4747,0.5339,0.5914,0.595,0.582,0.5636,0.5254,0.4919,0.4554,0.4098,0.3816,0.3611,0.3406,0.329,0.3182,0.3182,0.3149,0.3127,0.3191,0.3336,0.3533,0.3953,0.4157,0.4201,0.4091,0.4131,0.4372,0.3999,0.3479,0.2771,0.2124,0.1333,0.047,0.0071,-0.0331,-0.0706,-0.078,-0.0819,-0.0819,-0.0825,-0.0927,-0.1163,-0.1474,-0.1861,0.0,0.0,0.0,0.0,0.0,0.0,0.0,0.0,0.0,0.0,0.0,-0.2562,-0.2302,-0.225,-0.2192,-0.2216,-0.4656,-0.8154,-1.2807,-1.2765,-1.3119,-1.4899,-1.6011,-1.709,-1.8188,-1.8873,-1.9592,-2.0531,-2.1204,-2.1593,-2.1512,-2.1783,-2.1915,-2.1704,-2.1695,-2.205,-2.2891,-2.3007,-2.3247,-2.4074,-2.4563,-2.4981,-2.5424,-2.5586,-2.5611,-2.5604,-2.5473,-2.5159,-2.4591,-2.4436,-2.4273,-2.3737,-2.3176,-2.2583,-2.1933,-2.1406,-2.1052,-2.0766,-2.0016,-1.9347,0.7044,0.6423,0.5913,0.5336,0.4703,0.4426,0.4207,0.4019,0.4019,0.4218,0.4561,0.5447,0.6028,0.6309,0.6573,0.6445,0.6072,0.5903,0.5551,0.507,0.4612,0.4244,0.3958,0.3739,0.3527,0.334,0.3336,0.3269,0.3185,0.3399,0.363,0.3865,0.4357,0.48,0.5116,0.4794,0.4703,0.4688,0.4155,0.3614,0.3008,0.2368,0.153,0.047,0.0,-0.037,-0.0773,-0.0833,-0.0904,-0.1057,-0.1116,-0.1273,-0.1503,-0.1911,-0.237,0.0,-0.2813,0.0,0.0,0.0,0.0,0.0,0.0,0.0,0.0,-0.2569,-0.2197,-0.1841,-0.2019,-0.2342,-0.2854,-0.5303,-0.9365,-1.5272,-1.4927,-1.4903,-1.6915,-1.8089,-1.8833,-1.9047,-1.9937,-2.0874,-2.1653,-2.1912,-2.2337,-2.2846,-2.3629,-2.392,-2.3527,-2.3274,-2.3375,-2.4101,-2.4404,-2.469,-2.5279,-2.5521,-2.5556,-2.5601,-2.5572,-2.5584,-2.5603,-2.5324,-2.4859,-2.4128,-2.3906,-2.3701,-2.3152,-2.2531,-2.1881,-2.1163,-2.0289,-1.9703,-1.9667,-1.9001,-1.8034,0.7146,0.6681,0.6328,0.585,0.5298,0.5026,0.4557,0.4019,0.4122,0.4565,0.5256,0.5844,0.6304,0.6693,0.6979,0.6907,0.6618,0.6382,0.6055,0.5625,0.5097,0.4681,0.4311,0.4033,0.3816,0.3541,0.3534,0.352,0.3493,0.3564,0.3746,0.4133,0.449,0.4873,0.5241,0.0,0.0,0.0,0.4097,0.3512,0.3001,0.228,0.145,0.0431,0.0,0.0,-0.0773,-0.0966,-0.1156,-0.1383,-0.153,0.0,0.0,0.0,0.0,0.0,0.0,0.0,0.0,0.0,0.0,0.0,-0.2699,-0.2513,-0.2508,-0.1967,-0.1559,-0.1436,-0.1982,-0.2916,-0.4266,-0.7186,-1.0666,-1.4597,-1.578,-1.682,-1.8345,-1.9433,-2.0324,-2.106,-2.1909,-2.2518,-2.2729,-2.334,-2.3593,-2.3299,-2.4409,-2.5252,-2.5174,-2.4387,-2.4245,-2.5144,-2.5303,-2.541,-2.558,-2.5604,-2.5597,-2.5597,-2.5505,-2.5492,-2.5536,-2.5069,-2.4398,-2.3521,-2.3349,-2.3129,-2.2505,-2.1893,-2.1209,-2.0387,-1.933,-1.8574,-1.8574,-1.7784,-1.678,0.7734,0.0,0.6905,0.6327,0.0,0.5366,0.4977,0.455,0.455,0.5072,0.5906,0.6417,0.6811,0.7142,0.7345,0.7273,0.696,0.6713,0.6374,0.5985,0.5545,0.5105,0.4726,0.439,0.4109,0.3893,0.377,0.3724,0.3788,0.377,0.399,0.4469,0.4801,0.519,0.5539,0.5692,0.5513,0.5014,0.4213,0.3515,0.2998,0.2366,0.149,0.047,0.0,0.0,0.0,0.0,0.0,0.0,0.0,0.0,0.0,0.0,0.0,-0.362,-0.3837,-0.3889,-0.3796,-0.3606,-0.3296,-0.2821,-0.2159,-0.1772,-0.1806,-0.1429,-0.1279,-0.1444,-0.2243,-0.3651,-0.5827,-0.855,-1.204,-1.6299,-1.7751,-1.8802,-2.0102,-2.1146,-2.191,-2.2304,-2.2752,-2.3134,-2.36,-2.3998,-2.4333,-2.4364,-2.5074,-2.5689,-2.5662,-2.5214,-2.5092,-2.5611,-2.5668,-2.5655,-2.5642,-2.5605,-2.5583,-2.5499,-2.5356,-2.5302,-2.5384,-2.4776,-2.3912,-2.2958,-2.2676,-2.2452,-2.1778,-2.1101,-2.032,-1.9381,-1.8307,-1.7289,-1.6741,-1.612,-1.546,0.8302,0.7877,0.7348,0.6701,0.5996,0.5513,0.5293,0.5234,0.0,0.0,0.0,0.6977,0.7342,0.756,0.7719,0.7603,0.7346,0.7095,0.6745,0.6404,0.6052,0.5634,0.5259,0.4861,0.4492,0.4267,0.399,0.3894,0.4009,0.399,0.4221,0.4696,0.5076,0.5434,0.5837,0.585,0.5555,0.5066,0.4257,0.3556,0.2975,0.2375,0.1503,0.0432,-0.0215,-0.0682,-0.0956,-0.1161,-0.1541,-0.2036,-0.2352,-0.278,-0.3249,-0.3709,-0.4067,-0.4394,-0.4603,-0.4618,-0.4382,-0.3997,-0.3483,-0.2818,-0.1975,-0.1396,-0.1204,-0.112,-0.1271,-0.1738,-0.2816,-0.4598,-0.7281,-1.0081,-1.3634,-1.8449,-1.9753,-2.0772,-2.1823,-2.2773,-2.3287,-2.3325,-2.3419,-2.3698,-2.4405,-2.4515,-2.4741,-2.5396,-2.557,-2.5696,-2.5689,-2.5643,-2.5604,-2.5675,-2.5685,-2.5703,-2.5676,-2.5586,-2.5527,-2.5362,-2.5136,-2.5023,-2.4955,-2.4319,-2.3316,-2.2177,-2.1958,-2.1611,-2.0975,-2.0184,-1.9317,-1.831,-1.7193,-1.6059,-1.4891,-1.4356,-1.3882,0.8203,0.7871,0.7348,0.6756,0.6154,0.5727,0.5618,0.5719,0.5932,0.6322,0.6874,0.7402,0.7706,0.7841,0.8159,0.8193,0.8057,0.7729,0.7459,0.0,0.677,0.6297,0.5873,0.5401,0.4954,0.4473,0.4246,0.4101,0.4016,0.3999,0.4228,0.4699,0.4976,0.5492,0.605,0.5905,0.555,0.5121,0.4202,0.3412,0.278,0.2146,0.1388,0.0432,-0.0372,-0.0902,-0.1227,-0.1512,-0.1979,-0.2703,-0.297,-0.3365,-0.4002,-0.4544,-0.4923,-0.5215,-0.5628,-0.56,-0.5017,-0.4659,-0.3957,-0.2841,-0.237,-0.1888,-0.1261,-0.128,-0.1667,-0.2501,-0.4138,-0.6116,-0.8694,-1.2458,-1.5833,-1.8462,-2.0842,-2.2449,-2.2871,-2.3669,-2.4207,-2.4144,-2.4754,-2.5092,-2.5207,-2.527,-2.5291,-2.5473,-2.5591,-2.5636,-2.567,-2.5702,-2.5703,-2.5702,-2.5703,-2.5683,-2.5599,-2.5492,-2.5321,-2.5181,-2.4812,-2.4588,-2.4654,-2.3721,-2.2611,-2.1427,-2.1193,-2.083,-2.0108,-1.9236,-1.8394,-1.7393,-1.6194,-1.4971,-1.3962,-1.288,-1.1913,0.8256,0.7777,0.7295,0.6756,0.6154,0.5837,0.5837,0.6046,0.648,0.6923,0.7252,0.7628,0.7996,0.8262,0.8368,0.8421,0.8421,0.8156,0.7996,0.7842,0.7408,0.702,0.6559,0.5965,0.5386,0.4935,0.4536,0.434,0.4246,0.413,0.432,0.4839,0.528,0.5649,0.595,0.585,0.5486,0.4895,0.41,0.3355,0.2616,0.2065,0.129,0.0204,-0.0624,-0.1215,-0.1556,-0.1895,-0.2403,-0.319,-0.3505,-0.4021,-0.476,-0.5299,-0.5767,-0.6094,-0.6399,-0.632,-0.571,-0.5046,-0.4372,-0.3678,-0.3538,-0.3646,-0.3903,-0.3236,-0.334,-0.4677,-0.6429,-0.8813,-1.1827,-1.4912,-1.7683,-2.014,-2.2271,-2.3539,-2.3804,-2.4518,-2.4996,-2.4955,-2.5197,-2.5453,-2.544,-2.544,-2.5464,-2.5505,-2.559,-2.5658,-2.5687,-2.5703,-2.5683,-2.5697,-2.5672,-2.559,-2.5496,-2.526,-2.5039,-2.4772,-2.4326,-2.408,-2.4024,-2.3107,-2.2113,-2.1417,-2.0949,-2.0476,-1.9895,-1.899,-1.7926,-1.6901,-1.5643,-1.445,-1.3396,-1.1878,-1.0637,0.815,0.7616,0.7187,0.6647,0.6046,0.5791,0.5896,0.6213,0.681,0.7246,0.7574,0.7895,0.8215,0.8573,0.8527,0.8533,0.8626,0.8521,0.8368,0.8268,0.7889,0.7515,0.7133,0.6436,0.5837,0.532,0.4824,0.4567,0.4494,0.4348,0.4513,0.4944,0.5458,0.574,0.5791,0.574,0.5337,0.4691,0.3966,0.3243,0.2485,0.1894,0.106,0.0042,-0.0936,-0.1595,-0.1948,-0.2305,-0.2905,-0.3688,-0.4091,-0.4649,-0.5459,-0.5983,-0.647,-0.6848,-0.7108,-0.6914,-0.6219,-0.5347,-0.4796,-0.4829,-0.507,-0.5837,-0.7098,-0.6734,-0.6601,-0.7686,-0.9603,-1.2127,-1.5133,-1.753,-1.9751,-2.2085,-2.3624,-2.4485,-2.4649,-2.5187,-2.5531,-2.5426,-2.5395,-2.5379,-2.538,-2.538,-2.5395,-2.5498,-2.5595,-2.5671,-2.5687,-2.5671,-2.5634,-2.5554,-2.5541,-2.5465,-2.5313,-2.4989,-2.464,-2.4253,-2.3724,-2.3468,-2.3292,-2.2542,-2.1629,-2.1092,-2.0603,-1.9964,-1.9535,-1.8428,-1.7219,-1.6185,-1.4924,-1.3738,-1.2517,-1.1115,-0.974,0.7949,0.7467,0.6972,0.6322,0.5673,0.5462,0.5622,0.6055,0.6657,0.7192,0.7676,0.8156,0.8421,0.8626,0.8692,0.8752,0.8752,0.8633,0.8573,0.8527,0.8109,0.7741,0.743,0.6717,0.6109,0.5567,0.5097,0.471,0.4515,0.4498,0.4666,0.5069,0.5242,0.5517,0.574,0.5521,0.5067,0.4527,0.3817,0.3061,0.2305,0.1339,0.0524,-0.0084,-0.1171,-0.1961,-0.2457,-0.2912,-0.3598,-0.4401,-0.4766,-0.5276,-0.6,-0.6586,-0.7047,-0.7301,-0.7681,-0.743,-0.6277,-0.5465,-0.5398,-0.6098,-0.6988,-0.8483,-1.0698,-1.2255,-1.2494,-1.2006,-1.3657,-1.5936,-1.8073,-2.046,-2.2267,-2.3403,-2.4608,-2.5429,-2.5418,-2.5504,-2.548,-2.5397,-2.5351,-2.5302,-2.5302,-2.5322,-2.5359,-2.5485,-2.5562,-2.5625,-2.5678,-2.5568,-2.5367,-2.5182,-2.5185,-2.5187,-2.4973,-2.4606,-2.4171,-2.366,-2.3047,-2.2781,-2.2622,-2.2037,-2.1126,-2.051,-1.9793,-1.931,-1.8312,-1.7098,-1.6065,-1.5175,-1.394,-1.2564,-1.1027,-1.0107,-0.9432,0.7842,0.7246,0.6707,0.6055,0.5344,0.5297,0.5513,0.5941,0.6603,0.7198,0.7729,0.8203,0.8533,0.8745,0.8752,0.8804,0.8804,0.8752,0.8692,0.8712,0.854,0.8294,0.7903,0.7123,0.6449,0.5884,0.5227,0.4736,0.457,0.4574,0.4688,0.4853,0.5073,0.5238,0.5234,0.5238,0.49,0.4312,0.3711,0.2939,0.2002,0.095,0.0044,-0.0743,-0.1832,-0.2659,-0.3129,-0.3605,-0.4234,-0.4947,-0.5402,-0.5853,-0.6435,-0.7004,-0.7378,-0.7569,-0.7595,-0.7184,-0.6151,-0.6006,-0.6413,-0.7478,-0.9071,-1.1046,-1.3556,-1.588,-1.7254,-1.7642,-1.7904,-1.8886,-2.084,-2.2412,-2.3678,-2.4637,-2.5249,-2.5512,-2.5466,-2.541,-2.5351,-2.5243,-2.5239,-2.5256,-2.5239,-2.5283,-2.533,-2.543,-2.5538,-2.568,-2.5628,-2.5449,-2.5109,-2.4766,-2.4972,-2.5028,-2.4595,-2.4079,-2.3735,-2.3407,-2.288,-2.246,-2.1999,-2.1574,-2.0818,-2.0161,-1.9394,-1.8679,-1.8052,-1.6791,-1.5636,-1.4505,-1.3145,-1.1814,-1.0443,-0.9748,-0.9032,0.7729,0.7031,0.6381,0.5727,0.5187,0.5187,0.5458,0.5941,0.6603,0.7192,0.7723,0.8209,0.8586,0.8798,0.8804,0.8844,0.8918,0.8925,0.8918,0.8949,0.8925,0.867,0.8228,0.7417,0.6692,0.6054,0.5313,0.4834,0.4525,0.4577,0.4688,0.4743,0.4908,0.4959,0.4901,0.4956,0.4714,0.4092,0.3516,0.2657,0.1546,0.0422,-0.0503,-0.1346,-0.2488,-0.3347,-0.3884,-0.4504,-0.504,-0.5588,-0.6032,-0.6428,-0.6774,-0.7264,-0.7524,-0.7449,-0.7096,-0.6522,-0.5712,-0.6107,-0.7104,-0.876,-1.0927,-1.3486,-1.6283,-1.8855,-2.0899,-2.21,-2.1675,-2.1875,-2.312,-2.3916,-2.4607,-2.5395,-2.5476,-2.5443,-2.536,-2.5283,-2.5212,-2.5103,-2.5149,-2.516,-2.5252,-2.5512,-2.5832,-2.5783,-2.6116,-2.6125,-2.5957,-2.581,-2.5614,-2.5058,-2.5264,-2.5034,-2.439,-2.406,-2.3667,-2.3219,-2.2752,-2.2058,-2.147,-2.098,-2.0156,-1.9212,-1.8598,-1.7763,-1.6863,-1.591,-1.4828,-1.3742,-1.2411,-1.1141,-1.0082,-0.9426,-0.8554,0.761,0.6918,0.5828,0.534,0.5301,0.5183,0.5454,0.6055,0.6657,0.7198,0.7723,0.8209,0.8639,0.8976,0.8884,0.8958,0.913,0.9218,0.9246,0.9285,0.9111,0.8721,0.8204,0.7423,0.667,0.5947,0.5427,0.4933,0.4525,0.4519,0.4574,0.4691,0.4743,0.4794,0.4846,0.4739,0.4446,0.3844,0.3171,0.2234,0.0905,-0.0349,-0.1202,-0.1724,-0.2871,-0.3954,-0.4638,-0.556,-0.6148,-0.6341,-0.676,-0.6982,-0.7016,-0.7352,-0.7328,-0.683,-0.6016,-0.53,-0.4861,-0.542,-0.7044,-0.9655,-1.252,-1.5697,-1.9108,-2.134,-2.2998,-2.4283,-2.4532,-2.4794,-2.4911,-2.5035,-2.5244,-2.5416,-2.544,-2.5328,-2.5216,-2.513,-2.5072,-2.5038,-2.5133,-2.5316,-2.5329,-2.622,-2.6568,-2.6721,-2.7481,-2.7831,-2.6842,-2.6811,-2.6679,-2.6318,-2.5873,-2.529,-2.4575,-2.4086,-2.3836,-2.3373,-2.2566,-2.1747,-2.1092,-2.0329,-1.9287,-1.8263,-1.7436,-1.6543,-1.5561,-1.4455,-1.333,-1.232,-1.1461,-1.0349,-0.9668,-0.8965,-0.817,0.7235,0.6327,0.5618,0.5297,0.5301,0.5403,0.5668,0.6154,0.6858,0.7396,0.7877,0.8309,0.8738,0.9133,0.9085,0.9138,0.9301,0.9432,0.9464,0.9408,0.9285,0.8944,0.8393,0.7721,0.7007,0.6293,0.5545,0.4955,0.4532,0.4463,0.4519,0.4574,0.4574,0.4574,0.4625,0.4467,0.4161,0.3778,0.3067,0.2056,0.0832,-0.0457,-0.168,-0.2798,-0.38,-0.4749,-0.5677,-0.6398,-0.6913,-0.7267,-0.7589,-0.7669,-0.7432,-0.6777,-0.5881,-0.482,-0.3614,-0.2909,-0.3082,-0.4349,-0.7016,-1.1086,-1.4225,-1.7748,-2.137,-2.3581,-2.5082,-2.6097,-2.6484,-2.6588,-2.6314,-2.5811,-2.5324,-2.5266,-2.5192,-2.5137,-2.4979,-2.4923,-2.4888,-2.496,-2.5375,-2.5988,-2.6441,-2.6753,-2.6899,-2.7166,-2.775,-2.7856,-2.7428,-2.7006,-2.6645,-2.6217,-2.5835,-2.5343,-2.4519,-2.3912,-2.3503,-2.3069,-2.2405,-2.1557,-2.0818,-1.9597,-1.8473,-1.7095,-1.6238,-1.5206,-1.4168,-1.321,-1.2027,-1.1406,-1.0485,-0.9779,-0.921,-0.8425,-0.7614,0.6864,0.6,0.5567,0.5407,0.5462,0.5673,0.605,0.6534,0.7128,0.7664,0.8103,0.8564,0.8943,0.9259,0.9439,0.9576,0.964,0.9791,0.9755,0.9674,0.9568,0.927,0.8709,0.8012,0.7273,0.6528,0.5604,0.4955,0.4591,0.4574,0.4574,0.4519,0.4463,0.4463,0.4463,0.4301,0.4027,0.3613,0.3061,0.2056,0.0645,-0.079,-0.2232,-0.3785,-0.486,-0.5743,-0.6662,-0.7328,-0.7828,-0.8141,-0.8358,-0.8049,-0.7085,-0.5496,-0.4291,-0.3447,-0.0753,0.0714,0.0,-0.2555,-0.6352,-1.0899,-1.5792,-2.0114,-2.3484,-2.5167,-2.6329,-2.7028,-2.7171,-2.7062,-2.674,-2.6022,-2.5562,-2.5638,-2.5634,-2.5556,-2.5483,-2.5512,-2.5549,-2.5694,-2.6133,-2.6737,-2.7285,-2.7327,-2.7468,-2.7752,-2.8145,-2.8311,-2.8016,-2.7408,-2.6664,-2.6196,-2.5839,-2.5261,-2.4406,-2.3632,-2.3134,-2.2679,-2.17,-2.098,-1.9935,-1.8694,-1.7346,-1.6028,-1.4838,-1.3811,-1.281,-1.1849,-1.117,-1.0611,-0.9913,-0.921,-0.856,-0.7782,-0.7057,0.645,0.6023,0.5736,0.569,0.585,0.6109,0.6539,0.7079,0.7509,0.8002,0.8451,0.8825,0.9183,0.9498,0.9872,1.0127,1.0134,1.0107,1.0124,1.0216,0.9945,0.9506,0.8918,0.827,0.7433,0.6612,0.5672,0.5019,0.4698,0.4688,0.4632,0.4519,0.4463,0.4463,0.4463,0.4245,0.3916,0.3411,0.3012,0.1952,0.0112,-0.1384,-0.2868,-0.458,-0.5932,-0.6895,-0.745,-0.8433,-0.893,-0.8992,-0.9019,-0.7954,-0.5636,-0.3206,-0.2336,-0.1889,0.2397,0.5273,0.4498,-0.0168,-0.4702,-0.9733,-1.6733,-2.1973,-2.4288,-2.5856,-2.6682,-2.6822,-2.6673,-2.6403,-2.622,-2.6093,-2.6195,-2.6728,-2.6523,-2.6488,-2.6637,-2.6805,-2.6916,-2.695,-2.7078,-2.7148,-2.746,-2.7932,-2.8311,-2.8445,-2.8782,-2.895,-2.853,-2.7944,-2.7472,-2.6759,-2.5879,-2.4944,-2.4116,-2.3316,-2.2819,-2.2221,-2.1023,-1.9989,-1.8653,-1.7379,-1.5847,-1.4436,-1.3245,-1.2258,-1.1703,-1.0856,-1.0478,-0.9913,-0.9274,-0.863,-0.7977,-0.7326,-0.6671,0.6735,0.6219,0.6149,0.6123,0.6232,0.6549,0.7031,0.7563,0.7895,0.8375,0.8934,0.9095,0.9459,0.9982,1.0107,1.0227,1.0463,1.0483,1.0481,1.0441,1.006,0.9542,0.9017,0.8431,0.7526,0.6424,0.5796,0.5231,0.4786,0.4688,0.4632,0.4519,0.4463,0.4463,0.446,0.4132,0.3685,0.3188,0.2406,0.1286,-0.0279,-0.1726,-0.3279,-0.4937,-0.6362,-0.7576,-0.8602,-0.9254,-0.9636,-0.9828,-0.9563,-0.7665,-0.3637,0.0649,0.2439,0.2258,0.7399,0.9473,0.6629,0.2361,-0.3495,-1.0176,-1.6506,-2.1258,-2.478,-2.5907,-2.6561,-2.698,-2.6942,-2.6739,-2.6643,-2.6656,-2.6534,-2.6245,-2.622,-2.6326,-2.6435,-2.6487,-2.6838,-2.7465,-2.7636,-2.7937,-2.8462,-2.8909,-2.8831,-2.8827,-2.9027,-2.8978,-2.8438,-2.7809,-2.7089,-2.6336,-2.5405,-2.4337,-2.3243,-2.1963,-2.0933,-2.0437,-1.9533,-1.8732,-1.7435,-1.5736,-1.4209,-1.2959,-1.1764,-1.0975,-1.0478,-1.004,-0.9722,-0.9274,-0.8753,-0.8107,-0.7461,-0.6872,-0.6214,0.7062,0.6595,0.6558,0.668,0.6879,0.7133,0.7515,0.8008,0.8435,0.8915,0.9363,0.9649,0.9935,1.0335,1.035,1.0443,1.0611,1.0618,1.0568,1.0518,1.0123,0.967,0.9192,0.8398,0.7616,0.6639,0.6049,0.5517,0.4923,0.4794,0.4684,0.4577,0.4519,0.4463,0.4353,0.4018,0.3574,0.3074,0.19,0.0614,-0.0837,-0.2561,-0.4168,-0.5433,-0.6789,-0.8078,-0.919,-0.9607,-0.9925,-0.9725,-0.8352,-0.4908,-0.0299,0.439,0.7221,0.8458,1.1249,1.2829,0.9008,0.4072,-0.1651,-0.9016,-1.5311,-2.0118,-2.3458,-2.4742,-2.5594,-2.6042,-2.6114,-2.6152,-2.6201,-2.6387,-2.6262,-2.5941,-2.6311,-2.6481,-2.6595,-2.6767,-2.7163,-2.7791,-2.8036,-2.8466,-2.8891,-2.9056,-2.8989,-2.8962,-2.884,-2.8575,-2.7954,-2.7278,-2.6505,-2.5595,-2.4538,-2.3387,-2.2126,-2.0669,-1.9074,-1.8437,-1.7841,-1.7177,-1.6325,-1.4145,-1.2366,-1.137,-1.0281,-1.0028,-0.953,-0.9332,-0.9011,-0.856,-0.8172,-0.7521,-0.6868,-0.6412,-0.5885,0.7355,0.7141,0.7128,0.738,0.7723,0.7796,0.8105,0.8543,0.9042,0.941,0.9728,1.0244,1.0523,1.0512,1.0657,1.0654,1.0624,1.0618,1.0618,1.0498,1.018,0.9926,0.9518,0.8548,0.7685,0.7086,0.6469,0.5875,0.5305,0.5069,0.4849,0.4691,0.4574,0.4408,0.419,0.391,0.3519,0.285,0.1396,-0.0,-0.1285,-0.3566,-0.5234,-0.5977,-0.7171,-0.8296,-0.9033,-0.8833,-0.9027,-0.8982,-0.4896,-0.0341,0.4096,0.8325,1.2198,1.3464,1.5596,1.4101,1.0567,0.5096,-0.0567,-0.5995,-1.322,-1.9279,-2.1042,-2.2514,-2.3481,-2.3998,-2.4375,-2.4713,-2.5028,-2.5502,-2.5787,-2.602,-2.6707,-2.7217,-2.756,-2.7736,-2.7837,-2.804,-2.8308,-2.8525,-2.8707,-2.87,-2.8694,-2.8619,-2.8414,-2.8,-2.7374,-2.6672,-2.576,-2.4729,-2.3643,-2.2073,-2.0669,-1.8706,-1.7093,-1.5761,-1.5283,-1.4843,-1.4339,-1.2343,-1.0752,-0.9755,-0.9204,-0.8952,-0.8694,-0.8495,-0.8231,-0.7912,-0.7391,-0.6802,-0.6408,-0.6017,-0.562,0.797,0.7752,0.8116,0.8283,0.8404,0.854,0.8922,0.9345,0.9519,0.9969,1.0418,1.0573,1.0737,1.0878,1.0822,1.0744,1.0618,1.0618,1.0618,1.0561,1.0371,0.9919,0.9418,0.864,0.796,0.7418,0.6837,0.6192,0.5525,0.5293,0.5018,0.4691,0.4688,0.4467,0.4079,0.3577,0.2907,0.2125,0.0782,-0.067,-0.2063,-0.3779,-0.5214,-0.615,-0.7283,-0.7966,-0.8081,-0.5817,-0.4738,-0.4813,-0.0142,0.443,0.8533,1.4405,1.6946,1.5507,1.6057,1.4508,0.9334,0.5293,0.0823,-0.4492,-1.0495,-1.5314,-1.8393,-1.9867,-2.0937,-2.1784,-2.2658,-2.3611,-2.4496,-2.5259,-2.5948,-2.692,-2.7354,-2.7555,-2.7674,-2.7889,-2.7959,-2.7729,-2.7893,-2.8182,-2.8335,-2.8414,-2.8388,-2.8291,-2.801,-2.7619,-2.695,-2.5876,-2.49,-2.3743,-2.2494,-2.0748,-1.8922,-1.6896,-1.5012,-1.3271,-1.2477,-1.1973,-1.1373,-1.0192,-0.9046,-0.8156,-0.8172,-0.7987,-0.7852,-0.7652,-0.7391,-0.7195,-0.6802,-0.6412,-0.6148,-0.5822,-0.5491,0.8617,0.8474,0.8753,0.8986,0.9135,0.9258,0.9499,0.9822,1.0172,1.0481,1.0905,1.1049,1.1069,1.1122,1.0996,1.0807,1.0618,1.0618,1.0618,1.0561,1.0364,0.9977,0.9393,0.8857,0.8295,0.775,0.712,0.6507,0.5964,0.5677,0.5344,0.4963,0.4802,0.4467,0.4021,0.3524,0.2627,0.1453,0.0112,-0.1283,-0.3012,-0.433,-0.532,-0.6258,-0.7004,-0.6929,-0.4884,-0.1356,0.0233,0.064,0.4246,0.8714,1.2562,1.6996,1.8585,1.6079,1.6416,1.401,0.8905,0.5587,0.1892,-0.2982,-0.7837,-1.1529,-1.4788,-1.6861,-1.8434,-2.036,-2.1621,-2.2999,-2.4364,-2.5378,-2.6479,-2.7498,-2.7891,-2.7932,-2.7864,-2.8142,-2.8083,-2.7887,-2.7962,-2.8076,-2.8134,-2.8136,-2.8136,-2.8007,-2.7695,-2.7192,-2.6505,-2.5236,-2.3853,-2.2615,-2.0928,-1.8978,-1.6819,-1.4725,-1.2786,-1.1036,-1.0046,-0.9486,-0.8961,-0.8218,-0.7741,-0.7227,-0.7152,-0.7148,-0.7025,-0.6889,-0.6736,-0.6539,-0.6214,-0.6017,-0.5818,-0.569,-0.5359,0.9145,0.9256,0.9208,0.9481,0.9823,0.9834,0.9944,1.0186,1.0833,1.1076,1.1209,1.1559,1.1461,1.1115,1.1122,1.094,1.0618,1.0618,1.0618,1.0555,1.0408,1.0114,0.9665,0.91,0.8621,0.8142,0.7345,0.6846,0.644,0.605,0.5668,0.5238,0.4908,0.4467,0.3855,0.3524,0.246,0.0894,-0.0447,-0.2009,-0.3738,-0.4944,-0.5655,-0.5914,-0.4949,-0.3227,0.0047,0.3486,0.5503,0.5072,0.8726,1.2321,1.5894,1.698,1.675,1.5899,1.4865,1.2548,0.8584,0.5502,0.2559,-0.1891,-0.5329,-0.8433,-1.1797,-1.4408,-1.6869,-1.951,-2.1121,-2.2934,-2.4844,-2.6061,-2.7174,-2.8196,-2.8565,-2.864,-2.8507,-2.8572,-2.8592,-2.8288,-2.852,-2.8307,-2.8117,-2.7917,-2.7957,-2.7777,-2.7396,-2.6756,-2.5848,-2.4563,-2.2946,-2.1272,-1.9309,-1.7047,-1.4811,-1.2478,-1.0594,-0.8812,-0.7942,-0.7359,-0.7131,-0.6625,-0.6455,-0.6313,-0.6487,-0.6467,-0.6293,-0.6207,-0.6102,-0.6017,-0.5752,-0.5683,-0.555,-0.5557,-0.5292,0.9145,0.9075,0.9597,0.9895,1.0014,1.0388,1.0726,1.1027,1.1345,1.1613,1.1774,1.1841,1.1615,1.124,1.1122,1.0933,1.0688,1.0624,1.0618,1.0555,1.0555,1.0325,0.9925,0.9394,0.8943,0.8522,0.7874,0.7257,0.682,0.6436,0.5941,0.534,0.4956,0.4408,0.3635,0.274,0.1677,0.0168,-0.1228,-0.2676,-0.4012,-0.5113,-0.5467,-0.4908,-0.1947,0.1531,0.4938,0.873,1.1614,1.3387,1.4287,1.5236,1.6409,1.6766,1.5909,1.4067,1.2077,0.9778,0.6865,0.4397,0.1803,-0.1245,-0.4257,-0.7141,-1.0325,-1.3186,-1.5931,-1.8619,-2.0845,-2.327,-2.5964,-2.7471,-2.837,-2.9042,-2.9572,-2.9972,-3.0139,-2.9766,-2.9445,-2.9144,-2.8833,-2.8592,-2.8631,-2.8247,-2.8012,-2.7609,-2.7053,-2.6386,-2.526,-2.3998,-2.1992,-2.0105,-1.7345,-1.4964,-1.2371,-1.018,-0.838,-0.7176,-0.641,-0.6033,-0.5748,-0.5674,-0.5744,-0.5849,-0.5949,-0.5841,-0.5709,-0.549,-0.5386,-0.5306,-0.5359,-0.5372,-0.5379,-0.5376,-0.5189,0.9338,0.9408,0.9798,1.0174,1.0428,1.0807,1.124,1.1553,1.1926,1.212,1.212,1.2058,1.1802,1.1435,1.1247,1.1059,1.0996,1.0933,1.087,1.0807,1.0737,1.0519,1.0174,0.9702,0.9273,0.8871,0.8257,0.7693,0.73,0.6869,0.6381,0.5609,0.5058,0.4512,0.3577,0.2235,0.0894,-0.0558,-0.2287,-0.3683,-0.4453,-0.4995,-0.3564,-0.1203,0.2652,0.6466,1.0126,1.3054,1.5261,1.6432,1.6612,1.6558,1.6517,1.5914,1.4337,1.2326,1.0355,0.8257,0.6017,0.362,0.1248,-0.1065,-0.3774,-0.6934,-0.9974,-1.2939,-1.6032,-1.9074,-2.1587,-2.387,-2.6972,-2.845,-2.9284,-2.9848,-3.0377,-3.0868,-3.1138,-3.0887,-3.0469,-3.0196,-2.9968,-2.97,-2.9439,-2.8895,-2.8624,-2.8468,-2.7509,-2.6738,-2.5122,-2.3601,-2.0951,-1.8539,-1.5576,-1.2766,-1.0055,-0.7894,-0.6062,-0.5396,-0.5294,-0.5295,-0.5368,-0.5319,-0.5282,-0.5422,-0.5603,-0.5297,-0.5095,-0.4881,-0.4809,-0.4909,-0.497,-0.5062,-0.5218,-0.5363,-0.5116,0.9352,0.9611,0.98,1.0233,1.067,1.1015,1.1468,1.1897,1.235,1.2411,1.2421,1.2367,1.2058,1.1747,1.156,1.1428,1.1365,1.1358,1.1288,1.1064,1.0809,1.0567,1.0239,0.9771,0.9359,0.9004,0.8508,0.8062,0.7616,0.7295,0.6593,0.5887,0.5003,0.4177,0.3403,0.1842,0.0056,-0.1282,-0.3125,-0.4353,-0.444,-0.4344,-0.165,0.3463,0.7616,1.1017,1.409,1.6191,1.7326,1.7189,1.6608,1.6271,1.5676,1.4508,1.269,1.0865,0.9421,0.7788,0.5743,0.3346,0.0931,-0.113,-0.4216,-0.7418,-1.067,-1.3753,-1.7013,-2.0177,-2.3002,-2.5334,-2.7674,-2.9106,-2.994,-3.0517,-3.0993,-3.149,-3.1841,-3.1877,-3.1568,-3.1255,-3.0884,-3.0545,-3.0182,-2.9732,-2.9522,-2.9089,-2.8053,-2.683,-2.5146,-2.2641,-1.9694,-1.6585,-1.3454,-0.9951,-0.7159,-0.5976,-0.4126,-0.4026,-0.4103,-0.4515,-0.4774,-0.472,-0.4717,-0.5087,-0.514,-0.4845,-0.4545,-0.4333,-0.4267,-0.4473,-0.4681,-0.4872,-0.5089,-0.5355,-0.5061,0.8699,0.8759,0.9294,0.9702,1.0055,1.0632,1.1328,1.1905,1.2174,1.2522,1.2826,1.2621,1.2375,1.2065,1.1996,1.1926,1.1826,1.1705,1.147,1.1127,1.0781,1.0446,0.9973,0.9563,0.9236,0.9068,0.8676,0.8209,0.7777,0.7343,0.6642,0.5668,0.4787,0.3843,0.2339,0.0725,-0.078,-0.2171,-0.3566,-0.4343,-0.4036,-0.2089,0.1609,0.7675,1.2053,1.5003,1.6668,1.7567,1.7517,1.6676,1.5105,1.384,1.3086,1.2245,1.1259,1.0147,0.8879,0.7407,0.5535,0.3243,0.0597,-0.2241,-0.5549,-0.9004,-1.2305,-1.5335,-1.8643,-2.2062,-2.5257,-2.7748,-2.8577,-2.9845,-3.0687,-3.127,-3.1735,-3.2179,-3.247,-3.2519,-3.2435,-3.2068,-3.1646,-3.1245,-3.08,-3.0266,-2.9751,-2.8826,-2.7519,-2.6181,-2.4595,-2.1322,-1.7662,-1.4432,-1.1089,-0.7518,-0.4092,-0.3455,-0.2549,-0.2935,-0.3125,-0.3697,-0.3951,-0.3973,-0.4183,-0.4268,-0.4363,-0.4232,-0.3935,-0.3712,-0.3802,-0.3971,-0.4327,-0.4691,-0.5017,-0.5268,-0.5213,0.8622,0.8909,0.9376,0.9897,1.0351,1.0872,1.1469,1.2036,1.2398,1.2705,1.2829,1.2821,1.2744,1.256,1.249,1.2403,1.2213,1.1949,1.1557,1.1178,1.0741,1.0307,0.9812,0.939,0.9084,0.8849,0.8585,0.8315,0.7949,0.7348,0.6529,0.5609,0.4736,0.3403,0.1505,-0.0111,-0.1671,-0.3121,-0.3785,-0.358,-0.2389,0.1142,0.7072,1.1985,1.5388,1.7545,1.8088,1.7772,1.6757,1.5263,1.3644,1.2427,1.1571,1.0916,1.0362,0.9656,0.867,0.7163,0.5176,0.2652,-0.033,-0.3848,-0.7293,-1.0916,-1.4363,-1.7521,-2.0862,-2.4453,-2.7084,-2.9134,-2.937,-3.0572,-3.1528,-3.216,-3.2474,-3.2654,-3.2802,-3.2884,-3.2737,-3.2504,-3.2087,-3.1672,-3.1428,-3.0788,-3.0007,-2.8699,-2.7088,-2.5401,-2.3821,-1.9895,-1.5735,-1.192,-0.8695,-0.564,-0.2756,-0.2113,-0.1609,-0.1848,-0.2243,-0.2812,-0.3137,-0.3215,-0.3057,-0.3032,-0.3151,-0.334,-0.3298,-0.3018,-0.3268,-0.3511,-0.387,-0.4244,-0.4893,-0.5164,-0.5167,0.8691,0.9137,0.9593,1.0108,1.0725,1.1178,1.1707,1.221,1.2577,1.2806,1.2952,1.289,1.2897,1.2862,1.2821,1.2696,1.2464,1.2197,1.1792,1.1232,1.0696,1.0205,0.9652,0.9282,0.891,0.8598,0.8275,0.8156,0.7783,0.7182,0.6249,0.5164,0.4463,0.3014,0.0893,-0.0725,-0.251,-0.34,-0.3432,-0.2271,0.1642,0.7086,1.247,1.6372,1.7983,1.8482,1.8212,1.7055,1.5647,1.4081,1.2668,1.1586,1.1045,1.0301,0.9856,0.9524,0.8683,0.6963,0.4364,0.1382,-0.2023,-0.5867,-0.9524,-1.3197,-1.7082,-2.0605,-2.3937,-2.7297,-2.9211,-3.0096,-3.0251,-3.1281,-3.2249,-3.282,-3.2962,-3.2948,-3.2916,-3.2834,-3.2504,-3.2317,-3.2214,-3.1649,-3.0993,-3.0349,-2.9367,-2.8482,-2.6865,-2.3705,-2.1741,-1.7825,-1.3669,-0.9612,-0.6235,-0.3609,-0.1781,-0.1236,-0.1012,-0.109,-0.1482,-0.1881,-0.2198,-0.2356,-0.2196,-0.2037,-0.2189,-0.2318,-0.2295,-0.2421,-0.2604,-0.287,-0.3302,-0.3919,-0.4664,-0.5069,-0.5066,0.8463,0.8878,0.9415,0.9941,1.0545,1.1088,1.1766,1.2413,1.2467,1.2654,1.2966,1.2805,1.2698,1.2698,1.2888,1.2946,1.282,1.2494,1.1969,1.1283,1.0639,1.0002,0.9429,0.8891,0.8605,0.8262,0.7836,0.7568,0.7182,0.6637,0.5706,0.456,0.3345,0.1898,0.0447,-0.0949,-0.2516,-0.3063,-0.1736,0.1968,0.7446,1.26,1.5677,1.7315,1.8101,1.8101,1.7346,1.5942,1.4382,1.3288,1.2166,1.1365,1.087,1.0498,0.9786,0.9221,0.8382,0.692,0.3429,-0.0261,-0.4179,-0.8292,-1.2238,-1.6153,-2.0373,-2.43,-2.7363,-2.886,-3.0415,-3.1039,-3.1219,-3.1948,-3.277,-3.3041,-3.3149,-3.3011,-3.293,-3.2401,-3.2109,-3.1298,-3.092,-3.049,-2.9913,-2.9291,-2.8607,-2.7743,-2.6204,-2.2689,-1.8671,-1.4125,-1.1075,-0.6949,-0.4555,-0.2108,-0.1176,-0.0628,0.0,0.0,-0.0786,-0.1099,-0.1256,-0.1413,-0.1257,-0.1178,-0.1334,-0.1484,-0.1617,-0.1753,-0.1968,-0.234,-0.2861,-0.3658,-0.4578,-0.4812,-0.486,0.9249,0.9399,0.988,1.0446,1.1065,1.1469,1.1908,1.2351,1.259,1.272,1.2859,1.2978,1.2995,1.2978,1.3057,1.2982,1.283,1.2465,1.18,1.116,1.0467,0.9806,0.9194,0.8685,0.8368,0.7836,0.7295,0.6583,0.6258,0.5769,0.5058,0.4239,0.2792,0.1621,0.0614,-0.0614,-0.044,0.0881,0.3794,0.8086,1.2471,1.5482,1.7264,1.8062,1.7882,1.714,1.6016,1.489,1.3658,1.2704,1.1732,1.0996,1.0428,0.9792,0.8952,0.7752,0.6074,0.4148,0.1701,-0.245,-0.6768,-1.1071,-1.5346,-1.9876,-2.4381,-2.7528,-2.9794,-3.0898,-3.1602,-3.2018,-3.2175,-3.2648,-3.2939,-3.3158,-3.306,-3.2791,-3.2521,-3.1969,-3.1408,-3.0506,-2.9567,-2.8839,-2.801,-2.6876,-2.6218,-2.5702,-2.248,-1.771,-1.3065,-0.7993,-0.5689,-0.3953,-0.2341,-0.1019,-0.0628,0.0,0.0,0.0,-0.0393,-0.0629,-0.0471,-0.0471,-0.055,-0.055,-0.0707,-0.0858,-0.1005,-0.1081,-0.1311,-0.1774,-0.2317,-0.311,-0.3834,-0.4144,-0.4048,1.0277,1.0277,1.0549,1.1006,1.1628,1.1927,1.2184,1.2429,1.2701,1.2842,1.2866,1.3029,1.3168,1.3246,1.3077,1.2935,1.2753,1.2204,1.1595,1.0964,1.0241,0.9629,0.8995,0.8474,0.7889,0.73,0.6588,0.5878,0.5281,0.4732,0.4405,0.4082,0.2516,0.1733,0.1392,0.1361,0.2097,0.577,1.0876,1.4379,1.6288,1.6987,1.7534,1.7484,1.6871,1.5818,1.4741,1.3852,1.2992,1.2282,1.1428,1.0681,1.004,0.9064,0.7673,0.5925,0.3596,0.045,-0.2541,-0.6352,-1.0139,-1.4342,-1.9108,-2.4149,-2.7947,-3.015,-3.1133,-3.2302,-3.2588,-3.2911,-3.3094,-3.3148,-3.3081,-3.2993,-3.2848,-3.2489,-3.2071,-3.1448,-3.0724,-2.986,-2.858,-2.6644,-2.5633,-2.4195,-2.3539,-2.3403,-1.9318,-1.3279,-0.8553,-0.3878,-0.2855,-0.2201,-0.1415,0.0,0.0,0.0,0.0,0.0,0.0,0.0,0.0,0.0,-0.0314,-0.0314,0.0,-0.0313,-0.0467,-0.0548,-0.0707,-0.1173,-0.1793,-0.2344,-0.2979,-0.3292,-0.3214,1.1368,1.1569,1.1469,1.1569,1.1927,1.2332,1.2529,1.2686,1.2822,1.291,1.2939,1.2959,1.2977,1.2968,1.2908,1.2791,1.2497,1.2184,1.1628,1.0913,1.0233,0.951,0.8784,0.8049,0.7348,0.6799,0.5987,0.5226,0.4622,0.4343,0.3735,0.3016,0.2837,0.2615,0.3666,0.5329,0.7419,1.1412,1.6622,1.8398,1.8104,1.7646,1.7396,1.6238,1.5114,1.3947,1.3417,1.2879,1.2343,1.1802,1.0919,0.9952,0.9111,0.7718,0.6063,0.3385,0.0064,-0.3504,-0.742,-1.1488,-1.5028,-1.8771,-2.3053,-2.7844,-3.0558,-3.1977,-3.2877,-3.3241,-3.3354,-3.3372,-3.34,-3.3302,-3.3032,-3.2651,-3.2353,-3.1912,-3.1419,-3.0768,-3.0038,-2.9191,-2.7469,-2.515,-2.2597,-2.105,-1.9846,-1.9624,-1.5608,-0.9724,-0.6888,-0.3036,-0.2273,-0.1583,-0.087,0.0,0.0,0.0,0.0,0.0,0.0,0.0,0.0,0.0,0.0,0.0,0.0,0.0,-0.0079,-0.0236,-0.0471,-0.0707,-0.1178,-0.1805,-0.2276,-0.2668,-0.2433,1.1927,1.2076,1.2175,1.2274,1.2431,1.2627,1.2832,1.2978,1.3152,1.318,1.319,1.3142,1.3007,1.292,1.2783,1.2588,1.2234,1.1877,1.1326,1.0608,0.9829,0.9099,0.8368,0.7616,0.6804,0.6204,0.5441,0.4897,0.4515,0.4601,0.5396,0.5163,0.462,0.625,0.7987,1.113,1.4027,1.5431,1.8457,1.9263,1.8865,1.7183,1.6253,1.4952,1.3941,1.3118,1.2634,1.2104,1.16,1.0961,0.9996,0.8745,0.715,0.5441,0.2916,0.0,-0.381,-0.8066,-1.2434,-1.6609,-2.0319,-2.407,-2.7567,-3.0309,-3.2202,-3.3176,-3.3588,-3.3813,-3.3797,-3.3689,-3.3597,-3.3214,-3.2731,-3.2248,-3.1737,-3.1266,-3.0619,-2.9873,-2.8628,-2.7481,-2.5279,-2.2917,-2.026,-1.7729,-1.6581,-1.535,-1.0851,-0.6806,-0.4382,-0.2471,-0.1686,-0.1132,-0.0486,0.0,0.0,0.0,0.0,0.0,0.0,0.0,0.0,0.0,0.0,0.0,0.0,0.0,0.0,0.0,-0.0236,-0.0471,-0.0786,-0.1178,-0.157,-0.2042,-0.1728,1.2323,1.2421,1.2725,1.2783,1.2783,1.291,1.3065,1.3258,1.3478,1.3563,1.3563,1.3372,1.3094,1.2871,1.2627,1.2332,1.1868,1.141,1.0804,1.0079,0.9302,0.8573,0.783,0.7128,0.6421,0.5769,0.5382,0.5003,0.5311,0.586,0.713,0.8044,0.849,1.0613,1.3227,1.7298,1.9523,1.9179,1.9066,1.8751,1.8551,1.6852,1.5311,1.4052,1.2964,1.2035,1.1454,1.0766,0.9983,0.9122,0.7999,0.6342,0.4294,0.187,-0.1143,-0.4703,-0.8585,-1.2797,-1.6938,-2.0664,-2.4488,-2.7892,-2.959,-3.1725,-3.3271,-3.4012,-3.4141,-3.413,-3.3979,-3.3743,-3.3494,-3.2805,-3.2126,-3.1585,-3.0766,-3.0204,-2.9378,-2.8528,-2.7033,-2.564,-2.3182,-2.0697,-1.7519,-1.4772,-1.2544,-1.1295,-0.8485,-0.5272,-0.3474,-0.1886,-0.1154,-0.0664,-0.025,0.0,0.0,0.0,0.0,0.0,0.0,0.0,0.0,0.0,0.0,0.0,0.0,0.0,0.0,0.0,-0.0079,-0.0157,-0.055,-0.0864,-0.1021,-0.1335,-0.1178,1.2686,1.2725,1.2978,1.3027,1.2968,1.3142,1.3372,1.3621,1.3868,1.3962,1.3879,1.3563,1.3132,1.2754,1.2372,1.1868,1.1301,1.0779,1.021,0.9451,0.8666,0.7978,0.7337,0.6696,0.6258,0.5878,0.586,0.6157,0.6706,0.8171,0.9686,1.1957,1.3655,1.5394,1.6892,1.8873,2.0019,2.0126,2.0128,1.931,1.8083,1.6508,1.5049,1.3735,1.2257,1.1135,0.9983,0.8654,0.7659,0.6318,0.4446,0.2367,-0.0063,-0.3045,-0.628,-0.9824,-1.3772,-1.7689,-2.1426,-2.4344,-2.7438,-3.0137,-3.1417,-3.2711,-3.4076,-3.4545,-3.439,-3.4227,-3.391,-3.3439,-3.2849,-3.2109,-3.1465,-3.056,-2.9722,-2.8748,-2.7912,-2.6631,-2.5103,-2.311,-2.0925,-1.8413,-1.5109,-1.1946,-0.9027,-0.6954,-0.5258,-0.3593,-0.2179,-0.1431,-0.0676,-0.0427,0.0,0.0,0.0,0.0,0.0,0.0,0.0,0.0,0.0,0.0,0.0,0.0,0.0,0.0,0.0,0.0,0.008,0.008,-0.0315,-0.0629,-0.0707,-0.0786,-0.0707,1.2881,1.2978,1.3104,1.3286,1.3498,1.3573,1.3752,1.3988,1.4233,1.4255,1.3926,1.3515,1.288,1.2363,1.1769,1.1209,1.0474,0.9953,0.9332,0.8705,0.7978,0.7509,0.6972,0.6647,0.6367,0.6509,0.6801,0.7866,0.8903,1.0724,1.2913,1.5274,1.8592,2.0355,2.0401,2.1132,2.1645,2.1027,2.0449,1.9475,1.8141,1.6569,1.5097,1.3826,1.1936,0.9963,0.8069,0.6285,0.3972,0.1955,-0.0311,-0.2995,-0.5703,-0.8769,-1.1961,-1.5334,-1.9057,-2.2687,-2.6222,-2.9082,-3.0226,-3.1713,-3.2619,-3.3562,-3.4699,-3.4732,-3.448,-3.4068,-3.3588,-3.2978,-3.2124,-3.1309,-3.0505,-2.9177,-2.8154,-2.7045,-2.5922,-2.4454,-2.2784,-2.0442,-1.8118,-1.4309,-1.0763,-0.9235,-0.6678,-0.4649,-0.3166,-0.2564,-0.1371,-0.0947,-0.0346,-0.0176,0.0,0.0,0.0,0.0,0.0,0.0,0.0,0.0,0.0,0.0,0.0,0.0,0.0,0.0,0.0163,0.0325,0.041,0.0329,0.0081,-0.0238,-0.0397,-0.0395,-0.0471,1.2978,1.3133,1.3286,1.3563,1.3905,1.3999,1.4186,1.4455,1.4605,1.4384,1.3941,1.3314,1.253,1.1792,1.104,1.032,0.9488,0.8856,0.8383,0.7806,0.7337,0.702,0.681,0.6966,0.7256,0.7641,0.8745,0.9964,1.1659,1.3813,1.6614,1.9948,2.3135,2.3784,2.3597,2.3384,2.2783,2.1931,2.0995,2.0017,1.8877,1.7669,1.6385,1.4333,1.1781,0.8673,0.5589,0.242,-0.1101,-0.3757,-0.6535,-0.9295,-1.2061,-1.4822,-1.7734,-2.0665,-2.395,-2.7083,-2.979,-3.1766,-3.2493,-3.2955,-3.3597,-3.4168,-3.4698,-3.4572,-3.411,-3.3652,-3.3129,-3.2214,-3.128,-3.0502,-2.9158,-2.7773,-2.6209,-2.5043,-2.3387,-2.1924,-1.9898,-1.7556,-1.4775,-1.0709,-0.7149,-0.6034,-0.453,-0.2822,-0.1226,-0.0963,-0.0699,-0.0439,-0.0176,-0.0089,0.0,0.0,0.0,0.0,0.0,0.0,0.0,0.0,0.0,0.0,0.0,0.0,0.0,0.0167,0.0419,0.0672,0.0839,0.0834,0.0659,0.0325,0.0,-0.008,-0.016,1.2988,1.3172,1.3478,1.3847,1.4176,1.4373,1.4697,1.5017,1.4789,1.4408,1.3884,1.2957,1.1963,1.1057,1.0143,0.9266,0.8482,0.7747,0.7326,0.7015,0.6804,0.675,0.7111,0.7576,0.8469,0.9525,1.0916,1.2711,1.465,1.7351,2.0688,2.383,2.5909,2.634,2.5937,2.5282,2.4156,2.2923,2.1989,2.1209,2.0414,1.9821,1.847,1.5914,1.1729,0.6938,0.2436,-0.27,-0.7448,-1.0931,-1.3773,-1.6118,-1.8438,-2.078,-2.2921,-2.5415,-2.8574,-3.0224,-3.1757,-3.3338,-3.3749,-3.3788,-3.3802,-3.427,-3.4396,-3.4167,-3.3561,-3.2943,-3.2353,-3.1345,-3.0387,-2.9057,-2.7698,-2.5942,-2.4062,-2.2473,-2.0737,-1.8912,-1.6862,-1.4434,-1.1747,-0.836,-0.5056,-0.3398,-0.2867,-0.1517,-0.0266,-0.0178,0.0,-0.0089,0.0089,0.0,0.0,0.0,0.0,0.0,0.0,0.0,0.0,0.0,0.0,0.0,0.0,0.0,0.0,0.0256,0.0687,0.1113,0.1445,0.1351,0.1353,0.0835,0.0497,0.0249,0.0,1.3162,1.3382,1.38,1.4222,1.4605,1.5017,1.5198,1.5051,1.4823,1.4247,1.3362,1.2365,1.1199,1.0041,0.894,0.7941,0.7154,0.6573,0.6367,0.6317,0.6642,0.7111,0.7882,0.8885,1.0054,1.167,1.3363,1.5314,1.7637,2.0523,2.3499,2.6314,2.7662,2.7911,2.7745,2.7345,2.5738,2.4331,2.3491,2.294,2.2526,2.2059,2.0474,1.7071,1.0267,0.4959,-0.0721,-0.8675,-1.3826,-1.7098,-1.9429,-2.152,-2.3334,-2.5055,-2.6844,-2.9061,-3.0845,-3.2007,-3.3218,-3.4068,-3.4312,-3.3866,-3.3521,-3.3698,-3.3783,-3.3332,-3.2652,-3.1944,-3.1041,-2.9909,-2.8584,-2.7225,-2.5547,-2.3573,-2.1653,-1.9649,-1.7907,-1.5894,-1.3811,-1.1245,-0.8545,-0.6098,-0.2948,-0.1969,-0.1345,-0.009,0.0538,0.0628,0.0538,0.0449,0.0269,0.018,0.009,0.018,0.0,0.0,0.0,0.0,0.0,0.0,0.0,0.0,0.0,0.0,0.0,0.0613,0.1149,0.1492,0.1997,0.2193,0.2197,0.1469,0.0938,0.0682,0.0,1.3344,1.3621,1.4129,1.4605,1.5108,1.5379,1.5277,1.496,1.4617,1.3909,1.2812,1.1648,1.0324,0.894,0.7782,0.672,0.5869,0.5655,0.5605,0.6091,0.673,0.7817,0.8937,1.0506,1.2053,1.3755,1.5659,1.7628,2.0175,2.3367,2.6468,2.7471,2.867,2.8945,2.8858,2.8581,2.7846,2.6508,2.5554,2.5056,2.458,2.3806,2.1406,1.6868,0.8946,0.2062,-0.472,-1.392,-1.9165,-2.2327,-2.4494,-2.5812,-2.7233,-2.8426,-2.9514,-3.1356,-3.2092,-3.2607,-3.3175,-3.3468,-3.3493,-3.2985,-3.2211,-3.1614,-3.1522,-3.1185,-3.0852,-3.0412,-2.9358,-2.8201,-2.6744,-2.5165,-2.3064,-2.0937,-1.8847,-1.6782,-1.4792,-1.2825,-1.0525,-0.8028,-0.5676,-0.3476,-0.1701,-0.0896,-0.0179,0.0628,0.0987,0.1076,0.0897,0.0718,0.0538,0.0449,0.0359,0.0,0.0,0.0,0.0,0.0,0.0,0.0,0.0,0.0,0.0,0.0,0.0,0.0895,0.1339,0.2057,0.2494,0.278,0.269,0.2034,0.1398,0.0874,0.0,1.3621,1.3905,1.4373,1.4971,1.557,1.5468,1.513,1.4617,1.4201,1.3426,1.2209,1.0889,0.9438,0.7988,0.6714,0.5701,0.5164,0.4952,0.5546,0.6018,0.7435,0.8768,1.0606,1.2196,1.3956,1.5818,1.7632,1.9498,2.2312,2.5006,2.7013,2.8204,2.9286,2.9784,2.9882,3.0033,2.9663,2.9225,2.8184,2.7471,2.6387,2.4582,2.1073,1.4911,0.654,-0.2103,-1.0446,-1.7753,-2.3997,-2.6676,-2.8272,-2.913,-2.9786,-3.0499,-3.1535,-3.1933,-3.2374,-3.2294,-3.217,-3.2111,-3.1551,-3.0872,-2.9977,-2.8712,-2.8216,-2.9022,-2.8932,-2.8026,-2.6904,-2.5593,-2.4105,-2.2236,-2.0173,-1.8046,-1.5882,-1.3861,-1.1872,-0.9847,-0.7592,-0.5419,-0.3829,-0.1701,-0.0806,0.0,0.0359,0.1076,0.1346,0.1346,0.1166,0.0897,0.0718,0.0628,0.0538,0.0,0.0,0.0,0.0,0.0,0.0,0.0,0.0,0.0,0.0,0.0,0.0359,0.0987,0.1613,0.2242,0.2781,0.3139,0.3048,0.251,0.1877,0.1157,0.0,1.401,1.4326,1.4743,1.5153,1.5345,1.5153,1.4709,1.4107,1.3294,1.2502,1.1499,1.012,0.8561,0.6983,0.5806,0.4838,0.4401,0.4835,0.5701,0.7063,0.8456,1.034,1.2282,1.4011,1.5801,1.7463,1.9185,2.1085,2.3546,2.5694,2.7238,2.8356,2.9489,3.026,3.0715,3.1063,3.1513,3.1348,3.0996,2.9466,2.7809,2.4824,2.1023,1.2323,0.3111,-0.7922,-1.6374,-2.3802,-2.7981,-3.057,-3.0212,-3.0432,-3.0721,-3.1257,-3.1674,-3.1912,-3.1495,-3.1063,-3.048,-2.9822,-2.8909,-2.7834,-2.6665,-2.5277,-2.505,-2.6396,-2.6519,-2.5333,-2.4204,-2.2788,-2.1251,-1.923,-1.7213,-1.5056,-1.2872,-1.0947,-0.9009,-0.691,-0.4723,-0.3304,-0.188,-0.0896,0.009,0.0628,0.0987,0.1166,0.1346,0.1346,0.1166,0.0897,0.0718,0.0628,0.0628,0.0,0.0,0.0,0.0,0.0,0.0,0.0,0.0,0.0,0.0,0.0,0.0449,0.0987,0.1525,0.2154,0.2693,0.3229,0.305,0.2422,0.1884,0.1252,0.0627,1.4337,1.4523,1.488,1.5062,1.5062,1.4823,1.4362,1.3684,1.2706,1.1706,1.0637,0.929,0.7776,0.618,0.505,0.4457,0.4125,0.4827,0.6206,0.7822,0.9852,1.1849,1.3793,1.5635,1.7047,1.8641,2.0521,2.2499,2.4362,2.5695,2.6911,2.8092,2.9355,3.0525,3.1143,3.2113,3.2836,3.277,3.2815,3.0655,2.7084,2.1889,1.6464,0.7645,-0.327,-1.4122,-2.0953,-2.7691,-2.9756,-3.1148,-3.0799,-3.0677,-3.0695,-3.067,-3.061,-3.0325,-2.9711,-2.8838,-2.7934,-2.6811,-2.5573,-2.424,-2.2847,-2.1284,-2.0149,-2.1193,-2.1556,-2.0601,-2.025,-1.9022,-1.7527,-1.567,-1.3794,-1.168,-0.9904,-0.8115,-0.6295,-0.445,-0.2948,-0.1969,-0.0807,0.0,0.0718,0.0987,0.1256,0.1436,0.1525,0.1076,0.0897,0.0808,0.0628,0.0538,0.0538,0.0,0.0,0.0,0.0,0.0,0.0,0.0,0.0,0.0,0.0,0.0,0.0449,0.0897,0.1436,0.1974,0.2512,0.2959,0.2691,0.2244,0.1795,0.1346,0.0897,1.4616,1.4616,1.4731,1.4812,1.4731,1.4466,1.3988,1.3362,1.2276,1.1107,0.9982,0.8678,0.709,0.5697,0.4725,0.4288,0.4498,0.5625,0.7036,0.927,1.1202,1.3211,1.5066,1.6754,1.8106,1.9618,2.1445,2.2697,2.408,2.532,2.652,2.7582,2.8995,3.0429,3.1426,3.2416,3.3305,3.2712,3.1553,2.8474,2.2683,1.5691,0.9815,0.072,-1.0267,-2.1097,-2.6081,-2.8776,-3.0456,-3.0345,-3.0156,-2.9671,-2.9338,-2.8914,-2.8301,-2.7821,-2.6535,-2.5331,-2.4169,-2.2704,-2.1482,-2.0132,-1.8668,-1.7349,-1.6231,-1.5874,-1.6212,-1.5905,-1.5589,-1.5204,-1.3707,-1.2163,-1.0333,-0.8719,-0.7078,-0.5596,-0.3922,-0.2415,-0.1522,-0.0628,0.0179,0.0987,0.1256,0.1436,0.1525,0.1705,0.1436,0.0987,0.0628,0.0538,0.0359,0.0359,0.0359,0.0,0.0,0.0,0.0,0.0,0.0,0.0,0.0,0.0,0.0,0.0,0.0539,0.0897,0.1256,0.1705,0.2242,0.2689,0.2422,0.2064,0.1885,0.1436,0.1166,1.4777,1.4662,1.4455,1.4269,1.415,1.3905,1.342,1.2852,1.2049,1.0981,0.9791,0.8488,0.7052,0.5483,0.5003,0.4783,0.5148,0.6474,0.9259,1.184,1.2791,1.462,1.6225,1.7502,1.8821,2.026,2.1635,2.2711,2.381,2.5019,2.6449,2.8018,2.987,3.1439,3.2905,3.3575,3.3486,3.2251,2.9006,2.5641,2.0127,1.279,0.4363,-0.5093,-1.5551,-2.3203,-2.8034,-2.935,-2.9518,-2.9165,-2.8291,-2.7408,-2.6577,-2.5925,-2.5092,-2.3765,-2.2496,-2.1107,-1.9616,-1.8333,-1.7062,-1.6053,-1.4669,-1.3525,-1.2471,-1.1359,-1.1204,-1.0327,-1.0305,-1.1128,-1.0062,-0.878,-0.7169,-0.594,-0.4543,-0.3479,-0.2058,-0.1254,-0.0538,0.0269,0.0986,0.1524,0.1973,0.1973,0.1884,0.1794,0.1166,0.0718,0.0538,0.0359,0.018,0.0,0.0,0.0,0.0,0.0,0.0,0.0,0.0,0.0,0.0269,0.0359,0.0359,0.0449,0.0539,0.0807,0.1166,0.1436,0.1705,0.2063,0.1973,0.1795,0.1705,0.1705,0.1614]}]]